[[{"header":{"parameterUnit":"m.s-1","parameterCategory":1,"la1":30.6,"la2":29.2853,"lo1":-89.7004,"lo2":-87.6739,"dy":0.0162,"dx":0.0183,"nx":112,"ny":82,"refTime":"2023-06-22T12:00:00:Z","depth":0,"parameterNumber":2,"parameterNumberName":"U-component_of_WINDS"},"data":[0.0,0.0,0.0,0.0,0.0,0.0,0.0,0.0,0.0,0.0,0.0,0.0,0.0,0.0,0.0,0.0,0.0,0.0,0.0,0.0,0.0,0.0,0.0,0.0,0.0,0.0,0.0,0.0,0.0,0.0,0.0,0.0,0.0,0.0,0.0,0.0,0.0,0.0,0.0,0.0,0.0,0.0,0.0,0.0,0.0,0.0,0.0,0.0,0.0,0.0,0.0,0.0,0.0,0.0,0.0,0.0,0.0,0.0,0.0,0.0,0.0,0.0,0.0,0.0,0.0,0.0,0.0,0.0,0.0,0.0,0.0,0.0,0.0,0.0,0.0,0.0,0.0,0.0,0.0,0.0,0.0,0.0,0.0,0.0,0.0,0.0,0.0,0.0,0.0,0.0,1.4171,1.3739,1.5189,1.6094,1.5903,1.6613,1.6247,1.4251,0.0,0.0,0.0,0.0,0.0,0.0,0.0,0.0,0.0,0.0,0.0,0.0,0.0,0.0,0.0,0.0,0.0,0.0,0.0,0.0,0.0,0.0,0.0,0.0,0.0,0.0,0.0,0.0,0.0,0.0,0.0,0.0,0.0,0.0,0.0,0.0,0.0,0.0,0.0,0.0,0.0,0.0,0.0,0.0,0.0,0.0,0.0,0.0,0.0,0.0,0.0,0.0,0.0,0.0,0.0,0.0,0.0,0.0,0.0,0.0,0.0,0.0,0.0,0.0,0.0,0.0,0.0,0.0,0.0,0.0,0.0,0.0,0.0,0.0,0.0,0.0,0.0,0.0,0.0,0.0,0.0,0.0,0.0,0.0,0.0,0.0,0.0,0.0,0.0,0.0,0.0,0.0,0.0,0.0,0.0,0.0,0.0,0.0,0.0,0.0,0.0,0.0,0.0,0.0,1.5291,1.3783,1.5057,1.5719,1.4981,1.5096,1.5087,1.4776,0.0,0.0,0.0,0.0,0.0,0.0,0.0,0.0,0.0,0.0,0.0,0.0,0.0,0.0,0.0,0.0,0.0,0.0,0.0,0.0,0.0,0.0,0.0,0.0,0.0,0.0,0.0,0.0,0.0,0.0,0.0,0.0,0.0,0.0,0.0,0.0,0.0,0.0,0.0,0.0,0.0,0.0,0.0,0.0,0.0,0.0,0.0,0.0,0.0,0.0,0.0,0.0,0.0,0.0,0.0,0.0,0.0,0.0,0.0,0.0,0.0,0.0,0.0,0.0,0.0,0.0,0.0,0.0,0.0,0.0,0.0,0.0,0.0,0.0,0.0,0.0,0.0,0.0,0.0,0.0,0.0,0.0,0.0,0.0,0.0,0.0,0.0,0.0,0.0,0.0,0.0,0.0,0.0,0.0,0.0,0.0,0.0,0.0,0.0,0.0,0.0,0.0,0.0,1.5117,1.4336,1.2831,1.3695,1.4068,1.3292,1.2833,1.298,1.3913,1.4052,0.0,0.0,0.0,0.0,0.0,0.0,0.0,0.0,0.0,0.0,0.0,0.0,0.0,0.0,0.0,0.0,0.0,0.0,0.0,0.0,0.0,0.0,0.0,0.0,0.0,0.0,0.0,0.0,0.0,0.0,0.0,0.0,0.0,0.0,0.0,0.0,0.0,0.0,0.0,0.0,0.0,0.0,0.0,0.0,0.0,0.0,0.0,0.0,0.0,0.0,0.0,0.0,0.0,0.0,0.0,0.0,0.0,0.0,0.0,0.0,0.0,0.0,0.0,0.0,0.0,0.0,0.0,0.0,0.0,0.0,0.0,0.0,0.0,0.0,0.0,0.0,0.0,0.0,0.0,0.0,0.0,0.0,0.0,0.0,0.0,0.0,0.0,0.0,0.0,0.0,0.0,0.0,0.0,0.0,0.0,0.0,0.0,0.0,0.0,0.0,0.0,0.0,1.3714,1.2626,1.1866,1.2237,1.2327,1.183,1.0867,1.1041,1.2876,1.2503,0.0,0.0,0.0,0.0,0.0,0.0,0.0,0.0,0.0,0.0,0.0,0.0,0.0,0.0,0.0,0.0,0.0,0.0,0.0,0.0,0.0,0.0,0.0,0.0,0.0,0.0,0.0,0.0,0.0,0.0,0.0,0.0,0.0,0.0,0.0,0.0,0.0,0.0,0.0,0.0,0.0,0.0,0.0,0.0,0.0,0.0,0.0,0.0,0.0,0.0,0.0,0.0,0.0,0.0,0.0,0.0,0.0,0.0,0.0,0.0,0.0,0.0,0.0,0.0,0.0,0.0,0.0,0.0,0.0,0.0,0.0,0.0,0.0,0.0,0.0,0.0,0.0,0.0,0.0,0.0,0.0,0.0,0.0,0.0,0.0,0.0,0.0,0.0,0.0,0.0,0.0,0.0,0.0,0.0,0.0,0.0,0.0,0.0,0.0,0.0,0.0,0.0,1.2471,1.0649,1.1369,1.1256,1.1155,1.1168,0.9841,0.9985,1.2227,1.2099,0.0,0.0,0.0,0.0,0.0,0.0,0.0,0.0,0.0,0.0,0.0,0.0,0.0,0.0,0.0,0.0,0.0,0.0,0.0,0.0,0.0,0.0,0.0,0.0,0.0,0.0,0.0,0.0,0.0,0.0,0.0,0.0,0.0,0.0,0.0,0.0,0.0,0.0,0.0,0.0,0.0,0.0,0.0,0.0,0.0,0.0,0.0,0.0,0.0,0.0,0.0,0.0,0.0,0.0,0.0,0.0,0.0,0.0,0.0,0.0,0.0,0.0,0.0,0.0,0.0,0.0,0.0,0.0,0.0,0.0,0.0,0.0,0.0,0.0,0.0,0.0,0.0,0.0,0.0,0.0,0.0,0.0,0.0,0.0,0.0,0.0,0.0,0.0,0.0,0.0,0.0,0.0,0.0,0.0,0.0,0.0,0.0,0.0,0.0,0.0,0.0,0.0,1.2555,1.0913,0.0,0.9719,0.9715,0.9319,0.8776,0.9244,1.1048,0.0,0.0,0.0,0.0,0.0,0.0,0.0,0.0,0.0,0.0,0.0,0.0,0.0,0.0,0.0,0.0,0.0,0.0,0.0,0.0,0.0,0.0,0.0,0.0,0.0,0.0,0.0,0.0,0.0,0.0,0.0,0.0,0.0,0.0,0.0,0.0,0.0,0.0,0.0,0.0,0.0,0.0,0.0,0.0,0.0,0.0,0.0,0.0,0.0,0.0,0.0,0.0,0.0,0.0,0.0,0.0,0.0,0.0,0.0,0.0,0.0,0.0,0.0,0.0,0.0,0.0,0.0,0.0,0.0,0.0,0.0,0.0,0.0,0.0,0.0,0.0,0.0,0.0,0.0,0.0,0.0,0.0,0.0,0.0,0.0,0.0,0.0,0.0,0.0,0.0,0.0,0.0,0.0,0.0,0.0,0.0,0.0,0.0,0.0,0.0,0.0,0.0,1.3851,1.2211,1.0436,0.0,0.8545,0.8468,0.7898,0.7766,0.8442,1.0097,0.0,0.0,0.0,0.0,0.0,0.0,0.0,0.0,0.0,0.0,0.0,0.0,0.0,0.0,0.0,0.0,0.0,0.0,0.0,0.0,0.0,0.0,0.0,0.0,0.0,0.0,0.0,0.0,0.0,0.0,0.0,0.0,0.0,0.0,0.0,0.0,0.0,0.0,0.0,0.0,0.0,0.0,0.0,0.0,0.0,0.0,0.0,0.0,0.0,0.0,0.0,0.0,0.0,0.0,0.0,0.0,0.0,0.0,0.0,0.0,0.0,0.0,0.0,0.0,0.0,0.0,0.0,0.0,0.0,0.0,0.0,0.0,0.0,0.0,0.0,0.0,0.0,0.0,0.0,0.0,0.0,0.0,0.0,0.0,0.0,0.0,0.0,0.0,0.0,0.0,0.0,0.0,0.0,0.0,0.0,0.0,0.0,0.0,0.0,0.0,0.0,0.0,1.4217,1.1144,0.8822,0.8352,0.7883,0.7477,0.712,0.6858,0.7541,0.0,0.0,0.0,0.0,0.0,0.0,0.0,0.0,0.0,0.0,0.0,0.0,0.0,0.0,0.0,0.0,0.0,0.0,0.0,0.0,0.0,0.0,0.0,0.0,0.0,0.0,0.0,0.0,0.0,0.0,0.0,0.0,0.0,0.0,0.0,0.0,0.0,0.0,0.0,0.0,0.0,0.0,0.0,0.0,0.0,0.0,0.0,0.0,0.0,0.0,0.0,0.0,0.0,0.0,0.0,0.0,0.0,0.0,0.0,0.0,0.0,0.0,0.0,0.0,0.0,0.0,0.0,0.0,0.0,0.0,0.0,0.0,0.0,0.0,0.0,0.0,0.0,0.0,0.0,0.0,0.0,0.0,0.0,0.0,0.0,0.0,0.0,0.0,0.0,0.0,0.0,0.0,0.0,0.0,0.0,0.0,0.0,0.0,0.0,0.0,0.0,0.0,0.0,1.3101,1.0695,0.8792,0.8083,0.7764,0.7473,0.714,0.7117,0.7714,0.9085,0.0,0.0,0.0,0.0,0.0,0.0,0.0,0.0,0.0,0.0,0.0,0.0,0.0,0.0,0.0,0.0,0.0,0.0,0.0,0.0,0.0,0.0,0.0,0.0,0.0,0.0,0.0,0.0,0.0,0.0,0.0,0.0,0.0,0.0,0.0,0.0,0.0,0.0,0.0,0.0,0.0,0.0,0.0,0.0,0.0,0.0,0.0,0.0,0.0,0.0,0.0,0.0,0.0,0.0,0.0,0.0,0.0,0.0,0.0,0.0,0.0,0.0,0.0,0.0,0.0,0.0,0.0,0.0,0.0,0.0,0.0,0.0,0.0,0.0,0.0,0.0,0.0,0.0,0.0,0.0,0.0,0.0,0.0,0.0,0.0,0.0,0.0,0.0,0.0,0.0,0.0,0.0,0.0,0.0,0.0,0.0,0.0,0.0,0.0,0.0,0.0,0.0,1.2424,1.0174,0.8448,0.7876,0.7383,0.7021,0.6923,0.7162,0.7655,0.8358,0.0,0.0,0.0,0.0,0.0,0.0,0.0,0.0,0.0,0.0,0.0,0.0,0.0,0.0,0.0,0.0,0.0,0.0,0.0,0.0,0.0,0.0,0.0,0.0,0.0,0.0,0.0,0.0,0.0,0.0,0.0,0.0,0.0,0.0,0.0,0.0,0.0,0.0,0.0,0.0,0.0,0.0,0.0,0.0,0.0,0.0,0.0,0.0,0.0,0.0,0.0,0.0,0.0,0.0,0.0,0.0,0.0,0.0,0.0,0.0,0.0,0.0,0.0,0.0,0.0,0.0,0.0,0.0,0.0,0.0,0.0,0.0,0.0,0.0,0.0,0.0,0.0,0.0,0.0,0.0,0.0,0.0,0.0,0.0,0.0,0.0,0.0,0.0,0.0,0.0,0.0,0.0,0.0,0.0,0.0,0.0,0.0,0.0,0.0,0.0,0.0,0.0,1.1972,0.9617,0.7932,0.7717,0.6905,0.6468,0.6628,0.7115,0.7465,0.7515,0.0,0.0,0.0,0.0,0.0,0.0,0.0,0.0,0.0,0.0,0.0,0.0,0.0,0.0,0.0,0.0,0.0,0.0,0.0,0.0,0.0,0.0,0.0,0.0,0.0,0.0,0.0,0.0,0.0,0.0,0.0,0.0,0.0,0.0,0.0,0.0,0.0,0.0,0.0,0.0,0.0,0.0,0.0,0.0,0.0,0.0,0.0,0.0,0.0,0.0,0.0,0.0,0.0,0.0,0.0,0.0,0.0,0.0,0.0,0.0,1.8261,0.0,0.0,0.0,0.0,0.0,0.0,0.0,0.0,0.0,0.0,0.0,0.0,0.0,0.0,0.0,0.0,0.0,0.0,0.0,0.0,0.0,0.0,0.0,0.0,0.0,0.0,0.0,0.0,0.0,0.0,0.0,0.0,0.0,0.0,0.0,0.0,0.0,0.0,0.0,0.0,0.0,1.1075,0.9303,0.793,0.7567,0.7366,0.7129,0.6864,0.7322,0.7635,0.7577,0.7749,0.0,0.0,0.0,0.0,0.0,0.0,0.0,0.0,0.0,0.0,0.0,0.0,0.0,0.0,0.0,0.0,0.0,0.0,0.0,0.0,0.0,0.0,0.0,0.0,0.0,0.0,0.0,0.0,0.0,0.0,0.0,0.0,0.0,0.0,0.0,0.0,0.0,0.0,0.0,0.0,0.0,0.0,0.0,0.0,0.0,0.0,0.0,0.0,0.0,0.0,0.0,0.0,0.0,0.0,0.0,0.0,0.0,0.0,0.0,0.0,1.9187,0.0,0.0,0.0,0.0,0.0,0.0,0.0,0.0,0.0,0.0,0.0,0.0,0.0,0.0,0.0,0.0,0.0,0.0,0.0,0.0,0.0,0.0,0.0,0.0,0.0,0.0,0.0,0.0,0.0,0.0,0.0,0.0,0.0,0.0,0.0,0.0,0.0,0.0,0.0,0.0,0.9902,0.8383,0.7348,0.7301,0.7049,0.69,0.6988,0.7302,0.7459,0.7355,0.76,0.0,0.0,0.0,0.0,0.0,0.0,0.0,0.0,0.0,0.0,0.0,0.0,0.0,0.0,0.0,0.0,0.0,0.0,0.0,0.0,0.0,0.0,0.0,0.0,0.0,0.0,0.0,0.0,0.0,0.0,0.0,0.0,0.0,0.0,0.0,0.0,0.0,0.0,0.0,0.0,0.0,0.0,0.0,0.0,0.0,0.0,0.0,0.0,0.0,0.0,0.0,0.0,0.0,1.5904,1.6334,1.7402,1.7141,1.702,1.7023,1.7935,1.8429,1.8645,1.9378,0.0,0.0,0.0,0.0,0.0,0.0,0.0,0.0,0.0,0.0,0.0,0.0,0.0,0.0,0.0,0.0,0.0,0.0,0.0,0.0,0.0,0.0,0.0,0.0,0.5004,0.5408,0.7425,0.0,0.0,0.0,0.0,0.0,0.0,0.0,0.0,0.0,0.0,0.0,0.8802,0.7506,0.678,0.7041,0.6638,0.6553,0.7036,0.7255,0.7332,0.7212,0.7804,0.8201,0.0,0.0,0.0,0.0,0.0,0.0,0.0,0.0,0.0,0.0,0.0,0.0,0.0,0.0,0.0,0.0,0.0,0.0,0.0,0.0,0.0,0.0,0.0,0.0,0.0,0.0,0.0,0.0,0.0,0.0,0.0,0.0,2.0243,2.0527,0.0,0.0,0.0,0.0,0.0,0.0,0.0,0.0,0.0,0.0,0.0,0.0,0.0,1.5158,1.5973,1.5531,1.5612,1.6191,1.6041,1.6333,1.7082,1.7143,1.7339,1.7684,1.7685,0.0,1.7339,1.7291,0.0,0.0,0.0,0.0,0.0,0.0,0.0,0.0,0.0,0.0,0.0,0.0,0.0,0.0,0.0,0.0,0.0,0.0,0.0,0.0,0.0,0.0,0.335,0.2922,0.2452,0.2119,0.0,0.3597,0.486,0.6089,0.7723,0.0,0.0,0.0,0.0,0.0,0.0,0.0,0.8349,0.7518,0.6949,0.7031,0.6949,0.6921,0.7002,0.7418,0.7643,0.764,0.7654,0.8094,0.9002,0.7966,0.0,0.0,0.0,0.0,0.0,0.0,0.0,0.0,0.0,0.0,0.0,0.0,0.0,0.0,0.0,0.0,0.0,0.0,0.0,0.0,0.0,0.0,0.0,0.0,0.0,0.0,0.0,0.0,0.0,2.0196,1.974,1.9039,1.9178,1.9131,0.0,0.0,0.0,0.0,0.0,0.0,0.0,0.0,0.0,1.4864,1.4979,1.5176,1.5478,1.5408,1.5578,1.5916,1.5965,1.6231,1.6691,1.6844,1.703,1.7219,1.6967,1.683,1.6818,1.733,1.7717,1.8081,0.0,0.0,0.0,0.0,2.0412,1.979,1.8805,1.7834,0.0,1.4105,0.0,0.0,0.0,0.0,0.0,0.0,0.0,0.0,0.0,0.0,0.2245,0.208,0.1773,0.1456,0.123,0.2065,0.3392,0.0,0.5873,0.6833,0.8606,0.0,0.0,0.0,0.0,0.7321,0.6877,0.6581,0.6465,0.6562,0.6774,0.6943,0.6979,0.7189,0.7433,0.7682,0.7419,0.7676,0.8675,0.8116,0.8489,0.0,0.0,0.0,0.0,0.0,0.0,0.0,0.0,0.0,0.0,0.0,0.0,0.0,0.0,0.0,0.0,0.0,0.0,0.0,0.0,0.0,0.0,0.0,0.0,0.0,0.0,0.0,0.0,1.9089,1.8531,1.7509,1.7289,1.7279,0.0,0.0,0.0,0.0,0.0,0.0,1.4718,1.4971,1.5003,1.4701,1.5073,1.5335,1.5403,1.5721,1.6051,1.6348,1.6549,1.6748,1.6931,1.7032,1.7118,1.7155,1.6835,1.6629,1.6587,1.7232,1.744,1.7446,1.8495,1.8909,1.9056,2.0018,1.9247,1.7637,1.6737,1.5087,1.3014,1.0357,0.8427,0.6654,0.4102,0.0,0.0,0.0,0.0,0.1339,0.1338,0.134,0.1287,0.1343,0.112,0.0841,0.0559,0.1175,0.2232,0.0,0.421,0.4973,0.7329,0.0,0.0,0.0,0.0,0.6643,0.5738,0.5896,0.607,0.6142,0.6631,0.6983,0.7055,0.7092,0.7262,0.7772,0.7398,0.7601,0.8609,0.8355,0.8822,1.0082,0.0,0.0,0.0,0.0,0.0,0.0,0.0,0.0,0.0,0.0,0.0,0.0,0.0,0.0,0.0,0.0,0.0,0.0,0.0,0.0,0.0,0.0,0.0,0.0,0.0,0.0,0.0,0.0,0.0,1.6,1.5492,0.0,0.0,0.0,0.0,1.3979,1.4842,1.5216,1.4881,1.5273,1.5541,1.5711,1.5641,1.612,1.7232,1.7423,1.7692,1.8066,1.8263,1.838,1.838,1.8224,1.8145,1.8106,1.7907,1.7382,1.6634,1.6072,1.6816,1.8303,1.813,1.8897,2.0091,1.9973,1.8748,1.6729,1.3927,1.1624,0.9468,0.6595,0.372,0.1072,-0.0221,-0.0837,0.0,0.0,0.0112,0.0168,0.0615,-0.0,-0.0617,-0.0056,-0.0336,-0.0729,-0.0561,0.0168,0.1008,0.0,0.2892,0.3831,0.4491,0.0,0.5565,0.6019,0.6079,0.5917,0.5558,0.5906,0.613,0.6019,0.6667,0.7148,0.7276,0.7269,0.7493,0.8033,0.7815,0.8242,0.9478,0.892,0.9455,1.1349,1.0316,0.0,0.0,0.0,0.0,0.0,0.0,0.0,0.0,0.0,0.0,0.0,0.0,0.0,0.0,0.0,0.0,0.0,0.0,0.0,0.0,0.0,0.0,0.0,0.0,0.0,0.0,0.0,0.0,1.5668,1.4906,0.0,1.4566,1.3877,1.3409,1.3462,1.4418,1.4786,1.4272,1.4904,1.5272,1.5234,1.5928,1.6462,1.674,1.7431,1.7877,1.8003,1.7895,1.7855,1.7855,1.7557,1.7222,1.6904,1.6611,1.6138,1.5608,1.5401,1.5851,1.6673,1.6637,1.6747,1.6803,1.5815,1.3898,1.1514,0.9408,0.6962,0.4368,0.1996,-0.0,-0.1486,-0.1947,-0.2122,-0.2066,-0.134,-0.1174,-0.1064,-0.0672,-0.0672,-0.0785,-0.0729,-0.0561,-0.0505,-0.0729,-0.0224,0.0224,0.0224,0.1563,0.3012,0.395,0.4311,0.4545,0.48,0.5009,0.4998,0.4581,0.4943,0.5391,0.5831,0.6379,0.6913,0.7389,0.7436,0.7523,0.7842,0.774,0.8091,0.8943,0.8626,0.8938,0.9873,0.9758,0.9582,0.0,0.0,0.0,0.0,0.0,0.0,0.0,0.0,0.0,0.0,0.0,0.0,0.0,0.0,0.0,0.0,0.0,0.0,0.0,0.0,0.0,0.0,0.0,0.0,0.0,0.0,1.6212,1.5828,1.4523,1.3778,1.3997,1.3231,1.2672,1.2552,1.3667,1.4112,1.3485,1.4487,1.511,1.5069,1.5987,1.6504,1.6531,1.7181,1.7421,1.7271,1.6709,1.6351,1.6156,1.5302,1.4763,1.4394,1.4118,1.3928,1.3834,1.4185,1.4737,1.5451,1.5925,1.5902,1.5409,1.3572,1.1259,0.851,0.5271,0.2327,-0.0165,-0.1274,-0.2393,-0.3292,-0.307,-0.3014,-0.2903,-0.2514,-0.2125,-0.179,-0.1625,-0.1233,-0.0954,-0.129,-0.101,-0.0785,-0.101,-0.0561,-0.0224,-0.0449,0.0728,0.2069,0.2954,0.3281,0.3554,0.3921,0.4164,0.4244,0.4104,0.4494,0.4915,0.5389,0.6095,0.6745,0.7236,0.748,0.7529,0.7516,0.7429,0.7711,0.8379,0.82,0.8548,0.9442,0.9178,0.914,0.9309,0.0,0.0,0.0,0.0,0.0,0.0,0.0,0.0,0.0,0.0,0.0,0.0,0.0,0.0,0.0,0.0,0.0,0.0,0.0,0.0,0.0,0.0,0.0,1.799,1.7152,1.6203,1.616,1.4223,1.2794,1.2696,1.184,1.1251,1.1213,1.2617,1.3222,1.2644,1.4045,1.5017,1.5342,1.5796,1.6232,1.6701,1.6689,1.6451,1.5874,1.4852,1.4037,1.3426,1.163,1.0807,1.0742,1.0544,1.0731,1.1316,1.2208,1.3357,1.4662,1.5911,1.6532,1.6313,1.3563,1.0998,0.7983,0.1624,-0.2003,-0.3685,-0.2959,-0.3572,-0.4405,-0.3793,-0.3627,-0.3627,-0.3569,-0.2736,-0.1902,-0.2127,-0.1738,-0.1404,-0.1741,-0.1798,-0.1686,-0.1403,-0.0842,-0.0336,-0.0112,0.0449,0.0953,0.123,0.179,0.2462,0.3405,0.3569,0.0,0.4111,0.4561,0.4805,0.4683,0.5889,0.674,0.6888,0.7353,0.7506,0.7081,0.6915,0.7175,0.801,0.769,0.842,1.0356,0.8798,0.8249,0.8804,0.0,0.0,0.0,0.0,0.0,0.0,0.0,0.0,0.0,0.0,0.0,0.0,0.0,0.0,0.0,0.0,0.0,0.0,0.0,0.0,0.0,0.0,1.2462,1.4405,1.4505,1.4113,1.3539,1.2646,1.2083,1.1978,1.1093,1.0638,1.0914,1.1909,1.2512,1.2455,1.3496,1.4097,1.4122,1.447,1.4687,1.471,1.4563,1.4281,1.3804,1.2916,1.1816,1.0513,0.979,0.8553,0.7038,0.696,0.6451,0.5867,0.7064,0.799,0.8971,1.3162,1.4891,1.463,1.0488,0.5976,0.1403,-0.1876,-0.3347,-0.3796,-0.3959,-0.4239,-0.446,-0.4294,-0.4298,-0.4242,-0.335,-0.2905,-0.2573,-0.1962,-0.1657,-0.1619,-0.1752,-0.1773,-0.1677,-0.1524,-0.129,-0.101,-0.0842,-0.0168,0.0505,0.0953,0.1231,0.1621,0.2179,0.2681,0.0,0.3087,0.3629,0.4104,0.4435,0.5226,0.5851,0.6338,0.6551,0.66,0.6594,0.6538,0.6686,0.7014,0.7395,0.8325,0.9814,0.9363,0.9213,0.0,0.0,0.0,0.0,0.0,0.0,0.0,0.0,0.0,0.0,0.0,0.0,0.0,0.0,0.0,0.0,0.0,0.0,0.0,0.0,0.0,0.0,1.0092,0.9752,1.0799,1.198,1.2503,1.194,1.152,1.128,1.1212,1.0929,1.0736,1.0741,1.1627,1.2072,1.1801,1.2706,1.3082,1.2783,1.2916,1.2887,1.258,1.2512,1.2128,1.1443,1.0822,0.956,0.7743,0.6889,0.5553,0.3926,0.3613,0.3155,0.2733,0.3907,0.4959,0.0,0.0,0.0,0.0,0.0,0.2909,-0.1839,-0.3239,-0.3965,-0.4291,-0.457,-0.468,-0.468,-0.468,-0.4739,-0.4629,-0.4015,-0.3463,-0.3019,-0.2687,-0.2217,-0.1838,-0.1973,-0.1935,-0.1838,-0.1635,-0.1515,-0.1347,-0.101,-0.0561,0.0,0.0561,0.0952,0.1343,0.1734,0.2125,0.2402,0.2681,0.3014,0.3345,0.3671,0.4446,0.5054,0.5433,0.5932,0.0,0.0,0.0,0.6154,0.6322,0.7289,0.0,0.0,0.0,0.9263,0.9263,0.0,0.0,0.0,1.0637,1.1199,0.0,0.0,0.0,0.0,0.0,0.0,0.0,0.0,0.0,0.0,0.0,0.0,0.0,0.0,0.0,0.0,0.7309,0.7122,0.75,0.9411,1.0784,1.0801,1.0391,1.0126,1.02,1.0817,1.1056,1.0601,1.1461,1.1687,1.0894,0.0,0.0,0.0,0.0,1.0872,1.0431,1.0481,1.0043,0.9061,0.8684,0.7359,0.5241,0.3828,0.2565,0.1456,0.089,0.0776,0.1159,0.202,0.3486,0.5453,0.7963,0.9054,0.8786,0.532,0.1196,-0.2792,-0.3411,0.0,0.0,-0.4846,-0.4787,-0.4787,-0.4732,-0.4732,-0.4842,-0.4904,-0.4073,-0.3299,-0.3799,-0.3035,-0.2146,-0.2244,-0.2259,-0.2158,-0.1744,-0.1633,-0.141,-0.0842,-0.0729,-0.0505,0.028,0.0842,0.1289,0.1623,0.1679,0.1902,0.2402,0.2569,0.2625,0.2625,0.0,0.0,0.4223,0.5214,0.5601,0.5058,0.523,0.5563,0.5941,0.7069,0.7711,0.7765,0.8315,0.8593,0.8593,0.8593,0.8646,0.8752,0.9814,1.032,0.0,0.0,0.0,0.0,0.0,0.0,0.0,0.0,0.0,0.0,0.0,0.0,0.0,0.0,0.0,0.5467,0.56,0.5739,0.5969,0.6095,0.663,0.8108,0.7719,0.7554,0.817,0.9029,0.9672,0.9947,1.0431,1.0732,1.0662,0.9978,0.9548,0.9445,0.8996,0.8781,0.875,0.8384,0.8026,0.7688,0.0,0.0,0.4092,0.3816,0.2591,0.0752,0.0338,-0.0,-0.0115,0.0334,0.187,0.4235,0.6849,0.6691,0.4581,0.2118,-0.0548,-0.3063,-0.4346,-0.4904,-0.4959,-0.4353,-0.4187,-0.4076,-0.3574,-0.3849,0.0,-0.3959,-0.3852,-0.3744,-0.3514,-0.3136,-0.2747,-0.261,-0.2795,-0.2768,-0.2222,-0.1887,-0.1504,-0.0958,-0.0393,0.0056,0.0336,0.0393,0.0561,0.1009,0.1065,0.1121,0.1232,0.1679,0.1958,0.1958,0.2623,0.3012,0.3012,0.3234,0.3345,0.3234,0.368,0.445,0.5546,0.5987,0.6475,0.7069,0.7295,0.7408,0.7408,0.7408,0.767,0.809,0.9242,0.9762,0.0,0.0,0.0,0.0,0.0,0.0,0.0,0.0,0.0,0.0,0.0,0.2939,0.0,0.0,0.2818,0.3113,0.3227,0.3473,0.3916,0.398,0.4629,0.6316,0.6216,0.6349,0.7218,0.8416,0.933,0.9985,1.0313,1.0486,1.0354,0.9562,0.8825,0.8136,0.7589,0.7263,0.7166,0.6894,0.6611,0.637,0.6501,0.5526,0.3677,0.3727,0.2847,0.1255,0.0785,0.0448,0.0339,0.0892,0.1943,0.3395,0.4965,0.4678,0.3087,0.1096,-0.0937,-0.301,-0.4346,-0.4904,-0.5069,-0.4743,-0.4632,-0.4577,-0.4298,-0.446,-0.4736,-0.4622,-0.4294,-0.4036,-0.4094,-0.3635,-0.3118,-0.313,-0.3231,-0.3036,-0.2153,-0.1802,-0.1455,-0.0508,-0.0112,0.0224,0.0561,0.0617,0.0617,0.0842,0.0898,0.0898,0.0898,0.1177,0.1344,0.1344,0.1621,0.1899,0.2235,0.2514,0.2681,0.2681,0.335,0.4012,0.4721,0.5277,0.5878,0.6529,0.6696,0.6858,0.7085,0.7085,0.7247,0.7626,0.8166,0.8584,0.0,0.0,0.0,0.0,0.0,0.0,0.0,0.0,0.1159,0.0623,0.0545,0.0383,-0.0,0.0392,0.0875,0.1125,0.1338,0.1691,0.2301,0.2764,0.3551,0.4857,0.5277,0.5762,0.666,0.8043,0.921,0.9926,1.0165,1.013,0.9896,0.8985,0.7941,0.6835,0.6176,0.5787,0.5627,0.5627,0.5589,0.5448,0.5944,0.5366,0.389,0.3923,0.341,0.2499,0.2038,0.1744,0.1676,0.2399,0.279,0.2907,0.3205,0.2921,0.2178,0.0607,-0.1222,-0.3151,-0.4249,-0.4871,-0.5171,-0.514,-0.5132,-0.5136,-0.506,-0.5045,-0.5199,-0.5433,-0.4919,-0.4369,-0.4803,-0.4277,-0.3605,-0.3557,-0.348,-0.3102,-0.2032,-0.166,-0.1175,-0.0057,0.0169,0.0336,0.0898,0.101,0.101,0.1066,0.0898,0.0842,0.1066,0.0898,0.0785,0.0785,0.084,0.1119,0.1567,0.2068,0.2402,0.2514,0.3072,0.3514,0.3729,0.445,0.5124,0.5656,0.5817,0.611,0.6548,0.6548,0.6748,0.7027,0.6797,0.71,0.1921,0.2503,0.2927,0.2656,0.188,0.0841,0.0,0.0,-0.1579,-0.273,-0.1977,-0.1332,-0.2128,-0.0682,0.0561,0.0358,0.1344,0.2094,0.2233,0.2526,0.2992,0.3625,0.4409,0.5215,0.6054,0.7298,0.8449,0.9157,0.9032,0.8971,0.9174,0.6699,0.5182,0.4987,0.3853,0.3557,0.429,0.429,0.4719,0.5609,0.5888,0.5683,0.4998,0.5089,0.4797,0.4315,0.4426,0.4118,0.3553,0.4311,0.3954,0.2858,0.2479,0.151,0.0231,-0.0782,-0.2313,-0.4059,-0.4901,-0.5342,-0.5441,-0.4786,-0.4574,-0.4487,-0.4104,-0.4282,-0.4685,-0.514,-0.5232,-0.5212,-0.5083,-0.4917,-0.4546,-0.4016,-0.3455,-0.2877,-0.2228,-0.1468,-0.0729,-0.0,0.0458,0.0954,0.1347,0.1459,0.1515,0.1685,0.101,0.0729,0.1572,0.0954,0.0449,0.0449,0.0729,0.0953,0.1009,0.1065,0.1344,0.1846,0.1958,0.2291,0.2847,0.307,0.3393,0.3782,0.3958,0.4191,0.461,0.461,0.5097,0.6015,0.5051,0.57,0.1954,0.2132,0.0,0.0,0.089,-0.0124,-0.102,-0.1785,-0.2357,-0.2801,-0.247,-0.208,-0.212,-0.124,-0.0445,0.0,0.05,0.1135,0.1512,0.2367,0.3053,0.3161,0.435,0.5235,0.5459,0.6185,0.6843,0.7419,0.7213,0.6942,0.6699,0.5232,0.4206,0.3649,0.3219,0.3214,0.3718,0.4035,0.4484,0.5,0.5456,0.5501,0.5161,0.5153,0.5114,0.5097,0.5336,0.4991,0.4207,0.4455,0.3725,0.2368,0.1787,0.0297,-0.1571,-0.2632,-0.3493,-0.4433,-0.5789,-0.5925,-0.5485,-0.4837,-0.4584,-0.4418,-0.3857,-0.3832,-0.4098,-0.4503,-0.4789,-0.49,-0.481,-0.4829,-0.475,-0.4268,-0.3959,-0.3517,-0.261,-0.1807,-0.0976,0.0059,0.0641,0.1154,0.202,0.27,0.3073,0.3009,0.2098,0.1512,0.1793,0.0953,0.0336,0.0168,0.0628,0.0982,0.0982,0.0693,0.064,0.0829,0.0931,0.1275,0.1887,0.2245,0.2793,0.3612,0.3615,0.3879,0.4293,0.4293,0.4581,0.5158,0.4662,0.5014,0.1724,0.0,0.0,0.0894,0.013,-0.0698,-0.138,-0.2006,-0.2503,-0.2426,-0.2422,-0.2327,-0.183,-0.1278,-0.0681,-0.0143,0.0429,0.0856,0.1244,0.2304,0.2986,0.2713,0.3954,0.4704,0.4571,0.505,0.5468,0.5531,0.523,0.4844,0.4423,0.36,0.2975,0.2472,0.2405,0.261,0.3091,0.3489,0.3878,0.4251,0.4625,0.474,0.4543,0.4607,0.4814,0.5161,0.5262,0.4869,0.4205,0.4085,0.3199,0.1791,0.0984,-0.0735,-0.2936,-0.447,-0.4966,-0.5009,-0.6426,-0.6419,-0.562,-0.4937,-0.4663,-0.4472,-0.3889,-0.3765,-0.3887,-0.4288,-0.4604,-0.481,-0.4708,-0.4807,-0.4829,-0.4411,-0.403,-0.3606,-0.2745,-0.1654,-0.0558,0.0425,0.1261,0.197,0.2387,0.3472,0.4163,0.3842,0.3111,0.2488,0.2296,0.1128,0.0399,0.069,0.0824,0.0896,0.1015,0.0537,0.0241,0.0185,0.0181,0.03,0.0736,0.1168,0.1851,0.2735,0.2735,0.2997,0.3398,0.3648,0.388,0.4159,0.4162,0.4404,0.0,0.0,0.0544,-0.0339,-0.0697,-0.1004,-0.1972,-0.2215,-0.2271,-0.2483,-0.2257,-0.2025,-0.1754,-0.0656,0.0365,0.0801,0.157,0.2054,0.1813,0.2294,0.2526,0.2004,0.2704,0.3183,0.0,0.4221,0.4526,0.3639,0.3314,0.3078,0.2863,0.1422,0.0858,0.1409,0.0726,0.0951,0.2232,0.2233,0.2617,0.3334,0.3391,0.3231,0.3076,0.3278,0.3808,0.4607,0.3978,0.3623,0.3533,0.3407,0.2521,0.1228,0.0063,-0.1659,-0.3763,-0.6279,-0.6742,-0.6237,-0.6722,-0.6598,-0.6009,-0.5008,-0.467,-0.4581,-0.4065,-0.402,-0.4296,-0.4687,-0.51,-0.5293,-0.492,-0.4951,-0.4951,-0.4431,-0.3424,-0.2551,-0.2482,-0.0656,0.1032,0.1096,0.2772,0.3771,0.234,0.3206,0.4027,0.3831,0.3579,0.3482,0.3543,0.1494,0.0653,0.2329,0.1293,0.0617,0.0987,0.0493,0.0185,0.0185,-0.0308,-0.0553,-0.0554,-0.0432,-0.0125,0.0321,0.0514,0.0782,0.1207,0.1941,0.2476,0.2943,0.3151,0.382,0.0,0.0,-0.0894,-0.0801,-0.1301,-0.1844,-0.168,-0.1334,-0.1059,-0.1195,-0.1375,-0.1464,-0.1497,-0.0781,-0.0141,0.0277,0.0636,0.0927,0.111,0.1472,0.1661,0.1428,0.248,0.0,0.0,0.0,0.0,0.2105,0.1515,0.0983,0.052,-0.0068,-0.0068,0.053,0.034,0.0624,0.147,0.1958,0.2339,0.2545,0.3043,0.3297,0.3182,0.298,0.2982,0.324,0.2722,0.2214,0.1645,0.1413,0.0785,-0.0127,-0.15,-0.2669,-0.3844,-0.6421,-0.6943,-0.6513,-0.7585,-0.7201,-0.5998,-0.4755,-0.4299,-0.3999,-0.2944,-0.2851,-0.3205,-0.3558,-0.4265,-0.4835,-0.4553,-0.4761,-0.4957,-0.4434,-0.3627,-0.282,-0.2147,-0.0789,0.0904,0.2851,0.3793,0.4146,0.3624,0.3939,0.414,0.3823,0.3615,0.3431,0.3532,0.2984,0.2145,0.0984,0.0628,0.0636,0.1018,0.0636,0.0192,-0.0261,-0.0769,-0.1088,-0.1044,-0.0784,-0.0394,0.0265,0.053,0.0799,0.1076,0.1344,0.1544,0.1746,0.2055,0.2417,-0.0313,-0.1096,-0.2182,-0.1482,-0.1718,-0.1961,-0.1558,-0.0933,-0.0492,-0.0548,-0.0888,-0.1122,-0.1081,-0.0665,-0.0198,0.0265,0.047,0.0681,0.0829,0.0841,0.0842,0.0823,0.1608,0.2045,0.0,0.0,0.0,0.1006,0.0342,-0.0343,-0.0875,-0.0975,-0.0772,-0.0137,0.014,0.0571,0.1153,0.1585,0.1815,0.1845,0.2154,0.2419,0.2577,0.1827,0.1617,0.1856,0.1347,0.0773,0.007,-0.0068,-0.0535,-0.1243,-0.2723,-0.3504,-0.4102,-0.6526,-0.6985,-0.6613,-0.8037,-0.7495,-0.6037,-0.4632,-0.4119,-0.3748,-0.2442,-0.2413,-0.2842,-0.3065,-0.3774,-0.4431,-0.4367,-0.4564,-0.4761,-0.4367,-0.3966,-0.3295,-0.2348,-0.1193,0.0393,0.3027,0.3484,0.3673,0.4197,0.4284,0.4142,0.3867,0.3638,0.3518,0.3578,0.3719,0.302,0.0952,0.0971,0.1115,0.1115,0.0459,-0.0066,-0.047,-0.1189,-0.1649,-0.1613,-0.1344,-0.0941,-0.047,-0.0134,0.0134,0.0269,0.0538,0.0676,0.0614,0.1321,0.1619,-0.1594,-0.2234,-0.3185,-0.2332,-0.1797,-0.1476,-0.1648,-0.1171,-0.0558,-0.0457,-0.085,-0.1052,0.0,0.0,0.018,0.0829,0.1109,0.119,0.0931,0.042,0.007,0.0,0.0,0.0,0.0,0.0,0.0,0.0614,0.0,-0.0716,-0.109,-0.1284,-0.1088,-0.0495,0.0072,0.0666,0.1214,0.1214,0.1213,0.1136,0.0665,0.072,0.1265,-0.0,-0.0141,0.0422,-0.0217,-0.0718,-0.112,-0.112,-0.1514,-0.2144,-0.3544,-0.4215,-0.4616,-0.6793,-0.7068,-0.6679,-0.8037,-0.7582,-0.6125,-0.4675,-0.4188,-0.3931,-0.2523,-0.2589,-0.3122,-0.3203,-0.3696,-0.43,-0.43,-0.4303,-0.4303,-0.4303,-0.4308,-0.3976,-0.2889,-0.1817,-0.0472,0.1552,0.2085,0.2686,0.4043,0.4205,0.4057,0.3939,0.3778,0.3742,0.3781,0.3734,0.3322,0.2341,0.2221,0.1956,0.1214,0.0202,-0.0471,-0.047,-0.1547,-0.2155,-0.2225,-0.2023,-0.189,-0.1892,-0.1554,-0.135,-0.1283,-0.0472,-0.0205,-0.0351,0.0984,0.1497,-0.184,-0.246,-0.3311,-0.2579,-0.2422,-0.2333,-0.1786,-0.1274,-0.089,-0.1006,-0.1315,-0.1576,0.0,0.0,0.0,0.032,0.047,0.0,0.087,0.053,0.0,0.0379,0.0,0.1579,0.1805,0.1892,0.0,0.0,0.131,0.0462,0.0465,-0.0314,-0.0473,0.0157,0.0233,0.0619,0.1245,0.1245,0.1002,0.053,0.0376,0.0151,-0.0153,-0.0974,-0.12,-0.1066,-0.1656,-0.2066,-0.2449,-0.3237,-0.3496,-0.3623,-0.5264,-0.5649,-0.5481,-0.7507,-0.7777,-0.7326,-0.8231,-0.7582,-0.6164,-0.483,-0.4376,-0.4102,-0.2607,-0.2677,-0.3217,-0.3042,-0.3632,-0.4303,-0.4308,-0.4311,-0.4311,-0.4311,-0.4319,-0.3914,-0.2557,-0.1616,-0.0944,-0.0404,0.1885,0.3842,0.4239,0.4273,0.4189,0.4157,0.4015,0.3856,0.3677,0.387,0.3911,0.3749,0.301,0.2405,0.2154,0.089,-0.0069,-0.0471,-0.1143,-0.1697,-0.215,-0.2151,-0.2103,-0.2073,-0.1788,-0.1572,-0.143,-0.1215,-0.086,-0.0433,-0.0,0.0447,-0.2948,-0.3449,-0.4144,-0.2854,-0.2644,-0.2664,-0.2141,-0.2001,-0.1857,-0.1611,-0.1866,0.0,0.0,0.0,0.0,0.0,0.0,0.0,0.0578,0.0305,0.0158,0.0,0.0893,0.0,0.175,0.207,0.2492,0.0,0.1973,0.1459,0.1969,0.0986,0.0656,0.0974,0.0567,0.0324,0.0405,0.0401,0.0238,-0.0156,-0.0382,-0.0686,-0.1004,-0.1659,-0.1877,-0.1897,0.0,-0.2684,-0.2935,-0.4141,-0.4317,-0.4097,-0.5795,-0.6296,-0.6129,-0.7512,-0.8037,-0.7987,-0.8472,-0.792,-0.668,-0.4927,-0.4399,-0.4122,-0.2662,-0.2592,-0.3057,-0.2943,-0.34,-0.3899,-0.3429,-0.3362,-0.3305,-0.3347,-0.3811,-0.4056,-0.3238,-0.1752,-0.0607,-0.0606,0.206,0.4114,0.3428,0.3895,0.4277,0.4262,0.4012,0.3742,0.3551,0.3976,0.4169,0.4029,0.3293,0.2529,0.1952,0.0896,0.0069,-0.0471,-0.1032,-0.1467,-0.1823,-0.1844,-0.1724,-0.1385,-0.1166,-0.1021,-0.0948,-0.0875,-0.066,-0.0371,-0.0,0.0305,-0.457,-0.4777,-0.5315,-0.3485,-0.2942,-0.288,-0.2686,-0.2898,-0.2909,-0.2192,0.0,-0.2359,-0.1295,-0.0714,-0.0223,0.0245,0.0,0.0442,0.0504,0.0225,0.0157,0.0667,0.076,0.1032,0.143,0.2167,0.2668,0.2948,0.2335,0.2367,0.3206,0.2444,0.1834,0.1629,0.0665,-0.0168,-0.0756,-0.0824,-0.0815,-0.0978,-0.1484,-0.1758,-0.1834,-0.2311,-0.2505,-0.2503,-0.2803,-0.2981,-0.3113,-0.4388,-0.4665,-0.4279,-0.5902,-0.6543,-0.6651,-0.7339,-0.7947,-0.8477,-0.8781,-0.8393,-0.7404,-0.5411,-0.4722,-0.4372,-0.2959,-0.2745,-0.2922,-0.2834,-0.3105,-0.3163,-0.2091,-0.1817,-0.1825,-0.1807,-0.2825,-0.3736,-0.3736,-0.1762,-0.0,-0.0,0.2045,0.3397,0.2259,0.3015,0.3801,0.396,0.3593,0.33,0.3385,0.3939,0.4214,0.3655,0.3237,0.2515,0.1431,0.0626,-0.0,-0.0476,-0.1137,-0.1446,-0.1347,-0.1376,-0.1101,-0.0442,-0.0296,-0.0222,-0.0221,-0.0074,-0.0,-0.0152,0.038,0.0539,-0.567,-0.566,-0.5844,-0.532,-0.4471,-0.3708,-0.345,-0.3076,0.0,0.0,0.0,-0.1743,-0.1337,-0.0456,0.0,0.038,0.0,0.0,0.0,0.0,0.2188,0.0,0.0,0.0,0.0,0.0,0.0,0.0,0.0,0.2747,0.2922,0.2786,0.1964,0.0585,-0.0168,-0.0672,-0.084,-0.117,-0.1667,-0.2168,-0.26,-0.2967,-0.3449,-0.3524,-0.3563,-0.3561,-0.3623,0.0,-0.4038,-0.4868,-0.5516,-0.6008,-0.6388,-0.6875,-0.7377,-0.8042,-0.8204,-0.8156,-0.8633,-0.8432,-0.7835,-0.6977,-0.6295,-0.5545,-0.4493,-0.4037,-0.3639,-0.2639,-0.2344,-0.2029,-0.0691,-0.0342,-0.0339,-0.0349,-0.056,-0.0767,-0.0767,-0.0349,-0.0,-0.0,0.0427,0.1065,0.1947,0.1379,0.1174,0.2322,0.2328,0.2269,0.2621,0.3344,0.3828,0.3685,0.3241,0.2803,0.2588,0.0721,-0.0506,-0.0575,-0.1596,-0.1911,-0.1494,-0.1501,-0.1215,-0.0543,-0.0396,-0.0317,-0.031,-0.0237,-0.0,0.0468,0.039,0.0626,-0.8359,-0.836,-0.8117,-0.6726,-0.5849,-0.5132,-0.4212,0.0,0.0,0.0,0.0,-0.1588,-0.0669,0.0,0.0,0.0,0.0,0.0,0.0,0.0,0.0,0.0,0.0,0.0,0.0,0.0,0.0,0.0,0.0,0.2145,0.304,0.2191,0.0954,-0.0783,-0.1118,-0.1633,-0.226,-0.2405,-0.2817,-0.3413,-0.3505,-0.3716,-0.3963,-0.3875,-0.3834,-0.383,-0.3969,-0.3975,-0.4084,-0.5487,-0.5993,-0.6083,-0.6869,-0.7509,-0.7972,-0.8135,-0.8351,-0.8564,-0.9001,-0.8725,-0.8129,-0.8026,-0.7049,-0.5835,-0.489,-0.4493,-0.4077,-0.2874,-0.2347,-0.1852,-0.0343,-0.0,-0.0,-0.0,-0.0,-0.0,-0.0,-0.0,-0.0,-0.0,-0.0,-0.0372,-0.141,-0.1427,-0.0913,0.0154,0.0308,0.031,0.0469,0.1534,0.2558,0.3341,0.3081,0.2622,0.1893,0.0664,-0.037,-0.1021,-0.1644,-0.1667,-0.0984,-0.0997,-0.0547,0.04,0.0485,0.057,0.0571,0.0494,0.0659,0.0978,0.0897,0.0978,-1.0985,-1.0977,-1.0644,-0.8288,-0.7292,-0.6535,-0.523,-0.4341,0.0,0.0,-0.2007,-0.1562,-0.0168,0.0,0.0,0.0,0.0,0.0,0.0,0.0,0.0,0.0,0.0,0.0,0.0,0.0,0.0,0.0,0.0,0.0,0.2587,0.0879,-0.0616,-0.1793,-0.2205,-0.282,-0.3587,-0.3791,-0.4019,-0.4365,-0.4355,-0.4393,-0.4389,-0.4274,-0.414,-0.4212,-0.4349,-0.4192,-0.4112,-0.5839,-0.6293,-0.6033,-0.7229,-0.7955,-0.8317,-0.8206,-0.8264,-0.8566,-0.9135,-0.8631,-0.7886,-0.8344,-0.745,-0.6183,-0.5371,-0.5038,-0.4756,-0.3701,-0.2997,-0.2177,-0.0623,-0.014,-0.0,-0.0,-0.0,-0.0,-0.0,-0.0,-0.0,-0.0,-0.0607,-0.1937,-0.4571,-0.3795,-0.2519,-0.1736,-0.1423,-0.1346,-0.1346,-0.0159,0.1103,0.2306,0.2466,0.1986,0.0814,0.0225,-0.0527,-0.1483,-0.169,-0.148,-0.0769,-0.0627,-0.008,0.1065,0.1235,0.133,0.1263,0.1354,0.127,0.1094,0.101,0.101,-1.23,-1.2354,-1.2026,-1.0877,-0.9167,-0.7654,-0.6709,0.0,0.0,-0.2247,-0.2007,-0.1673,-0.056,-0.0056,0.0,0.0,0.0,0.0,0.0,0.0,0.0,0.0,0.0,0.0,0.0,0.0,0.0,0.0,0.0,0.0,0.0803,-0.1426,-0.2502,-0.1794,-0.3664,-0.4378,-0.3587,-0.4467,-0.4907,-0.4905,-0.5241,-0.536,-0.5352,-0.521,-0.5106,-0.51,-0.4977,0.0,0.0,-0.569,-0.6294,-0.6801,-0.7096,-0.7733,-0.8374,-0.8489,-0.7784,-0.6935,-0.8222,-0.7684,-0.6531,-0.7322,-0.7472,-0.7347,-0.7025,-0.6522,-0.5885,-0.5284,-0.4393,-0.3268,-0.1486,-0.0516,-0.0,-0.0,-0.0,-0.0,-0.0,-0.0,-0.0,-0.0,-0.2424,-0.4644,-0.4941,-0.426,-0.3405,-0.2665,-0.1862,-0.1376,-0.1376,-0.066,-0.0,0.0162,0.0696,0.0835,0.0155,-0.0842,-0.1451,-0.1556,-0.2112,-0.2136,-0.1613,-0.097,-0.0327,0.0419,0.1026,0.1371,0.1263,0.1376,0.103,0.042,0.0168,0.0168,-1.3635,-1.3899,-1.3572,-1.1993,-1.044,-0.8954,-0.7531,0.0,0.0,-0.3239,-0.2783,-0.2228,-0.1119,-0.0783,-0.0562,0.0,0.0,0.0,0.0,0.0,0.0,0.0,0.0,0.0,0.0,0.0,0.0,0.0,0.0,0.0,-0.2412,-0.3309,-0.3671,-0.3315,-0.4119,-0.4565,-0.4476,-0.4832,-0.501,-0.501,-0.5416,-0.5481,-0.5205,-0.5323,-0.5295,-0.5287,-0.5099,-0.5018,0.0,-0.6096,-0.6633,-0.7,-0.7654,-0.8151,-0.8367,-0.7932,-0.7253,-0.6531,-0.6699,-0.6569,-0.624,-0.663,-0.7096,-0.7452,-0.7277,-0.6697,-0.5986,-0.5409,-0.507,-0.4609,-0.3556,-0.1615,-0.0,-0.0,-0.0,-0.0,-0.0,-0.1559,-0.3021,-0.3021,-0.2863,-0.3172,-0.4337,-0.3712,-0.3216,-0.3806,-0.2874,-0.2392,-0.2924,-0.1881,-0.123,-0.1544,-0.0717,-0.0318,-0.1059,-0.1681,-0.2236,-0.2693,-0.2619,-0.2383,-0.1741,-0.1409,-0.0754,0.0257,0.0173,0.0261,0.0788,0.0353,-0.0,-0.0262,-0.0437,-0.0437,-1.3841,-1.4323,-1.413,-1.2234,-1.0899,-0.9606,0.0,0.0,-0.4574,-0.4119,-0.3674,-0.3065,-0.2176,-0.1732,-0.1341,-0.0951,0.0,0.0229,0.0,0.0,0.0,0.0,0.0,0.0,0.0,0.0,0.0,0.0,0.0,0.0,-0.4565,-0.4656,-0.4567,-0.43,-0.4743,-0.4921,-0.501,-0.5099,-0.5191,-0.5191,-0.5552,-0.5552,-0.5184,-0.5344,-0.5404,-0.5358,-0.5154,-0.5048,0.0,-0.617,-0.671,-0.7003,-0.7868,-0.8351,-0.8385,-0.786,-0.7207,-0.6696,-0.6395,-0.6318,-0.6318,-0.6549,-0.7019,-0.7472,-0.7403,-0.6881,-0.6153,-0.5767,-0.5512,-0.5152,-0.45,-0.253,-0.0748,-0.0761,-0.0764,-0.0768,-0.0703,-0.2589,-0.4396,-0.4919,-0.3439,-0.2659,-0.4351,-0.3822,-0.3577,-0.4816,-0.4151,-0.3756,-0.4347,-0.3193,-0.2542,-0.2953,-0.2047,-0.1648,-0.2012,-0.2319,-0.2646,-0.3189,-0.2859,-0.2531,-0.2037,-0.1783,-0.1286,-0.0351,-0.0614,-0.053,0.009,-0.0628,-0.0987,-0.0987,-0.1256,-0.1251,-1.2593,-1.3117,-1.3279,-1.1696,-1.0491,-0.928,0.0,0.0,-0.5132,-0.4629,-0.4463,-0.4294,-0.3683,-0.2732,-0.2007,-0.2007,-0.1062,0.0,0.0,0.0,0.0,0.0,0.0,0.0,0.0,0.0,0.0,0.0,0.0,0.0,-0.501,-0.546,-0.5285,-0.43,-0.563,-0.5897,-0.501,-0.5463,-0.5733,-0.5733,-0.5733,-0.5733,-0.573,-0.5518,-0.5483,-0.5363,0.0,-0.5121,0.0,-0.5631,-0.6325,-0.6942,-0.7548,-0.8165,-0.8703,-0.8699,-0.8084,-0.7242,-0.7868,-0.7399,-0.6619,-0.7246,-0.7484,-0.7516,-0.7699,-0.7387,-0.685,-0.6688,-0.5852,-0.4758,-0.3606,-0.2887,-0.2501,-0.2503,-0.2503,-0.2503,-0.2503,-0.2503,-0.3034,-0.4654,-0.4563,-0.4518,-0.5629,-0.5112,-0.4892,-0.5829,-0.5601,-0.5355,-0.5355,-0.4522,-0.3855,-0.3857,-0.3524,-0.3109,-0.2692,-0.2692,-0.2692,-0.2692,-0.2692,-0.2719,-0.2779,-0.2085,-0.1755,-0.1793,-0.1076,-0.0717,-0.0718,-0.1166,-0.1525,-0.1794,-0.2513,-0.2486,-1.1406,-1.1696,-1.1622,-1.071,-0.9626,-0.8499,-0.7431,-0.6218,-0.5242,-0.5077,-0.5018,-0.4739,-0.3793,-0.3347,-0.2847,-0.2015,-0.157,0.0,0.0,0.0,0.0,0.0,0.0,0.0,0.0,0.0,0.0,0.0,0.0,0.0,-0.6248,-0.634,-0.6077,-0.5285,-0.573,-0.5819,-0.5463,-0.5644,-0.5552,-0.5191,-0.5552,-0.5552,-0.5186,-0.508,-0.5145,0.0,0.0,-0.5277,-0.5709,-0.6483,-0.7096,-0.7553,-0.8016,-0.8327,-0.8475,-0.8165,-0.7629,-0.6938,-0.6703,-0.6157,-0.5693,-0.5777,-0.5777,-0.5805,-0.6019,-0.628,-0.6416,-0.6195,-0.6123,-0.6028,-0.5738,-0.5756,-0.5851,-0.5604,-0.4805,-0.4227,-0.4242,-0.4229,-0.4222,-0.4433,-0.4193,-0.4008,-0.4055,-0.4205,-0.4676,-0.5559,-0.5637,-0.5835,-0.643,-0.5054,-0.412,-0.412,-0.3437,-0.3029,-0.3337,-0.3208,-0.3202,-0.3338,-0.2992,-0.2826,-0.2845,-0.2667,-0.2318,-0.1794,-0.2064,-0.1974,-0.1436,-0.2064,-0.2334,-0.2244,-0.2513,-0.2415,0.0,-1.0519,-1.0463,-0.9621,-0.8794,0.0,0.0,-0.5892,-0.5297,-0.5297,-0.5297,-0.5018,-0.4125,-0.3738,-0.3294,-0.2296,-0.2128,0.0,0.0,0.0,0.0,0.0,0.0,0.0,0.0,0.0,0.0,0.0,0.0,0.0,-0.7217,-0.7217,-0.6956,-0.6523,-0.5997,-0.5733,-0.5733,-0.5994,-0.5813,-0.528,-0.608,-0.5988,-0.5008,-0.5207,-0.5373,0.0,-0.5269,-0.5549,0.0,-0.6727,-0.7157,-0.7633,-0.7868,-0.8097,-0.825,-0.8016,-0.771,-0.7249,-0.6388,-0.6002,-0.5693,-0.5157,-0.5034,-0.5151,-0.5181,-0.5713,-0.6227,-0.6116,-0.6373,-0.6817,-0.7017,-0.7183,-0.7134,-0.6711,-0.5952,-0.5269,-0.5086,-0.4726,-0.4384,-0.4311,-0.3728,-0.3376,-0.3645,-0.393,-0.4464,-0.536,-0.5602,-0.5796,-0.6322,-0.5072,-0.4124,-0.4157,-0.3301,-0.2983,-0.3314,-0.3279,-0.3273,-0.3317,-0.3053,-0.2875,-0.2875,-0.2875,-0.2694,-0.2243,-0.2694,-0.2694,-0.2243,-0.2694,-0.2784,-0.2513,-0.2513,-0.2424,0.0,0.0,0.0,0.0,0.0,0.0,0.0,-0.5414,0.0,-0.5297,-0.5297,-0.5128,-0.4515,-0.3959,-0.3403,-0.2792,0.0,0.0,0.0,0.0,0.0,0.0,0.0,0.0,0.0,0.0,0.0,0.0,0.0,0.0,-0.8006,-0.8006,-0.8006,-0.7918,-0.6697,-0.5908,-0.5822,-0.652,-0.652,-0.5822,-0.7136,-0.6776,-0.5097,-0.5716,-0.5824,0.0,-0.5537,-0.591,-0.6568,-0.6568,-0.6882,-0.7297,-0.7297,-0.7598,-0.8124,-0.8047,-0.8034,-0.7868,-0.6777,-0.6388,-0.6157,-0.5157,-0.4996,-0.5063,-0.4888,-0.5493,-0.6229,-0.629,-0.6634,-0.7167,-0.7733,-0.7419,-0.6847,-0.6374,-0.607,-0.5849,-0.5405,-0.43,-0.3602,-0.4151,-0.3137,-0.2692,-0.4131,-0.4225,-0.4404,-0.5185,-0.5376,-0.5462,-0.5462,-0.4513,-0.3984,-0.3988,-0.3304,-0.2808,-0.2869,-0.2875,-0.2875,-0.2875,-0.2875,-0.2875,-0.2875,-0.2875,-0.2875,-0.2875,-0.2879,-0.288,-0.288,-0.2884,-0.2794,-0.2519,-0.2519,-0.2427,-0.8738,0.0,-0.8566,-0.7616,-0.7345,0.0,0.0,0.0,0.0,0.0,0.0,0.0,0.0,0.0,0.0,0.0,0.0,0.0,0.0,0.0,0.0,0.0,0.0,0.0,0.0,0.0,0.0,0.0,0.0,-1.0712,-1.0265,-1.0265,-1.0,-0.9383,-0.9122,-0.8345,-0.7051,-0.7224,-0.7224,-0.7051,-0.7228,-0.6779,-0.5805,-0.545,-0.5388,-0.5537,-0.5448,-0.6213,-0.7464,-0.7542,-0.7927,-0.8218,-0.8141,-0.8053,-0.8007,-0.7521,-0.7118,-0.6777,-0.5848,-0.5151,-0.4533,-0.3761,-0.3383,-0.3245,-0.3527,-0.4632,-0.5882,-0.6339,-0.6783,-0.7375,-0.823,-0.8164,-0.7811,-0.7821,-0.7111,-0.6423,-0.626,-0.5009,-0.3764,-0.283,-0.2783,-0.3002,-0.3074,-0.3735,-0.4247,-0.4515,-0.5147,-0.5588,-0.5588,-0.4793,-0.4165,-0.4257,-0.3333,-0.2808,-0.2869,-0.2875,-0.2875,-0.2875,-0.2875,-0.2875,-0.2875,-0.2875,-0.2875,-0.2875,-0.2916,-0.2939,-0.2939,-0.2985,-0.2892,-0.2574,-0.2574,-0.237,-0.8346,-0.849,-0.8346,-0.7374,-0.7295,-0.7182,0.0,0.0,0.0,0.0,0.0,0.0,0.0,0.0,0.0,0.0,0.0,0.0,0.0,0.0,0.0,0.0,0.0,0.0,0.0,0.0,0.0,0.0,0.0,-1.1666,-1.1488,-1.1483,-1.1305,-1.0864,-1.0864,-1.0173,-0.8611,-0.8532,-0.8273,-0.7918,-0.8017,-0.7489,-0.6248,-0.5716,-0.5505,-0.5621,-0.5534,-0.6242,-0.7385,-0.7887,-0.8176,-0.8336,-0.8179,-0.7805,-0.7358,-0.6885,-0.6349,-0.5701,-0.4935,-0.4066,-0.329,-0.2981,-0.2668,-0.2516,-0.2786,-0.3512,-0.4381,-0.5238,-0.6103,-0.6894,-0.7383,-0.7548,-0.7533,-0.7464,-0.6983,-0.6049,-0.4504,-0.382,-0.3198,-0.2243,-0.2334,-0.2528,-0.2644,-0.312,-0.3533,-0.3612,-0.3556,-0.3664,-0.3846,-0.2922,-0.2385,-0.2593,-0.2129,-0.1861,-0.1882,-0.2243,-0.2513,-0.2873,-0.2875,-0.2875,-0.2875,-0.2875,-0.2875,-0.2875,-0.2905,-0.2932,-0.2958,-0.2965,-0.2873,-0.2592,-0.2568,-0.2372,-0.7846,-0.8224,-0.8469,-0.7399,-0.7528,-0.7605,0.0,0.0,0.0,0.0,0.0,0.0,0.0,0.0,0.0,0.0,0.0,0.0,0.0,0.0,0.0,0.0,0.0,0.0,0.0,0.0,0.0,0.0,0.0,-1.2106,-1.2272,-1.2357,-1.2357,-1.2357,-1.2357,-1.174,-1.0509,-1.0091,-0.9575,-0.8786,-0.9157,-0.836,-0.6486,-0.6328,-0.6136,-0.5841,0.0,0.0,-0.7172,-0.7975,-0.8239,-0.8085,-0.7939,-0.7442,-0.6733,-0.6241,-0.565,-0.4981,-0.3938,-0.3132,-0.2511,-0.2589,-0.2589,-0.2511,-0.2589,-0.2589,-0.2756,-0.3772,-0.4994,-0.6004,-0.6278,-0.6556,-0.672,-0.6558,-0.6043,-0.4787,-0.2062,-0.1968,-0.2351,-0.2051,-0.1878,-0.2044,-0.2545,-0.2672,-0.2726,-0.2614,-0.1861,-0.1343,-0.1614,-0.0714,-0.0268,-0.0628,-0.0715,-0.0715,-0.0717,-0.1256,-0.1885,-0.2513,-0.2784,-0.2875,-0.2875,-0.2883,-0.2883,-0.2875,-0.2891,-0.292,-0.2958,-0.292,-0.2831,-0.2685,-0.2463,-0.2374,-0.735,-0.7715,-0.8107,-0.7548,-0.7611,-0.7557,0.0,0.0,0.0,0.0,0.0,0.0,0.0,0.0,0.0,0.0,0.0,0.0,0.0,0.0,0.0,0.0,0.0,0.0,0.0,0.0,0.0,0.0,0.0,-1.3743,-1.3743,-1.3743,-1.3743,-1.3743,-1.3743,-1.3652,-1.347,-1.2095,-1.089,-1.0028,-0.9859,-0.881,-0.7118,-0.6991,-0.6737,-0.6512,0.0,-0.7316,-0.813,-0.8459,-0.8507,-0.8479,-0.8455,-0.8179,-0.7593,-0.6141,-0.535,-0.4794,-0.3215,-0.2588,-0.2589,-0.2904,-0.2747,-0.2589,-0.2904,-0.2984,-0.3064,-0.3233,-0.4093,-0.5257,-0.6585,-0.6662,-0.6428,-0.6743,-0.4608,-0.2357,-0.2073,-0.1733,-0.146,-0.1427,-0.2008,-0.2609,-0.2747,-0.2763,-0.2615,-0.2047,-0.1791,-0.1524,-0.0897,-0.0618,-0.0527,-0.0716,-0.0618,-0.0616,-0.0717,-0.0807,-0.0897,-0.0987,-0.2243,-0.2875,-0.2875,-0.292,-0.2924,-0.2875,-0.2971,-0.3001,-0.2958,-0.3001,-0.3,-0.2959,-0.225,-0.2155,-0.6339,-0.6924,-0.7552,-0.695,-0.7424,-0.7943,0.0,0.0,0.0,0.0,0.0,0.0,0.0,0.0,0.0,0.0,0.0,0.0,0.0,0.0,0.0,0.0,0.0,0.0,0.0,0.0,0.0,0.0,0.0,0.0,-1.4088,-1.4088,-1.4088,-1.4088,-1.3568,-1.3313,-1.3313,-1.1962,-1.1192,-1.0809,-0.9689,-0.8773,-0.791,-0.7372,-0.6974,-0.685,0.0,-0.7278,-0.7733,-0.8249,-0.8418,-0.8398,-0.8207,-0.7832,-0.7005,-0.5281,-0.4508,-0.4144,-0.2899,-0.2511,-0.2511,-0.2746,-0.2668,-0.2511,-0.2746,-0.2904,-0.3062,-0.3062,-0.3761,-0.4696,-0.5329,-0.5541,-0.5076,-0.3407,-0.2372,-0.1377,0.0264,-0.0442,-0.1229,-0.0945,-0.1883,-0.274,-0.2734,-0.2762,-0.2706,-0.2379,-0.1513,-0.0806,-0.0718,0.0267,0.0798,0.0448,0.0444,0.0444,0.0448,0.009,-0.0269,-0.0718,-0.1345,-0.1705,-0.1705,-0.172,-0.1902,-0.2334,-0.2377,-0.2585,-0.2958,-0.2585,-0.2601,-0.3007,-0.1782,-0.1604,-0.5149,-0.5893,-0.664,-0.6059,0.0,-0.8228,0.0,0.0,0.0,0.0,0.0,0.0,0.0,0.0,0.0,0.0,0.0,0.0,0.0,0.0,0.0,0.0,0.0,0.0,0.0,0.0,0.0,0.0,0.0,0.0,-1.4088,-1.4021,-1.3898,-1.3723,-1.2952,-1.2493,-1.2259,-1.1193,-1.0826,-1.0977,-0.9506,-0.8719,-0.8503,-0.7705,-0.733,-0.7299,-0.7376,-0.7365,-0.7375,-0.8068,-0.8264,-0.8199,-0.8008,-0.7381,-0.6447,-0.4773,-0.397,-0.3677,-0.2821,-0.2511,-0.2511,-0.2589,-0.2589,-0.2511,-0.2744,-0.2982,-0.3141,-0.3452,-0.3919,-0.4309,-0.4394,-0.4391,-0.359,-0.0417,-0.0085,-0.0,0.214,0.0537,-0.1071,-0.0702,-0.1838,-0.2789,-0.2743,-0.2774,-0.2804,-0.2628,-0.133,-0.0448,-0.0448,0.0897,0.1705,0.1436,0.1442,0.1449,0.1456,0.091,0.0455,-0.0182,-0.0541,-0.0718,-0.0718,-0.0721,-0.0994,-0.1536,-0.1543,-0.1926,-0.2699,-0.2109,-0.2219,-0.3048,-0.1602,-0.1334,-0.395,-0.4546,-0.5189,-0.5189,0.0,0.0,-0.7923,0.0,0.0,0.0,0.0,0.0,0.0,0.0,0.0,0.0,0.0,0.0,0.0,0.0,0.0,0.0,0.0,0.0,0.0,0.0,0.0,0.0,0.0,0.0,-1.4088,-1.3828,-1.3251,-1.2572,-1.2419,-1.1881,-1.0978,-1.0196,-0.9904,-1.0028,-0.9545,-0.8967,-0.8308,-0.8223,-0.8131,-0.7986,-0.8328,-0.8283,-0.7982,-0.8223,-0.8187,-0.8032,-0.8176,-0.7663,-0.6621,-0.5602,-0.4613,-0.3677,-0.2821,-0.2511,-0.2589,-0.2904,-0.2826,-0.2668,-0.345,-0.3452,-0.3374,-0.4538,-0.4382,-0.3999,-0.4714,-0.3834,-0.2207,-0.0418,0.1626,0.2893,0.1787,0.0359,-0.0717,-0.0716,-0.188,-0.2867,-0.2861,-0.2864,-0.2688,-0.197,-0.1792,-0.1166,0.0179,0.0448,0.0718,0.1345,0.146,0.1489,0.1517,0.1424,0.1424,0.1329,0.0092,-0.0718,-0.0718,-0.0731,-0.0831,-0.0739,-0.0846,-0.1235,-0.19,-0.1802,-0.2278,-0.305,-0.2229,-0.1857,-0.2861,-0.3674,-0.4443,-0.4253,0.0,0.0,0.0,0.0,0.0,0.0,0.0,0.0,0.0,0.0,0.0,0.0,0.0,0.0,0.0,0.0,0.0,0.0,0.0,0.0,0.0,0.0,0.0,0.0,0.0,0.0,-1.3547,-1.3434,-1.3043,-1.2383,-1.1727,-1.1082,-1.0293,-0.9187,-0.8707,-0.8901,-0.8625,-0.8374,-0.8122,-0.8235,-0.8187,-0.8028,-0.8284,-0.8251,-0.8008,-0.8135,-0.8158,-0.8083,-0.8128,-0.796,-0.7496,-0.6648,-0.577,-0.4993,-0.4453,-0.4066,-0.391,-0.43,-0.4332,-0.4289,-0.4817,-0.4794,-0.4754,-0.5057,-0.5079,-0.4771,-0.4148,-0.379,-0.2993,-0.0502,-0.0,-0.0,0.0626,-0.0627,-0.1703,-0.1435,-0.2689,-0.3765,-0.3765,-0.3765,-0.3676,-0.3405,-0.2511,-0.1615,-0.1076,-0.0538,-0.0,0.0718,0.1188,0.1493,0.1523,0.1526,0.1526,0.1526,0.094,0.0653,0.0653,0.0657,0.0471,-0.0,-0.0,-0.0667,-0.1808,-0.1428,-0.1822,-0.3106,-0.1856,-0.1282,-0.2219,-0.2998,-0.3723,0.0,0.0,0.0,0.0,0.0,0.0,0.0,0.0,0.0,0.0,0.0,0.0,0.0,0.0,0.0,0.0,0.0,0.0,0.0,0.0,0.0,0.0,0.0,0.0,0.0,0.0,0.0,0.0,-1.326,-1.2772,-1.1881,-1.1222,-1.0343,-0.9321,-0.8531,-0.8134,-0.8199,-0.802,-0.7959,-0.8016,-0.8089,-0.8081,-0.802,-0.8146,-0.8101,-0.8004,-0.8045,-0.8115,-0.8204,-0.8227,-0.8178,-0.8097,-0.7322,-0.6703,-0.616,-0.5613,-0.5226,-0.5071,-0.5461,-0.5475,-0.5494,-0.5893,-0.5857,-0.5651,-0.5899,-0.5774,-0.5306,-0.4523,-0.4371,-0.3942,-0.2091,-0.2166,-0.2326,-0.1073,-0.1789,-0.2596,-0.233,-0.3582,-0.4743,-0.4743,-0.4743,-0.4743,-0.4743,-0.3492,-0.251,-0.224,-0.1524,-0.0631,0.0274,0.0839,0.1236,0.1552,0.1555,0.1555,0.1555,0.1555,0.1546,0.1527,0.1526,0.1243,0.077,0.0578,-0.0193,-0.1454,-0.1262,-0.1759,-0.2771,-0.1682,-0.0996,-0.2211,-0.2548,0.0,0.0,0.0,0.0,0.0,0.0,0.0,0.0,0.0,0.0,0.0,0.0,0.0,0.0,0.0,0.0,0.0,0.0,0.0,0.0,0.0,0.0,0.0,0.0,0.0,0.0,0.0,0.0,0.0,-1.336,-1.2519,-1.1033,-1.0972,-0.9947,-0.802,-0.8199,-0.8199,-0.8012,-0.7845,-0.7849,-0.8004,-0.7837,-0.7849,-0.8008,-0.8008,-0.8073,-0.807,-0.807,-0.8195,-0.8403,-0.8403,-0.8403,-0.8327,-0.7472,-0.7088,-0.6784,-0.5918,-0.5607,-0.5684,-0.6083,-0.5922,-0.5761,-0.6626,-0.6311,-0.5915,-0.7169,-0.6468,-0.5538,-0.6307,-0.5565,-0.468,-0.5355,-0.4415,-0.3309,-0.3309,-0.3309,-0.322,-0.322,-0.4559,-0.5719,-0.5719,-0.5719,-0.5719,-0.5719,-0.4919,-0.4028,-0.3309,-0.2419,-0.1276,0.019,0.0388,0.0693,0.1513,0.1617,0.1617,0.1617,0.1617,0.159,0.153,0.1527,0.1541,0.1571,0.0786,-0.0,-0.0806,-0.1613,-0.2017,-0.2017,-0.2017,-0.111,-0.1836,0.0,0.0,0.0,0.0,0.0,0.0,0.0,0.0,0.0,0.0,0.0,0.0,0.0,0.0,0.0,0.0,0.0,0.0,0.0,0.0,0.0,0.0,0.0,0.0,0.0,0.0,0.0,0.0,0.0,0.0,-1.2369,-1.1591,-1.0961,-1.0307,-0.9427,-0.8402,-0.8329,-0.8264,-0.8207,-0.8024,-0.7902,-0.7833,-0.7784,-0.7715,-0.7646,-0.7776,-0.7811,-0.7716,-0.7953,-0.8304,-0.8627,-0.8627,-0.8627,-0.8551,-0.8318,-0.7936,-0.7553,-0.7548,-0.7766,-0.7982,-0.7774,-0.8063,-0.8412,-0.8197,-0.7765,-0.7463,-0.7982,-0.771,-0.7326,-0.7407,-0.7266,-0.685,-0.5687,-0.5454,-0.5359,-0.5092,-0.527,-0.5359,-0.5003,-0.5894,-0.6697,-0.6697,-0.6697,-0.6428,-0.5808,-0.4919,-0.3942,-0.3139,-0.2363,-0.1667,-0.1235,-0.0775,-0.0395,-0.0101,-0.0101,0.0202,0.0707,0.0707,0.1005,0.1591,0.159,0.1594,0.1603,0.1403,0.0803,-0.0,-0.0202,-0.0605,-0.1109,-0.1109,-0.0605,-0.2101,0.0,0.0,0.0,0.0,0.0,0.0,0.0,0.0,0.0,0.0,0.0,0.0,0.0,0.0,0.0,0.0,0.0,0.0,0.0,0.0,0.0,0.0,0.0,0.0,0.0,0.0,0.0,0.0,0.0,0.0,-1.1905,-1.1289,-1.046,-0.9885,-0.9311,-0.8564,-0.8455,-0.8402,-0.8398,-0.8295,-0.8152,-0.7967,-0.7825,-0.7659,-0.7488,-0.7758,-0.7823,-0.7791,-0.8174,-0.8475,-0.8703,-0.8703,-0.8703,-0.8703,-0.8703,-0.8699,-0.8699,-0.8932,-0.9377,-0.9814,-0.9528,-0.959,-0.9654,-0.9266,-0.8769,-0.8403,-0.8519,-0.8403,-0.8178,-0.7953,-0.8074,-0.802,-0.6767,-0.6573,-0.6605,-0.634,-0.652,-0.6605,-0.634,-0.6697,-0.7139,-0.7139,-0.6786,-0.6343,-0.5808,-0.4954,-0.3989,-0.3089,-0.2608,-0.2284,-0.1924,-0.1568,-0.1195,-0.0806,-0.0806,-0.0605,-0.0101,-0.0101,0.0303,0.1111,0.1415,0.1617,0.1617,0.1313,0.0909,0.0404,0.0101,-0.0202,-0.0303,-0.0303,0.0101,0.0,0.0,0.0,0.0,0.0,0.0,0.0,0.0,0.0,0.0,0.0,0.0,0.0,0.0,0.0,0.0,0.0,0.0,0.0,0.0,0.0,0.0,0.0,0.0,0.0,0.0,0.0,0.0,0.0,0.0,0.0,-1.1721,-1.1162,-0.9676,-0.97,-0.9383,-0.854,-0.8627,-0.8636,-0.8652,-0.8631,-0.853,-0.834,-0.8012,-0.7762,-0.7581,-0.7936,-0.8075,-0.8152,-0.8528,-0.8675,-0.8675,-0.8694,-0.8703,-0.8703,-0.878,-0.9236,-0.9922,-0.9992,-1.0519,-1.1186,-1.1111,-1.0588,-0.9992,-0.9916,-0.9311,-0.8703,-0.8703,-0.8565,-0.8354,-0.8205,-0.8259,-0.8296,-0.804,-0.7617,-0.7228,-0.7228,-0.7228,-0.7231,-0.7139,-0.7139,-0.7051,-0.6962,-0.6251,-0.5636,-0.5555,-0.4836,-0.3977,-0.3151,-0.3068,-0.2844,-0.2058,-0.2094,-0.1815,-0.1109,-0.1008,-0.1008,-0.0907,-0.0907,-0.0504,0.0303,0.1111,0.1516,0.1617,0.0909,0.0505,0.0505,-0.0202,-0.0202,0.0505,0.0505,0.0909,0.0,0.0,0.0,0.0,0.0,0.0,0.0,0.0,0.0,0.0,0.0,0.0,0.0,0.0,0.0,0.0,0.0,0.0,0.0,0.0,0.0,0.0,0.0,0.0,0.0,0.0,0.0,0.0,0.0,0.0,-1.1111,-1.0466,-0.9887,-0.921,-0.9018,-0.8619,-0.8166,-0.8597,-0.8931,-0.917,-0.897,-0.8716,-0.8417,-0.8336,-0.8193,-0.7994,-0.7702,-0.7803,-0.8105,-0.8175,-0.8324,-0.8481,-0.8637,-0.8703,-0.878,-0.9387,-0.9765,-0.9992,-1.0588,-1.1335,-1.1929,-1.1335,-1.0962,-1.0738,-1.0067,-0.9311,-0.8703,-0.8703,-0.8672,-0.8566,-0.8404,-0.8449,-0.8484,-0.8316,-0.8229,-0.8296,-0.8296,-0.8296,-0.8032,-0.7231,-0.7139,-0.6874,-0.6163,-0.5808,-0.5481,-0.4751,-0.3917,-0.3312,-0.3125,-0.3094,-0.3041,-0.2845,-0.2895,-0.2826,-0.2724,-0.2724,-0.2422,-0.1815,-0.1714,-0.1412,-0.0605,0.0202,0.0909,0.1617,0.1415,0.1314,0.1314,0.1212,0.1212,0.1314,0.1314,0.1415,0.0,0.0,0.0,0.0,0.0,0.0,0.0,0.0,0.0,0.0,0.0,0.0,0.0,0.0,0.0,0.0,0.0,0.0,0.0,0.0,0.0,0.0,0.0,0.0,0.0,0.0,0.0,0.0,0.0,-1.021,-0.9892,-0.9433,-0.8824,-0.8145,-0.7845,-0.7816,-0.7819,-0.8154,-0.8539,-0.898,-0.8875,-0.8691,-0.8518,-0.8252,-0.804,-0.8008,-0.833,-0.8338,-0.812,-0.8733,-0.8714,-0.842,-0.8623,-0.8703,-0.878,-0.9614,-1.0143,-1.0588,-1.1409,-1.2224,-1.2826,-1.2378,-1.1706,-1.1037,-1.0594,-0.9609,-0.8722,-0.8826,-0.8862,-0.8811,-0.8582,-0.8656,-0.8709,-0.8373,-0.8434,-0.8568,-0.8568,-0.8568,-0.83,-0.7316,-0.6697,-0.6163,-0.5186,-0.4692,-0.4298,-0.3828,-0.3433,-0.3093,-0.3093,-0.3146,-0.3183,-0.3183,-0.3211,-0.323,-0.323,-0.323,-0.3027,-0.2623,-0.2623,-0.2219,-0.1412,-0.1009,-0.0202,0.101,0.1415,0.1617,0.1617,0.1617,0.1617,0.1617,0.1617,0.1415,0.0,0.0,0.0,0.0,0.0,0.0,0.0,0.0,0.0,0.0,0.0,0.0,0.0,0.0,0.0,0.0,0.0,0.0,0.0,0.0,0.0,0.0,0.0,0.0,0.0,0.0,0.0,0.0,0.0,-0.941,-0.8493,-0.8387,-0.7916,-0.6904,-0.6853,-0.7019,-0.7398,-0.7562,-0.7906,-0.8591,-0.8647,-0.8697,-0.8653,-0.8095,-0.797,-0.8227,-0.909,-0.9035,-0.8415,-0.9363,-0.9188,-0.842,-0.8585,-0.8647,-0.8798,-0.9702,-1.045,-1.1193,-1.2137,-1.2973,-1.3492,-1.3492,-1.2378,-1.1123,-1.1166,-1.0014,-0.8746,-0.8963,-0.8969,-0.8875,-0.8552,-0.8589,-0.8491,-0.7986,-0.8012,-0.812,-0.83,-0.8208,-0.7764,-0.6786,-0.5824,-0.4945,-0.423,-0.3493,-0.3007,-0.3057,-0.3117,-0.3155,-0.3155,-0.3199,-0.323,-0.323,-0.323,-0.323,-0.323,-0.323,-0.323,-0.323,-0.323,-0.2927,-0.2219,-0.2118,-0.1412,-0.0,0.0909,0.1415,0.1415,0.1516,0.1617,0.1617,0.1415,0.101,0.0,0.0,0.0,0.0,0.0,0.0,0.0,0.0,0.0,0.0,0.0,0.0,0.0,0.0,0.0,0.0,0.0,0.0,0.0,0.0,0.0,0.0,0.0,0.0,0.0,0.0,0.0,0.0,-0.8377,-0.815,-0.7513,-0.749,-0.7009,-0.5976,-0.6468,-0.6619,-0.6411,-0.6973,-0.7692,-0.8418,-0.8591,-0.858,-0.8404,-0.8349,-0.8803,-0.9564,-0.9129,-0.9108,-0.9394,-0.9296,-0.8898,-0.8406,-0.8434,-0.8444,-0.8586,-1.0109,-1.0755,-1.1081,-1.2729,-1.3419,-1.3492,-1.3492,-1.2378,-1.1154,-1.13,-1.0138,-0.8746,-0.8963,-0.8992,-0.8724,-0.7671,-0.7573,-0.7365,-0.6313,-0.6062,-0.634,-0.7139,-0.6694,-0.5808,-0.4832,-0.3997,-0.3313,-0.3221,-0.3134,-0.3117,-0.3127,-0.318,-0.3218,-0.3218,-0.3226,-0.323,-0.323,-0.323,-0.323,-0.323,-0.323,-0.323,-0.323,-0.323,-0.313,-0.3029,-0.2321,-0.1916,-0.1715,-0.0202,0.0606,0.0606,0.1212,0.1617,0.1617,0.0909,0.0505,0.0,0.0,0.0,0.0,0.0,0.0,0.0,0.0,0.0,0.0,0.0,0.0,0.0,0.0,0.0,0.0,0.0,0.0,0.0,0.0,0.0,0.0,0.0,0.0,0.0,0.0,0.0,0.0,-0.7801,-0.7527,-0.6988,-0.6737,-0.6265,-0.5558,-0.5564,-0.5664,-0.5862,-0.6163,-0.6727,-0.7643,-0.8019,-0.8157,-0.8066,-0.8066,-0.8678,-0.9734,-0.995,-1.0159,-1.0275,-1.0237,-0.9801,-0.9066,-0.8673,-0.85,-0.8621,-1.013,-1.061,-1.0725,-1.2094,-1.2562,-1.2518,-1.2245,-1.1335,-1.0483,-1.065,-0.9564,-0.8396,-0.8706,-0.8516,-0.8014,-0.7513,-0.7208,-0.6956,-0.6251,-0.5453,-0.501,-0.5453,-0.563,-0.5453,-0.4476,-0.3554,-0.2969,-0.3096,-0.3082,-0.3151,-0.3185,-0.3213,-0.323,-0.323,-0.323,-0.323,-0.323,-0.3732,-0.3833,-0.323,-0.3732,-0.3833,-0.323,-0.323,-0.323,-0.323,-0.2826,-0.2623,-0.2623,-0.111,-0.0101,0.0404,0.0707,0.0909,0.0909,0.0606,-0.0101,0.0,0.0,0.0,0.0,0.0,0.0,0.0,0.0,0.0,0.0,0.0,0.0,0.0,0.0,0.0,0.0,0.0,0.0,0.0,0.0,0.0,0.0,0.0,0.0,0.0,0.0,0.0,0.0,-0.7485,-0.7064,-0.6544,-0.6064,-0.5603,-0.5095,-0.4771,-0.4905,-0.5509,-0.5868,-0.6369,-0.7091,-0.7588,-0.7872,-0.7872,-0.7872,-0.8461,-0.9575,-1.0533,-1.0828,-1.0791,-1.0924,-1.0341,-0.929,-0.8806,-0.8533,-0.8548,-0.9846,-1.0224,-1.0301,-1.1293,-1.1611,-1.1571,-1.1193,-1.0432,-0.9737,-0.9943,-0.8969,-0.7821,-0.8182,-0.794,-0.7454,-0.7135,-0.6838,-0.6514,-0.5985,-0.5097,-0.421,-0.4032,-0.4476,-0.475,-0.4059,-0.349,-0.3001,-0.3061,-0.3123,-0.3179,-0.3224,-0.323,-0.323,-0.323,-0.323,-0.323,-0.323,-0.4133,-0.4433,-0.3632,-0.4632,-0.4732,-0.3632,-0.3632,-0.3531,-0.323,-0.323,-0.323,-0.323,-0.2017,-0.1009,-0.0202,-0.0,0.0101,0.0101,-0.0101,-0.0807,0.0,0.0,0.0,0.0,0.0,0.0,0.0,0.0,0.0,0.0,0.0,0.0,0.0,0.0,0.0,0.0,0.0,0.0,0.0,0.0,0.0,0.0,0.0,0.0,0.0,0.0,0.0,0.0,-0.7007,-0.6478,-0.5954,-0.5428,-0.4959,-0.4535,-0.4546,-0.4815,-0.5375,-0.6512,-0.7153,-0.7225,-0.7797,-0.808,-0.808,-0.808,-0.8518,-0.939,-1.0072,-1.0413,-1.0641,-1.0653,-0.9917,-0.8742,-0.8486,-0.8411,-0.8475,-0.9337,-0.9618,-0.9785,-1.0775,-1.1168,-1.1093,-1.1105,-1.0196,-0.9133,-0.9412,-0.8358,-0.7097,-0.7421,-0.751,-0.7257,-0.615,-0.5982,-0.5802,-0.4654,-0.4387,-0.4032,-0.3142,-0.3053,-0.307,-0.3035,-0.3096,-0.3064,-0.3124,-0.3185,-0.3228,-0.323,-0.323,-0.323,-0.323,-0.323,-0.323,-0.323,-0.4133,-0.4734,-0.4734,-0.5729,-0.5827,-0.4834,-0.4734,-0.4234,-0.323,-0.323,-0.323,-0.323,-0.313,-0.2724,-0.1917,-0.1109,-0.0706,-0.0706,-0.1513,-0.1916,0.0,0.0,0.0,0.0,0.0,0.0,0.0,0.0,0.0,0.0,0.0,0.0,0.0,0.0,0.0,0.0,0.0,0.0,0.0,0.0,0.0,0.0,0.0,0.0,0.0,0.0,0.0,0.0,0.0,-0.5905,-0.5277,-0.5077,-0.4779,-0.4243,-0.4243,-0.4567,-0.5173,-0.6328,-0.6874,-0.6869,-0.7476,-0.7683,-0.7683,-0.7683,-0.8081,-0.8831,-0.8981,-0.9738,-1.0719,-1.0313,-0.9916,-0.9377,-0.8849,-0.8514,-0.8475,-0.9197,-0.9387,-0.9285,-0.9364,-0.9437,-0.9316,-0.8637,-0.8075,-0.7687,-0.8056,-0.7386,-0.6589,-0.697,-0.6708,-0.6277,-0.5841,-0.5604,-0.5097,-0.4121,-0.3853,-0.3676,-0.3053,-0.3142,-0.325,-0.3039,-0.3007,-0.3068,-0.3129,-0.3189,-0.323,-0.323,-0.323,-0.323,-0.323,-0.3831,-0.4234,-0.4234,-0.5832,-0.6526,-0.5927,-0.6825,-0.6625,-0.4935,-0.4834,-0.4334,-0.323,-0.323,-0.323,-0.323,-0.323,-0.2826,-0.2017,-0.1714,-0.1613,-0.1613,-0.1916,-0.232,0.0,0.0,0.0,0.0,0.0,0.0,0.0,0.0,0.0,0.0,0.0,0.0,0.0,0.0,0.0,0.0,0.0,0.0,0.0,0.0,0.0,0.0,0.0,0.0,0.0,0.0,0.0,0.0,0.0,0.0,-0.5013,-0.4816,-0.4625,-0.4434,-0.4628,-0.4997,-0.5613,-0.6539,-0.6999,-0.6999,-0.7326,-0.7521,-0.7521,-0.7521,-0.769,-0.7971,-0.7979,-0.8705,-0.9873,-0.9468,-0.915,-0.8851,-0.8546,-0.8316,-0.8277,-0.8941,-0.9066,-0.8882,-0.8429,-0.8249,-0.8128,-0.7206,-0.6747,-0.6684,-0.6941,-0.6559,-0.606,-0.6367,-0.6083,-0.5733,-0.5733,-0.5463,-0.5102,-0.448,-0.4302,-0.4123,-0.3499,-0.3409,-0.3256,-0.3066,-0.3115,-0.3075,-0.3157,-0.3204,-0.323,-0.323,-0.323,-0.3331,-0.3732,-0.4334,-0.4933,-0.5331,-0.6927,-0.7723,-0.7024,-0.7922,-0.7627,-0.5432,-0.5331,-0.4732,-0.323,-0.323,-0.323,-0.323,-0.323,-0.2927,-0.2422,-0.2422,-0.2622,-0.2923,-0.2923,-0.3226,0.0,0.0,0.0,0.0,0.0,0.0,0.0,0.0,0.0,0.0,0.0,0.0,0.0,0.0,0.0,0.0,0.0,0.0,0.0,0.0,0.0,0.0,0.0,0.0,0.0,0.0,0.0,0.0,-0.5352,-0.5087,-0.508,-0.4625,-0.4556,-0.5074,-0.5617,-0.6152,-0.6675,-0.7265,-0.7521,-0.7521,-0.7521,-0.7521,-0.7521,-0.7521,-0.7304,-0.6894,-0.7074,-0.7504,-0.8094,-0.8053,-0.7613,-0.6942,-0.7553,-0.7783,-0.7859,-0.847,-0.8703,-0.8623,-0.8012,-0.7783,-0.7706,-0.7099,-0.6513,-0.6102,-0.6239,-0.5876,-0.5489,-0.5697,-0.5733,-0.5733,-0.5733,-0.5733,-0.5733,-0.5644,-0.5644,-0.5463,-0.4478,-0.3588,-0.3,-0.3118,-0.3143,-0.3087,-0.3207,-0.3229,-0.323,-0.323,-0.323,-0.3632,-0.4734,-0.4834,-0.5331,-0.6323,-0.7422,-0.8021,-0.8021,-0.8924,-0.8623,-0.6523,-0.6323,-0.5427,-0.3331,-0.323,-0.323,-0.323,-0.323,-0.323,-0.323,-0.323,-0.3732,-0.4834,-0.4834,-0.4834,-0.0168,0.0,0.0,0.0,0.0,0.0,0.0,0.0,0.0,0.0,0.0,0.0,0.0,0.0,0.0,0.0,0.0,0.0,0.0,0.0,0.0,0.0,0.0,0.0,0.0,0.0,0.0,0.0,-0.4578,-0.4458,-0.4364,-0.4613,-0.4759,-0.4787,-0.5891,-0.6544,-0.6675,-0.7265,-0.7521,-0.7521,-0.7521,-0.7521,-0.7521,-0.7521,-0.7227,-0.6768,-0.6526,-0.6369,-0.6251,-0.6945,-0.7088,-0.6942,-0.7553,-0.7783,-0.7859,-0.847,-0.8703,-0.8623,-0.8012,-0.7553,-0.7038,-0.6534,-0.5962,-0.547,-0.5689,-0.5609,-0.5489,-0.5697,-0.5733,-0.5733,-0.5733,-0.5733,-0.5644,-0.528,-0.5191,-0.4924,-0.4034,-0.3587,-0.3345,-0.3061,-0.3113,-0.3074,-0.3151,-0.3202,-0.3432,-0.4234,-0.4334,-0.4732,-0.5827,-0.6625,-0.7226,-0.7521,-0.8524,-0.9126,-0.9126,-0.8722,-0.7822,-0.6523,-0.5629,-0.4632,-0.323,-0.323,-0.323,-0.323,-0.323,-0.3632,-0.4334,-0.4334,-0.4535,-0.4834,-0.5629,-0.5927,0.0,0.0,0.0,0.0,0.0,0.0,-0.4429,-0.5265,0.0,0.0,0.0,0.0,0.0,0.0,0.0,0.0,0.0,0.0,0.0,0.0,0.0,0.0,0.0,0.0,0.0,-0.408,-0.4172,-0.405,-0.4156,-0.4257,-0.4437,-0.4996,-0.5375,-0.5538,-0.6302,-0.6806,-0.7003,-0.7326,-0.7521,-0.7521,-0.7521,-0.7521,-0.7521,-0.7521,-0.7245,-0.6743,-0.6398,-0.5906,-0.5549,-0.6225,-0.6479,-0.6556,-0.7169,-0.7553,-0.7859,-0.847,-0.8703,-0.8623,-0.8012,-0.7553,-0.7107,-0.6274,-0.5787,-0.5549,-0.5501,-0.551,-0.5489,-0.5697,-0.5733,-0.5733,-0.5733,-0.5733,-0.5644,-0.5371,-0.528,-0.5013,-0.4123,-0.421,-0.4336,-0.3812,-0.34,-0.3363,-0.4337,-0.41,-0.4232,-0.5331,-0.5429,-0.5829,-0.6924,-0.7624,-0.8124,-0.8623,-0.8825,-0.8924,-0.8924,-0.7922,-0.6924,-0.5827,-0.5133,-0.4334,-0.323,-0.323,-0.323,-0.323,-0.323,-0.393,-0.5432,-0.5033,-0.555,-0.6997,-0.8758,-0.8989,0.0,0.0,0.0,0.0,0.0,0.0,-0.6239,-0.6607,-0.6817,0.0,0.0,0.0,0.0,0.0,0.0,0.0,0.0,0.0,0.0,0.0,0.0,0.0,0.0,0.0,-0.382,-0.3974,-0.4066,-0.3883,-0.4037,-0.4405,-0.4889,-0.5546,-0.6159,-0.6616,-0.6698,-0.6981,-0.7521,-0.7456,-0.7391,-0.7391,-0.7326,-0.7326,-0.7326,-0.7326,-0.7096,-0.6664,-0.6365,-0.6016,-0.5635,-0.587,-0.5941,-0.5941,-0.671,-0.7322,-0.7859,-0.847,-0.8703,-0.8627,-0.8089,-0.7859,-0.7633,-0.6419,-0.6051,-0.6025,-0.5515,-0.5466,-0.5489,-0.5697,-0.5733,-0.5733,-0.5733,-0.5733,-0.5733,-0.5733,-0.5733,-0.5466,-0.4567,-0.5099,-0.5515,-0.4982,-0.3989,-0.3943,-0.6051,-0.5406,-0.502,-0.6423,-0.6512,-0.6807,-0.8021,-0.8223,-0.8524,-0.9525,-0.8623,-0.8021,-0.8021,-0.6921,-0.5827,-0.5033,-0.4834,-0.4433,-0.3632,-0.343,-0.3331,-0.3331,-0.3539,-0.4539,-0.6623,-0.5741,-0.7095,-1.0255,-1.2806,-1.2802,0.0,0.0,0.0,0.0,0.0,0.0,-0.7847,-0.8475,-0.8888,0.0,0.0,0.0,0.0,0.0,0.0,0.0,0.0,0.0,0.0,0.0,0.0,0.0,0.0,0.0,-0.3815,-0.3974,-0.4066,-0.3883,-0.4265,-0.4658,-0.5015,-0.5703,-0.6104,-0.6292,-0.6813,-0.7232,-0.7521,-0.7068,-0.6872,-0.6872,-0.6412,-0.6218,-0.6218,-0.6218,-0.5903,-0.548,-0.6106,-0.6101,-0.5643,-0.6435,-0.6402,-0.6015,-0.7169,-0.7706,-0.7859,-0.847,-0.8703,-0.8699,-0.8546,-0.8241,-0.7654,-0.7017,-0.6451,-0.6044,-0.5619,-0.5532,-0.5489,-0.5697,-0.5733,-0.5733,-0.5733,-0.5733,-0.5733,-0.5733,-0.5733,-0.5552,-0.5013,-0.5277,-0.5849,-0.6173,-0.5165,-0.4666,-0.5942,-0.4675,-0.4354,-0.7307,-0.6938,-0.7009,-0.9011,-0.9327,-0.9327,-0.9628,-0.8623,-0.8021,-0.8021,-0.6229,-0.5432,-0.6027,-0.5231,-0.5133,-0.5724,-0.4931,-0.4533,-0.4533,-0.5512,-0.6524,-0.7723,-0.8528,-0.9916,-1.1678,-1.3217,-1.3324,0.0,0.0,0.0,-0.7402,0.0,0.0,0.0,-0.9657,-0.9894,0.0,0.0,0.0,0.0,0.0,0.0,0.0,0.0,0.0,0.0,0.0,0.0,0.0,0.0,0.0,-0.4002,-0.3946,-0.4033,-0.4148,-0.4621,-0.506,-0.5497,-0.6079,-0.6531,-0.6691,-0.704,-0.7189,-0.7129,-0.6806,-0.6544,-0.6284,-0.602,-0.5888,-0.5888,-0.5888,-0.5885,-0.5896,-0.6142,-0.6294,-0.6459,-0.7013,-0.7095,-0.6938,-0.7553,-0.8012,-0.8318,-0.8623,-0.8703,-0.8703,-0.8703,-0.847,-0.8178,-0.7581,-0.7281,-0.6918,-0.6155,-0.58,-0.5654,-0.5716,-0.5733,-0.5733,-0.5733,-0.5733,-0.5733,-0.5733,-0.5552,-0.5369,-0.5539,-0.5805,-0.6269,-0.6959,-0.6082,-0.5551,-0.6715,-0.5676,-0.5466,-0.771,-0.7963,-0.8339,-0.9418,-0.9628,-0.9628,-0.9628,-0.8124,-0.7223,-0.7223,-0.5231,-0.4232,-0.473,-0.4832,-0.5033,-0.5629,-0.5629,-0.5653,-0.5708,-0.7047,-0.7904,-0.8347,-1.0754,-1.2342,-1.3063,-1.5167,-1.5249,0.0,0.0,0.0,0.0,0.0,-0.9847,0.0,0.0,0.0,0.0,0.0,0.0,0.0,0.0,0.0,0.0,0.0,0.0,0.0,0.0,0.0,0.0,0.0,0.0,-0.4453,-0.4169,-0.4189,-0.4622,-0.5063,-0.5445,-0.584,-0.6321,-0.6643,-0.6839,-0.6885,-0.6808,-0.6544,-0.6478,-0.6148,-0.5756,-0.5627,-0.5624,-0.5756,-0.5756,-0.6017,-0.6556,-0.6328,-0.6618,-0.7195,-0.7569,-0.775,-0.7888,-0.7923,-0.8241,-0.8703,-0.8703,-0.8703,-0.8703,-0.8703,-0.8703,-0.8623,-0.8012,-0.7778,-0.7592,-0.6605,-0.607,-0.5733,-0.5733,-0.5733,-0.5733,-0.5733,-0.5819,-0.5908,-0.5908,-0.5722,-0.5716,-0.6334,-0.6602,-0.6959,-0.7489,-0.6799,-0.6513,-0.7719,-0.6686,-0.6273,-0.7915,-0.8598,-0.9091,-0.9525,-0.9628,-0.9628,-0.9628,-0.7723,-0.6423,-0.6423,-0.4431,-0.333,-0.3831,-0.4433,-0.5033,-0.5734,-0.6326,-0.677,-0.6978,-0.804,-0.8619,-0.8799,-1.1917,-1.3631,-1.4061,-1.6977,-1.7009,0.0,0.0,0.0,0.0,-1.0442,0.0,0.0,0.0,-1.2162,-1.209,0.0,0.0,0.0,0.0,0.0,0.0,0.0,0.0,0.0,0.0,0.0,0.0,0.0,0.0,0.0,-0.4912,-0.4986,-0.5485,-0.5578,-0.5597,-0.5652,-0.5775,-0.578,-0.5593,-0.5744,-0.5845,-0.602,-0.5488,-0.5219,-0.5153,-0.4697,-0.4761,-0.5223,-0.5223,-0.5488,-0.6032,-0.6607,-0.6975,-0.7091,-0.7952,-0.8342,-0.8379,-0.8557,-0.8623,-0.8703,-0.8703,-0.8703,-0.8703,-0.8703,-0.8703,-0.8623,-0.8012,-0.7224,-0.6526,-0.6593,-0.6144,-0.5733,-0.5733,-0.5733,-0.5733,-0.5733,-0.6169,-0.6691,-0.6691,-0.7129,-0.7478,-0.757,-0.7925,-0.8193,-0.8109,-0.7706,-0.7597,-0.8146,-0.5628,-0.4647,-0.8181,-0.7521,-0.7391,-0.9308,-0.9628,-0.9628,-0.9628,-0.7723,-0.6423,-0.6423,-0.4431,-0.4031,-0.5924,-0.5231,-0.6032,-0.8928,-0.8223,-0.7829,-0.7849,-0.8197,-0.8722,-0.9486,-1.1239,-1.2746,-1.3953,-1.6775,-1.6806,0.0,0.0,0.0,0.0,0.0,0.0,-1.231,0.0,-1.3113,0.0,0.0,0.0,0.0,0.0,0.0,0.0,-1.2431,0.0,0.0,0.0,0.0,0.0,0.0,0.0,0.0,0.0,0.0,0.0,-0.561,-0.5677,-0.5955,-0.5976,-0.605,-0.6229,-0.6147,-0.6203,-0.6346,-0.6051,-0.5726,-0.5554,-0.5359,-0.5359,-0.5554,-0.5554,-0.594,-0.6578,-0.686,-0.7294,-0.787,-0.8257,-0.8472,-0.8585,-0.867,-0.8703,-0.8703,-0.8703,-0.8703,-0.8703,-0.8703,-0.8703,-0.8665,-0.8668,-0.82,-0.7693,-0.7861,-0.7435,-0.6959,-0.6959,-0.6959,-0.6959,-0.6959,-0.7132,-0.7394,-0.7394,-0.739,-0.7566,-0.8273,-0.8189,-0.8105,-0.8727,-0.7989,-0.7462,-0.7989,-0.6844,-0.6429,-0.8089,-0.7773,-0.7658,-0.8517,-0.8627,-0.8425,-0.7822,-0.6921,-0.6124,-0.5529,-0.4031,-0.3649,-0.4498,-0.4806,-0.5994,-0.8528,-0.8313,-0.8459,-0.9063,-0.9335,-0.9645,-1.0099,-1.1385,-1.2297,-1.2815,-1.4891,-1.5018,-0.9562,0.0,0.0,0.0,0.0,0.0,0.0,0.0,0.0,0.0,0.0,0.0,0.0,0.0,0.0,0.0,0.0,-1.2323,0.0,0.0,0.0,0.0,0.0,0.0,0.0,0.0,0.0,-0.6,-0.5841,-0.5841,-0.6009,-0.606,-0.6167,-0.6338,-0.6258,-0.6289,-0.651,-0.6502,-0.6336,-0.6009,-0.6121,-0.6148,-0.6086,-0.6086,-0.6513,-0.7236,-0.7236,-0.7635,-0.8316,-0.8377,-0.8486,-0.8623,-0.868,-0.867,-0.8628,-0.868,-0.8703,-0.8703,-0.8703,-0.8741,-0.885,-0.9204,-0.8967,-0.8658,-0.8835,-0.836,-0.7834,-0.7834,-0.7834,-0.7834,-0.7834,-0.7921,-0.8097,-0.8097,-0.8006,-0.8093,-0.8978,-0.8627,-0.8281,-0.917,-0.8376,-0.7723,-0.8159,-0.7764,-0.7508,-0.8041,-0.8096,-0.8021,-0.8021,-0.8021,-0.7621,-0.6523,-0.6124,-0.5629,-0.4834,-0.3851,-0.3274,-0.3319,-0.4553,-0.604,-0.7528,-0.8029,-0.8697,-0.9815,-0.9945,-0.9999,-0.9754,-1.1011,-1.1375,-1.115,-1.3208,-1.362,0.0,0.0,0.0,-1.1653,0.0,0.0,0.0,0.0,-1.2658,0.0,0.0,0.0,0.0,0.0,-1.2881,-1.2881,-1.2881,0.0,0.0,0.0,0.0,0.0,0.0,0.0,0.0,0.0,-0.7031,-0.7031,-0.6495,-0.6009,-0.5622,-0.5684,-0.5554,-0.5158,-0.5251,-0.5574,-0.6113,-0.641,-0.65,-0.6375,-0.6686,-0.6785,-0.6675,-0.6675,-0.7047,-0.7782,-0.7782,-0.79,-0.8108,-0.8316,-0.8406,-0.8434,-0.8628,-0.8581,-0.8434,-0.8628,-0.8703,-0.8703,-0.8703,-0.8836,-0.9048,-0.9256,-0.8967,-0.8658,-0.8835,-0.836,-0.7834,-0.7834,-0.7834,-0.7834,-0.7834,-0.836,-0.889,-0.889,-0.9419,-0.9951,-0.9951,-0.9777,-0.9515,-0.9345,-0.9087,-0.8794,-0.8792,-0.73,-0.6688,-0.8379,-0.8231,-0.8021,-0.8021,-0.8021,-0.7621,-0.6523,-0.5429,-0.4834,-0.4834,-0.3896,-0.3319,-0.3322,-0.5272,-0.6447,-0.6429,-0.7428,-0.8531,-0.9636,-0.9644,-0.9126,-0.816,-0.9388,-0.9557,-0.8911,-1.2397,-1.3367,0.0,0.0,-1.2158,-1.1982,0.0,0.0,0.0,0.0,0.0,0.0,0.0,0.0,0.0,0.0,-1.2881,-1.2881,-1.2881,-1.2929,0.0,0.0,0.0,0.0,0.0,0.0,0.0,0.0,0.0,-0.8171,-0.7652,-0.7289,-0.7122,-0.735,-0.7488,-0.7465,-0.7608,-0.7925,-0.8357,-0.7923,-0.7709,-0.7782,-0.7474,-0.7256,-0.7204,-0.7336,-0.7646,-0.7976,-0.7976,-0.8174,-0.8486,-0.8429,-0.8481,-0.8609,-0.8675,-0.8661,-0.8609,-0.8675,-0.8618,-0.8543,-0.8822,-0.9143,-0.9445,-0.9516,-0.9507,-0.9511,-0.9579,-0.9419,-0.9244,-0.9244,-0.9244,-0.9244,-0.9244,-0.9419,-0.9598,-0.9598,-0.9859,-1.0038,-1.0038,-0.9888,-0.9771,-0.9542,-0.927,-0.911,-0.9079,-0.8506,-0.8298,-0.904,-0.8521,-0.8021,-0.8021,-0.7422,-0.6526,-0.5432,-0.5033,-0.4535,-0.3831,-0.353,-0.3364,-0.3324,-0.4709,-0.5808,-0.6331,-0.7422,-0.8524,-0.9628,-0.9738,-0.9274,-0.8297,-0.8811,-0.8642,-0.763,-0.8869,-1.0077,-1.2393,-1.2552,0.0,-1.2334,-1.2672,0.0,-1.2858,0.0,-1.2664,0.0,0.0,0.0,0.0,0.0,-1.3121,-1.2566,-1.2688,-1.274,0.0,-1.1882,0.0,0.0,0.0,0.0,0.0,0.0,-0.8992,-0.8992,-0.8336,-0.7925,0.0,-0.8233,-0.8458,-0.8564,-0.8789,-0.9129,-0.9537,-0.9162,-0.8838,-0.8678,-0.8382,-0.7972,-0.7531,-0.7683,-0.7891,-0.8085,-0.816,-0.8387,-0.8689,-0.8562,-0.8585,-0.8703,-0.8703,-0.8614,-0.8496,-0.8647,-0.867,-0.867,-0.9011,-0.9356,-0.9559,-0.9559,-0.9786,-1.0038,-1.0038,-1.0038,-1.0038,-1.0038,-1.0038,-1.0038,-1.0038,-1.0038,-1.0038,-1.0038,-1.0012,-1.0152,-1.0152,-1.0051,-0.9976,-0.9844,-0.9651,-0.9462,-0.9283,-0.9347,-0.9321,-0.9436,-0.8916,-0.8425,-0.8021,-0.7422,-0.6426,-0.4933,-0.4834,-0.4358,-0.3394,-0.3367,-0.3403,-0.3386,-0.4346,-0.5446,-0.6396,-0.7497,-0.861,-0.9717,-0.9892,-0.9549,-0.8557,-0.8648,-0.8116,-0.7138,-0.7138,-0.7913]},{"header":{"parameterUnit":"m.s-1","parameterCategory":1,"la1":30.6,"la2":29.2853,"lo1":-89.7004,"lo2":-87.6739,"dy":0.0162,"dx":0.0183,"nx":112,"ny":82,"refTime":"2023-06-22T12:00:00:Z","depth":0,"parameterNumber":3,"parameterNumberName":"V-component_of_WINDS"},"data":[0.0,0.0,0.0,0.0,0.0,0.0,0.0,0.0,0.0,0.0,0.0,0.0,0.0,0.0,0.0,0.0,0.0,0.0,0.0,0.0,0.0,0.0,0.0,0.0,0.0,0.0,0.0,0.0,0.0,0.0,0.0,0.0,0.0,0.0,0.0,0.0,0.0,0.0,0.0,0.0,0.0,0.0,0.0,0.0,0.0,0.0,0.0,0.0,0.0,0.0,0.0,0.0,0.0,0.0,0.0,0.0,0.0,0.0,0.0,0.0,0.0,0.0,0.0,0.0,0.0,0.0,0.0,0.0,0.0,0.0,0.0,0.0,0.0,0.0,0.0,0.0,0.0,0.0,0.0,0.0,0.0,0.0,0.0,0.0,0.0,0.0,0.0,0.0,0.0,0.0,-0.0495,-0.054,-0.0431,-0.007,0.0694,0.149,0.2283,0.3127,0.0,0.0,0.0,0.0,0.0,0.0,0.0,0.0,0.0,0.0,0.0,0.0,0.0,0.0,0.0,0.0,0.0,0.0,0.0,0.0,0.0,0.0,0.0,0.0,0.0,0.0,0.0,0.0,0.0,0.0,0.0,0.0,0.0,0.0,0.0,0.0,0.0,0.0,0.0,0.0,0.0,0.0,0.0,0.0,0.0,0.0,0.0,0.0,0.0,0.0,0.0,0.0,0.0,0.0,0.0,0.0,0.0,0.0,0.0,0.0,0.0,0.0,0.0,0.0,0.0,0.0,0.0,0.0,0.0,0.0,0.0,0.0,0.0,0.0,0.0,0.0,0.0,0.0,0.0,0.0,0.0,0.0,0.0,0.0,0.0,0.0,0.0,0.0,0.0,0.0,0.0,0.0,0.0,0.0,0.0,0.0,0.0,0.0,0.0,0.0,0.0,0.0,0.0,0.0,-0.1911,-0.2121,-0.2317,-0.2244,-0.1707,-0.1354,-0.0956,-0.0516,0.0,0.0,0.0,0.0,0.0,0.0,0.0,0.0,0.0,0.0,0.0,0.0,0.0,0.0,0.0,0.0,0.0,0.0,0.0,0.0,0.0,0.0,0.0,0.0,0.0,0.0,0.0,0.0,0.0,0.0,0.0,0.0,0.0,0.0,0.0,0.0,0.0,0.0,0.0,0.0,0.0,0.0,0.0,0.0,0.0,0.0,0.0,0.0,0.0,0.0,0.0,0.0,0.0,0.0,0.0,0.0,0.0,0.0,0.0,0.0,0.0,0.0,0.0,0.0,0.0,0.0,0.0,0.0,0.0,0.0,0.0,0.0,0.0,0.0,0.0,0.0,0.0,0.0,0.0,0.0,0.0,0.0,0.0,0.0,0.0,0.0,0.0,0.0,0.0,0.0,0.0,0.0,0.0,0.0,0.0,0.0,0.0,0.0,0.0,0.0,0.0,0.0,0.0,-0.3629,-0.428,-0.3649,-0.3895,-0.3868,-0.3283,-0.2845,-0.2523,-0.2297,-0.0552,0.0,0.0,0.0,0.0,0.0,0.0,0.0,0.0,0.0,0.0,0.0,0.0,0.0,0.0,0.0,0.0,0.0,0.0,0.0,0.0,0.0,0.0,0.0,0.0,0.0,0.0,0.0,0.0,0.0,0.0,0.0,0.0,0.0,0.0,0.0,0.0,0.0,0.0,0.0,0.0,0.0,0.0,0.0,0.0,0.0,0.0,0.0,0.0,0.0,0.0,0.0,0.0,0.0,0.0,0.0,0.0,0.0,0.0,0.0,0.0,0.0,0.0,0.0,0.0,0.0,0.0,0.0,0.0,0.0,0.0,0.0,0.0,0.0,0.0,0.0,0.0,0.0,0.0,0.0,0.0,0.0,0.0,0.0,0.0,0.0,0.0,0.0,0.0,0.0,0.0,0.0,0.0,0.0,0.0,0.0,0.0,0.0,0.0,0.0,0.0,0.0,0.0,-0.568,-0.5921,-0.4885,-0.5163,-0.5201,-0.466,-0.4063,-0.3748,-0.3845,-0.2973,0.0,0.0,0.0,0.0,0.0,0.0,0.0,0.0,0.0,0.0,0.0,0.0,0.0,0.0,0.0,0.0,0.0,0.0,0.0,0.0,0.0,0.0,0.0,0.0,0.0,0.0,0.0,0.0,0.0,0.0,0.0,0.0,0.0,0.0,0.0,0.0,0.0,0.0,0.0,0.0,0.0,0.0,0.0,0.0,0.0,0.0,0.0,0.0,0.0,0.0,0.0,0.0,0.0,0.0,0.0,0.0,0.0,0.0,0.0,0.0,0.0,0.0,0.0,0.0,0.0,0.0,0.0,0.0,0.0,0.0,0.0,0.0,0.0,0.0,0.0,0.0,0.0,0.0,0.0,0.0,0.0,0.0,0.0,0.0,0.0,0.0,0.0,0.0,0.0,0.0,0.0,0.0,0.0,0.0,0.0,0.0,0.0,0.0,0.0,0.0,0.0,0.0,-0.5651,-0.5514,-0.5606,-0.608,-0.6343,-0.6159,-0.5371,-0.5225,-0.603,-0.4614,0.0,0.0,0.0,0.0,0.0,0.0,0.0,0.0,0.0,0.0,0.0,0.0,0.0,0.0,0.0,0.0,0.0,0.0,0.0,0.0,0.0,0.0,0.0,0.0,0.0,0.0,0.0,0.0,0.0,0.0,0.0,0.0,0.0,0.0,0.0,0.0,0.0,0.0,0.0,0.0,0.0,0.0,0.0,0.0,0.0,0.0,0.0,0.0,0.0,0.0,0.0,0.0,0.0,0.0,0.0,0.0,0.0,0.0,0.0,0.0,0.0,0.0,0.0,0.0,0.0,0.0,0.0,0.0,0.0,0.0,0.0,0.0,0.0,0.0,0.0,0.0,0.0,0.0,0.0,0.0,0.0,0.0,0.0,0.0,0.0,0.0,0.0,0.0,0.0,0.0,0.0,0.0,0.0,0.0,0.0,0.0,0.0,0.0,0.0,0.0,0.0,0.0,-0.747,-0.7327,0.0,-0.6372,-0.6553,-0.6197,-0.592,-0.6412,-0.7954,0.0,0.0,0.0,0.0,0.0,0.0,0.0,0.0,0.0,0.0,0.0,0.0,0.0,0.0,0.0,0.0,0.0,0.0,0.0,0.0,0.0,0.0,0.0,0.0,0.0,0.0,0.0,0.0,0.0,0.0,0.0,0.0,0.0,0.0,0.0,0.0,0.0,0.0,0.0,0.0,0.0,0.0,0.0,0.0,0.0,0.0,0.0,0.0,0.0,0.0,0.0,0.0,0.0,0.0,0.0,0.0,0.0,0.0,0.0,0.0,0.0,0.0,0.0,0.0,0.0,0.0,0.0,0.0,0.0,0.0,0.0,0.0,0.0,0.0,0.0,0.0,0.0,0.0,0.0,0.0,0.0,0.0,0.0,0.0,0.0,0.0,0.0,0.0,0.0,0.0,0.0,0.0,0.0,0.0,0.0,0.0,0.0,0.0,0.0,0.0,0.0,0.0,-0.8572,-0.8912,-0.8527,0.0,-0.7044,-0.7106,-0.654,-0.6575,-0.7436,-0.9333,0.0,0.0,0.0,0.0,0.0,0.0,0.0,0.0,0.0,0.0,0.0,0.0,0.0,0.0,0.0,0.0,0.0,0.0,0.0,0.0,0.0,0.0,0.0,0.0,0.0,0.0,0.0,0.0,0.0,0.0,0.0,0.0,0.0,0.0,0.0,0.0,0.0,0.0,0.0,0.0,0.0,0.0,0.0,0.0,0.0,0.0,0.0,0.0,0.0,0.0,0.0,0.0,0.0,0.0,0.0,0.0,0.0,0.0,0.0,0.0,0.0,0.0,0.0,0.0,0.0,0.0,0.0,0.0,0.0,0.0,0.0,0.0,0.0,0.0,0.0,0.0,0.0,0.0,0.0,0.0,0.0,0.0,0.0,0.0,0.0,0.0,0.0,0.0,0.0,0.0,0.0,0.0,0.0,0.0,0.0,0.0,0.0,0.0,0.0,0.0,0.0,0.0,-1.0568,-0.9687,-0.8745,-0.7996,-0.8271,-0.8195,-0.7406,-0.7517,-0.8375,0.0,0.0,0.0,0.0,0.0,0.0,0.0,0.0,0.0,0.0,0.0,0.0,0.0,0.0,0.0,0.0,0.0,0.0,0.0,0.0,0.0,0.0,0.0,0.0,0.0,0.0,0.0,0.0,0.0,0.0,0.0,0.0,0.0,0.0,0.0,0.0,0.0,0.0,0.0,0.0,0.0,0.0,0.0,0.0,0.0,0.0,0.0,0.0,0.0,0.0,0.0,0.0,0.0,0.0,0.0,0.0,0.0,0.0,0.0,0.0,0.0,0.0,0.0,0.0,0.0,0.0,0.0,0.0,0.0,0.0,0.0,0.0,0.0,0.0,0.0,0.0,0.0,0.0,0.0,0.0,0.0,0.0,0.0,0.0,0.0,0.0,0.0,0.0,0.0,0.0,0.0,0.0,0.0,0.0,0.0,0.0,0.0,0.0,0.0,0.0,0.0,0.0,0.0,-1.1953,-1.0931,-0.9981,-0.9381,-0.9546,-0.9652,-0.9562,-0.9531,-1.0473,-1.2736,0.0,0.0,0.0,0.0,0.0,0.0,0.0,0.0,0.0,0.0,0.0,0.0,0.0,0.0,0.0,0.0,0.0,0.0,0.0,0.0,0.0,0.0,0.0,0.0,0.0,0.0,0.0,0.0,0.0,0.0,0.0,0.0,0.0,0.0,0.0,0.0,0.0,0.0,0.0,0.0,0.0,0.0,0.0,0.0,0.0,0.0,0.0,0.0,0.0,0.0,0.0,0.0,0.0,0.0,0.0,0.0,0.0,0.0,0.0,0.0,0.0,0.0,0.0,0.0,0.0,0.0,0.0,0.0,0.0,0.0,0.0,0.0,0.0,0.0,0.0,0.0,0.0,0.0,0.0,0.0,0.0,0.0,0.0,0.0,0.0,0.0,0.0,0.0,0.0,0.0,0.0,0.0,0.0,0.0,0.0,0.0,0.0,0.0,0.0,0.0,0.0,0.0,-1.4043,-1.262,-1.1364,-1.0742,-1.0946,-1.1182,-1.1242,-1.1462,-1.2191,-1.3639,0.0,0.0,0.0,0.0,0.0,0.0,0.0,0.0,0.0,0.0,0.0,0.0,0.0,0.0,0.0,0.0,0.0,0.0,0.0,0.0,0.0,0.0,0.0,0.0,0.0,0.0,0.0,0.0,0.0,0.0,0.0,0.0,0.0,0.0,0.0,0.0,0.0,0.0,0.0,0.0,0.0,0.0,0.0,0.0,0.0,0.0,0.0,0.0,0.0,0.0,0.0,0.0,0.0,0.0,0.0,0.0,0.0,0.0,0.0,0.0,0.0,0.0,0.0,0.0,0.0,0.0,0.0,0.0,0.0,0.0,0.0,0.0,0.0,0.0,0.0,0.0,0.0,0.0,0.0,0.0,0.0,0.0,0.0,0.0,0.0,0.0,0.0,0.0,0.0,0.0,0.0,0.0,0.0,0.0,0.0,0.0,0.0,0.0,0.0,0.0,0.0,0.0,-1.6554,-1.4668,-1.3007,-1.229,-1.2652,-1.2903,-1.28,-1.3382,-1.3749,-1.3699,0.0,0.0,0.0,0.0,0.0,0.0,0.0,0.0,0.0,0.0,0.0,0.0,0.0,0.0,0.0,0.0,0.0,0.0,0.0,0.0,0.0,0.0,0.0,0.0,0.0,0.0,0.0,0.0,0.0,0.0,0.0,0.0,0.0,0.0,0.0,0.0,0.0,0.0,0.0,0.0,0.0,0.0,0.0,0.0,0.0,0.0,0.0,0.0,0.0,0.0,0.0,0.0,0.0,0.0,0.0,0.0,0.0,0.0,0.0,0.0,-0.2811,0.0,0.0,0.0,0.0,0.0,0.0,0.0,0.0,0.0,0.0,0.0,0.0,0.0,0.0,0.0,0.0,0.0,0.0,0.0,0.0,0.0,0.0,0.0,0.0,0.0,0.0,0.0,0.0,0.0,0.0,0.0,0.0,0.0,0.0,0.0,0.0,0.0,0.0,0.0,0.0,0.0,-1.825,-1.6526,-1.5315,-1.5345,-1.5443,-1.5553,-1.5693,-1.5701,-1.6007,-1.6723,-1.5887,0.0,0.0,0.0,0.0,0.0,0.0,0.0,0.0,0.0,0.0,0.0,0.0,0.0,0.0,0.0,0.0,0.0,0.0,0.0,0.0,0.0,0.0,0.0,0.0,0.0,0.0,0.0,0.0,0.0,0.0,0.0,0.0,0.0,0.0,0.0,0.0,0.0,0.0,0.0,0.0,0.0,0.0,0.0,0.0,0.0,0.0,0.0,0.0,0.0,0.0,0.0,0.0,0.0,0.0,0.0,0.0,0.0,0.0,0.0,0.0,-0.4828,0.0,0.0,0.0,0.0,0.0,0.0,0.0,0.0,0.0,0.0,0.0,0.0,0.0,0.0,0.0,0.0,0.0,0.0,0.0,0.0,0.0,0.0,0.0,0.0,0.0,0.0,0.0,0.0,0.0,0.0,0.0,0.0,0.0,0.0,0.0,0.0,0.0,0.0,0.0,0.0,-1.933,-1.7576,-1.6312,-1.6397,-1.6507,-1.676,-1.7188,-1.71,-1.7053,-1.712,-1.697,0.0,0.0,0.0,0.0,0.0,0.0,0.0,0.0,0.0,0.0,0.0,0.0,0.0,0.0,0.0,0.0,0.0,0.0,0.0,0.0,0.0,0.0,0.0,0.0,0.0,0.0,0.0,0.0,0.0,0.0,0.0,0.0,0.0,0.0,0.0,0.0,0.0,0.0,0.0,0.0,0.0,0.0,0.0,0.0,0.0,0.0,0.0,0.0,0.0,0.0,0.0,0.0,0.0,-1.3886,-1.3286,-1.2995,-1.2058,-1.1752,-1.192,-0.9536,-0.8496,-0.8399,-0.7005,0.0,0.0,0.0,0.0,0.0,0.0,0.0,0.0,0.0,0.0,0.0,0.0,0.0,0.0,0.0,0.0,0.0,0.0,0.0,0.0,0.0,0.0,0.0,0.0,-2.4594,-2.4908,-2.3913,0.0,0.0,0.0,0.0,0.0,0.0,0.0,0.0,0.0,0.0,0.0,-2.0005,-1.8348,-1.7103,-1.6998,-1.718,-1.7526,-1.8094,-1.8071,-1.7702,-1.699,-1.7841,-1.779,0.0,0.0,0.0,0.0,0.0,0.0,0.0,0.0,0.0,0.0,0.0,0.0,0.0,0.0,0.0,0.0,0.0,0.0,0.0,0.0,0.0,0.0,0.0,0.0,0.0,0.0,0.0,0.0,0.0,0.0,0.0,0.0,-0.3161,-0.5934,0.0,0.0,0.0,0.0,0.0,0.0,0.0,0.0,0.0,0.0,0.0,0.0,0.0,-1.6255,-1.7205,-1.6949,-1.7112,-1.7747,-1.6684,-1.5842,-1.5179,-1.4902,-1.4614,-1.4256,-1.4067,0.0,-1.0163,-0.9933,0.0,0.0,0.0,0.0,0.0,0.0,0.0,0.0,0.0,0.0,0.0,0.0,0.0,0.0,0.0,0.0,0.0,0.0,0.0,0.0,0.0,0.0,-2.4222,-2.4238,-2.4899,-2.5498,0.0,-2.5194,-2.5001,-2.465,-2.4126,0.0,0.0,0.0,0.0,0.0,0.0,0.0,-2.0282,-1.9458,-1.8962,-1.8932,-1.8962,-1.9014,-1.9109,-1.8952,-1.8799,-1.8673,-1.7394,-1.7065,-1.8056,-1.7683,0.0,0.0,0.0,0.0,0.0,0.0,0.0,0.0,0.0,0.0,0.0,0.0,0.0,0.0,0.0,0.0,0.0,0.0,0.0,0.0,0.0,0.0,0.0,0.0,0.0,0.0,0.0,0.0,0.0,-0.4895,-0.6557,-0.8082,-0.951,-1.0769,0.0,0.0,0.0,0.0,0.0,0.0,0.0,0.0,0.0,-1.4994,-1.5511,-1.6132,-1.6891,-1.7113,-1.7301,-1.7522,-1.6972,-1.6445,-1.5978,-1.5845,-1.5673,-1.5436,-1.5684,-1.5021,-1.368,-1.2765,-1.1838,-1.0864,0.0,0.0,0.0,0.0,-0.9088,-0.9813,-1.0748,-1.2086,0.0,-1.6154,0.0,0.0,0.0,0.0,0.0,0.0,0.0,0.0,0.0,0.0,-2.5036,-2.5031,-2.5348,-2.5642,-2.5615,-2.5522,-2.534,0.0,-2.4702,-2.4433,-2.3971,0.0,0.0,0.0,0.0,-2.0965,-2.0704,-1.9958,-1.9462,-1.9471,-1.9398,-1.9338,-1.9305,-1.9227,-1.9113,-1.9014,-1.8363,-1.8193,-1.8604,-1.9004,-1.9523,0.0,0.0,0.0,0.0,0.0,0.0,0.0,0.0,0.0,0.0,0.0,0.0,0.0,0.0,0.0,0.0,0.0,0.0,0.0,0.0,0.0,0.0,0.0,0.0,0.0,0.0,0.0,0.0,-0.781,-0.874,-0.9706,-1.1282,-1.2669,0.0,0.0,0.0,0.0,0.0,0.0,-1.4782,-1.4776,-1.4938,-1.529,-1.5745,-1.6089,-1.6374,-1.6933,-1.7212,-1.7228,-1.7062,-1.6895,-1.6711,-1.6664,-1.6603,-1.6566,-1.6835,-1.6848,-1.6587,-1.5245,-1.4185,-1.3326,-1.2711,-1.2516,-1.2434,-1.1616,-1.2027,-1.317,-1.4743,-1.6321,-1.7994,-2.0326,-2.1954,-2.3205,-2.4186,0.0,0.0,0.0,0.0,-2.5551,-2.5531,-2.557,-2.5632,-2.5629,-2.5659,-2.5689,-2.5638,-2.5637,-2.5508,0.0,-2.5158,-2.4998,-2.4351,0.0,0.0,0.0,0.0,-2.1231,-2.1048,-2.0395,-1.9854,-1.9628,-1.9674,-1.9718,-1.9651,-1.9617,-1.9554,-1.9357,-1.9273,-1.9173,-1.9,-2.0047,-2.0783,-2.1137,0.0,0.0,0.0,0.0,0.0,0.0,0.0,0.0,0.0,0.0,0.0,0.0,0.0,0.0,0.0,0.0,0.0,0.0,0.0,0.0,0.0,0.0,0.0,0.0,0.0,0.0,0.0,0.0,0.0,-1.054,-1.2213,0.0,0.0,0.0,0.0,-1.4925,-1.5235,-1.5552,-1.5819,-1.6522,-1.6886,-1.6701,-1.6847,-1.6987,-1.7157,-1.7047,-1.7386,-1.8145,-1.7947,-1.7827,-1.7827,-1.7987,-1.8066,-1.8106,-1.8302,-1.8158,-1.7683,-1.7085,-1.6382,-1.5771,-1.5969,-1.5856,-1.5557,-1.5326,-1.5942,-1.7023,-1.7746,-1.8692,-1.985,-2.1573,-2.316,-2.4547,-2.5292,-2.5553,0.0,0.0,-2.5586,-2.5683,-2.5618,-2.5644,-2.5696,-2.5683,-2.5701,-2.5693,-2.5697,-2.5683,-2.5644,0.0,-2.5383,-2.5258,-2.5149,0.0,-2.4593,-2.3701,-2.3504,-2.288,-2.1298,-2.0941,-2.053,-1.9686,-2.0218,-2.0612,-2.0547,-2.0528,-2.0448,-2.0263,-1.9466,-1.9183,-1.9541,-2.0762,-2.1488,-2.1572,-2.2901,0.0,0.0,0.0,0.0,0.0,0.0,0.0,0.0,0.0,0.0,0.0,0.0,0.0,0.0,0.0,0.0,0.0,0.0,0.0,0.0,0.0,0.0,0.0,0.0,0.0,0.0,0.0,0.0,-1.2241,-1.3422,0.0,-1.632,-1.7137,-1.7554,-1.7465,-1.7804,-1.7857,-1.7546,-1.7374,-1.7338,-1.7372,-1.7459,-1.7577,-1.7718,-1.7894,-1.8113,-1.84,-1.845,-1.8489,-1.8489,-1.8745,-1.8631,-1.8206,-1.8448,-1.8241,-1.7641,-1.7407,-1.6998,-1.6528,-1.6564,-1.6674,-1.695,-1.7954,-1.9042,-2.0145,-2.1381,-2.2421,-2.3285,-2.4019,-2.4668,-2.5191,-2.5453,-2.5537,-2.5541,-2.557,-2.5598,-2.5642,-2.5655,-2.5675,-2.5691,-2.5693,-2.5697,-2.5698,-2.5693,-2.5702,-2.5683,-2.5643,-2.5558,-2.5447,-2.5299,-2.4764,-2.4226,-2.3858,-2.3316,-2.2778,-2.2268,-2.207,-2.1824,-2.1387,-2.1536,-2.1596,-2.1459,-2.1443,-2.1392,-2.1256,-2.0981,-2.0806,-2.0816,-2.1897,-2.2404,-2.2307,-2.3271,-2.3133,0.0,0.0,0.0,0.0,0.0,0.0,0.0,0.0,0.0,0.0,0.0,0.0,0.0,0.0,0.0,0.0,0.0,0.0,0.0,0.0,0.0,0.0,0.0,0.0,0.0,0.0,-1.3187,-1.4003,-1.4973,-1.6204,-1.7915,-1.8464,-1.8875,-1.9236,-1.9519,-1.9514,-1.9169,-1.8795,-1.8576,-1.8609,-1.8554,-1.8491,-1.8441,-1.8668,-1.8846,-1.893,-1.9221,-1.94,-1.9512,-1.9942,-1.986,-1.9453,-1.9702,-1.9526,-1.904,-1.8486,-1.8199,-1.8011,-1.7303,-1.743,-1.8201,-1.9656,-2.0845,-2.2026,-2.3778,-2.4734,-2.5234,-2.5378,-2.5434,-2.5432,-2.546,-2.5467,-2.548,-2.5521,-2.5576,-2.5601,-2.5652,-2.5673,-2.5705,-2.569,-2.5703,-2.5691,-2.5703,-2.5697,-2.5702,-2.5699,-2.5654,-2.558,-2.5434,-2.4922,-2.4509,-2.4414,-2.3918,-2.3467,-2.3274,-2.3122,-2.2876,-2.2448,-2.255,-2.2589,-2.2436,-2.2356,-2.234,-2.2303,-2.2043,-2.1926,-2.1972,-2.2684,-2.3015,-2.2937,-2.2433,-2.2765,-2.3937,0.0,0.0,0.0,0.0,0.0,0.0,0.0,0.0,0.0,0.0,0.0,0.0,0.0,0.0,0.0,0.0,0.0,0.0,0.0,0.0,0.0,0.0,0.0,-1.3804,-1.4013,-1.4783,-1.588,-1.6876,-1.7936,-1.9,-1.8856,-1.9101,-2.0023,-2.0191,-2.0361,-2.0633,-2.0823,-2.0764,-2.0452,-2.0128,-1.9778,-1.9383,-1.9368,-1.9519,-1.9867,-2.0256,-2.0616,-2.0973,-2.1644,-2.1914,-2.1902,-2.2106,-2.2125,-2.1853,-2.0418,-2.0085,-2.0273,-1.8466,-1.8361,-1.9355,-2.0394,-2.1468,-2.27,-2.4771,-2.5449,-2.5418,-2.5473,-2.5414,-2.5303,-2.5382,-2.5406,-2.5406,-2.5395,-2.5498,-2.5593,-2.5595,-2.5664,-2.5723,-2.5703,-2.5718,-2.5726,-2.5704,-2.5709,-2.5701,-2.5703,-2.5699,-2.5685,-2.5615,-2.5601,-2.5565,-2.5437,-2.5395,0.0,-2.4244,-2.4024,-2.3618,-2.2765,-2.319,-2.3506,-2.3442,-2.3321,-2.3273,-2.3344,-2.2619,-2.2415,-2.2938,-2.3151,-2.329,-2.3397,-2.0602,-2.0807,-2.419,0.0,0.0,0.0,0.0,0.0,0.0,0.0,0.0,0.0,0.0,0.0,0.0,0.0,0.0,0.0,0.0,0.0,0.0,0.0,0.0,0.0,0.0,-1.7716,-1.5114,-1.6686,-1.8146,-1.8214,-1.9197,-2.031,-2.1498,-2.1309,-2.1453,-2.2253,-2.2048,-2.1891,-2.1902,-2.1599,-2.1399,-2.1336,-2.1054,-2.0879,-2.0815,-2.0799,-2.0876,-2.1054,-2.1496,-2.1876,-2.2164,-2.2514,-2.2428,-2.1987,-2.2073,-2.1779,-2.1155,-2.0662,-2.095,-2.1526,-1.9699,-1.9494,-2.0416,-2.2112,-2.353,-2.4706,-2.5243,-2.5425,-2.5401,-2.5357,-2.5331,-2.5293,-2.5322,-2.5341,-2.5351,-2.5444,-2.5499,-2.5554,-2.5648,-2.6158,-2.6474,-2.5859,-2.617,-2.647,-2.5834,-2.569,-2.5703,-2.5709,-2.5703,-2.5698,-2.5685,-2.5634,-2.5593,-2.5552,-2.5504,0.0,-2.5143,-2.5031,-2.4859,-2.4524,-2.4587,-2.4607,-2.4506,-2.445,-2.4417,-2.4398,-2.419,-2.411,-2.426,-2.4188,-2.4008,-2.3692,-2.2885,-2.2946,0.0,0.0,0.0,0.0,0.0,0.0,0.0,0.0,0.0,0.0,0.0,0.0,0.0,0.0,0.0,0.0,0.0,0.0,0.0,0.0,0.0,0.0,-2.152,-2.1033,-1.9583,-2.0439,-2.1332,-2.1541,-2.2012,-2.2748,-2.3908,-2.3436,-2.3289,-2.3845,-2.3447,-2.3067,-2.279,-2.2231,-2.1989,-2.2141,-2.1928,-2.1877,-2.201,-2.2004,-2.2106,-2.2337,-2.2688,-2.3079,-2.3483,-2.3829,-2.3814,-2.3463,-2.3474,-2.3185,-2.2668,-2.2158,-2.2367,0.0,0.0,0.0,0.0,0.0,-2.4575,-2.55,-2.5459,-2.5395,-2.5303,-2.5274,-2.5253,-2.5253,-2.5253,-2.5262,-2.5283,-2.5348,-2.5449,-2.5506,-2.5562,-2.5999,-2.6283,-2.5784,-2.6041,-2.6283,-2.5808,-2.5697,-2.5707,-2.5703,-2.5697,0.0,-2.5697,-2.5666,-2.5629,-2.5605,-2.5576,-2.5532,-2.5504,-2.5467,-2.5406,-2.5321,-2.5216,-2.5122,-2.5022,-2.4949,0.0,0.0,0.0,-2.4915,-2.4893,-2.4607,0.0,0.0,0.0,-2.3976,-2.3976,0.0,0.0,0.0,-2.3891,-2.3612,0.0,0.0,0.0,0.0,0.0,0.0,0.0,0.0,0.0,0.0,0.0,0.0,0.0,0.0,0.0,0.0,-2.4479,-2.4839,-2.5522,-2.4839,-2.451,-2.5141,-2.4933,-2.5063,-2.5895,-2.5177,-2.4688,-2.4823,-2.4438,-2.3962,-2.3496,0.0,0.0,0.0,0.0,-2.2794,-2.3021,-2.2998,-2.3235,-2.376,-2.3859,-2.426,-2.4924,-2.5239,-2.5477,-2.5642,-2.5492,-2.5398,-2.5286,-2.4311,-2.4045,-2.4098,-2.2644,-2.2694,-2.3656,-2.4247,-2.4893,-2.5492,-2.5476,0.0,0.0,-2.5222,-2.5214,-2.5214,-2.5224,-2.5224,-2.5203,-2.5231,-2.5359,-2.549,-2.5421,-2.5641,-2.5829,-2.5644,-2.5819,-2.5965,-2.5742,-2.5769,-2.5821,-2.5728,-2.5693,-2.5698,-2.5702,-2.5709,-2.5671,-2.5613,-2.5609,-2.5593,-2.5532,-2.5515,-2.551,-2.551,0.0,0.0,-2.5235,-2.5069,-2.5005,-2.5141,-2.5145,-2.5094,-2.4987,-2.4651,-2.4458,-2.4441,-2.4321,-2.4266,-2.4266,-2.4266,-2.4247,-2.4209,-2.3692,-2.3455,0.0,0.0,0.0,0.0,0.0,0.0,0.0,0.0,0.0,0.0,0.0,0.0,0.0,0.0,0.0,-2.6572,-2.6924,-2.7294,-2.8083,-2.8676,-2.8436,-2.6727,-2.6699,-2.6564,-2.591,-2.6037,-2.5868,-2.5092,-2.4874,-2.4682,-2.4521,-2.3941,-2.3632,-2.3674,-2.3744,-2.3803,-2.3877,-2.4008,-2.452,-2.5344,0.0,0.0,-2.6206,-2.5537,-2.5729,-2.6513,-2.5857,-2.5859,-2.6269,-2.5545,-2.5165,-2.4975,-2.4084,-2.4128,-2.4716,-2.4832,-2.5111,-2.5402,-2.5293,-2.5231,-2.522,-2.5332,-2.536,-2.5378,-2.5434,-2.5374,0.0,-2.5357,-2.5393,-2.5429,-2.5403,-2.6495,-2.7284,-2.5924,-2.7161,-2.8106,-2.6058,-2.6162,-2.6481,-2.5822,-2.57,-2.5703,-2.5701,-2.57,-2.5697,-2.5683,-2.5681,-2.5679,-2.5654,-2.5609,-2.5589,-2.5589,-2.549,-2.5447,-2.5447,-2.542,-2.5406,-2.542,-2.5379,-2.5236,-2.5018,-2.4936,-2.4814,-2.4651,-2.4626,-2.4613,-2.4613,-2.4613,-2.4512,-2.4355,-2.3921,-2.3714,0.0,0.0,0.0,0.0,0.0,0.0,0.0,0.0,0.0,0.0,0.0,-2.6832,0.0,0.0,-2.7983,-2.8424,-2.8883,-2.9346,-2.9743,-3.0227,-3.0075,-2.8788,-2.833,-2.806,-2.791,-2.7102,-2.6532,-2.6355,-2.5851,-2.5316,-2.4843,-2.5074,-2.5095,-2.4855,-2.5415,-2.5753,-2.5841,-2.5955,-2.6271,-2.6792,-2.6318,-2.6281,-2.6583,-2.6102,-2.5997,-2.6122,-2.5691,-2.568,-2.5916,-2.5551,-2.5394,-2.536,-2.496,-2.4936,-2.5143,-2.5113,-2.5256,-2.5428,-2.5293,-2.5231,-2.5198,-2.5282,-2.5302,-2.5312,-2.5341,-2.5293,-2.5243,-2.5244,-2.5322,-2.5483,-2.585,-2.6707,-2.7362,-2.6948,-2.7821,-2.8295,-2.6612,-2.6599,-2.6659,-2.5854,-2.5703,-2.5702,-2.5697,-2.5696,-2.5696,-2.5709,-2.5707,-2.5707,-2.5707,-2.5676,-2.5648,-2.5648,-2.5593,-2.5554,-2.5547,-2.5521,-2.5504,-2.5504,-2.5444,-2.5329,-2.5166,-2.5096,-2.4962,-2.4799,-2.4775,-2.4731,-2.4707,-2.4707,-2.4864,-2.5138,-2.4947,-2.4579,0.0,0.0,0.0,0.0,0.0,0.0,0.0,0.0,-2.6537,-2.5949,-2.7748,-2.9255,-2.8789,-2.9939,-3.0827,-3.0331,-3.0654,-3.0969,-3.0969,-3.0814,-3.0576,-3.0237,-2.9552,-2.9302,-2.9732,-2.8049,-2.7132,-2.7647,-2.683,-2.6049,-2.5448,-2.628,-2.6594,-2.6193,-2.7018,-2.7523,-2.7656,-2.7656,-2.7783,-2.803,-2.7669,-2.729,-2.6829,-2.6646,-2.6343,-2.5954,-2.5896,-2.5742,-2.557,-2.5493,-2.5473,-2.5518,-2.564,-2.5635,-2.5532,-2.5305,-2.5439,-2.5667,-2.5389,-2.5357,-2.5417,-2.5264,-2.5225,-2.5244,-2.5439,-2.5362,-2.5271,-2.5562,-2.5606,-2.5765,-2.6561,-2.7007,-2.7381,-2.7958,-2.8342,-2.8327,-2.7346,-2.7137,-2.6908,-2.6113,-2.582,-2.5701,-2.5707,-2.5703,-2.5703,-2.5701,-2.5707,-2.5709,-2.5701,-2.5707,-2.5691,-2.5691,-2.565,-2.562,-2.5616,-2.5561,-2.5532,-2.5521,-2.5479,-2.5403,-2.5332,-2.5236,-2.5187,-2.5253,-2.5197,-2.5208,-2.5319,-2.5319,-2.563,-2.6223,-2.6284,-2.5819,-2.1418,-2.1554,-2.223,-2.5271,-2.4577,-2.4087,0.0,0.0,-2.7807,-2.7717,-2.9191,-3.0498,-3.0433,-3.1242,-3.2163,-3.285,-3.2394,-3.1943,-3.1934,-3.1226,-3.038,-2.9524,-2.9951,-2.996,-2.9104,-2.8474,-2.8072,-2.7973,-2.7191,-2.7006,-2.7618,-2.7637,-2.7624,-2.758,-2.786,-2.7958,-2.7875,-2.7875,-2.8202,-2.8854,-2.8001,-2.7625,-2.7638,-2.6806,-2.686,-2.7634,-2.7557,-2.715,-2.6541,-2.6468,-2.6069,-2.5583,-2.6348,-2.6598,-2.6444,-2.5593,-2.5795,-2.6369,-2.551,-2.5681,-2.6159,-2.5512,-2.5293,-2.5447,-2.6283,-2.5938,-2.559,-2.7075,-2.6918,-2.6504,-2.7424,-2.8247,-2.8705,-2.8133,-2.9191,-2.9881,-2.8311,-2.8008,-2.7822,-2.7012,-2.6226,-2.5705,-2.5707,-2.5701,-2.5697,-2.5707,-2.5703,-2.5693,-2.5694,-2.5705,-2.5699,-2.5699,-2.5693,-2.5685,-2.5683,-2.5681,-2.5648,-2.5598,-2.5589,-2.5542,-2.5486,-2.546,-2.5774,-2.6489,-2.6483,-2.6843,-2.7547,-2.7547,-2.75,-2.7414,-2.7588,-2.7402,-2.1787,-2.3203,0.0,0.0,-2.7192,-2.8457,-2.922,-3.026,-3.0808,-2.9771,-3.1387,-3.2825,-3.2352,-3.3414,-3.3981,0.0,-3.277,-3.25,-3.1487,-3.0945,-3.0315,-2.946,-2.9999,-3.0075,-2.9102,-2.7897,-2.7702,-2.8947,-2.7891,-2.7335,-2.7637,-2.823,-2.8144,-2.7257,-2.8255,-2.8766,-2.8725,-2.9175,-2.9564,-2.9877,-2.944,-2.8975,-2.8541,-2.8145,-2.7934,-2.7838,-2.7773,-2.7599,-2.7334,-2.7354,-2.6931,-2.6398,-2.7266,-2.7244,-2.6633,-2.6137,-2.6529,-2.7219,-2.6664,-2.6454,-2.6369,-2.6098,-2.5668,-2.538,-2.5807,-2.6028,-2.6244,-2.6911,-2.7159,-2.7437,-2.8364,-2.8856,-2.9166,-2.9438,-3.0072,-3.0285,-2.9102,-2.8517,-2.7952,-2.7168,-2.6711,-2.644,-2.6407,-2.6817,-2.6974,-2.6411,-2.5931,-2.5639,-2.564,-2.5685,-2.5701,-2.5703,-2.6145,-2.6466,-2.6466,-2.6456,-2.6652,-2.7136,-2.6663,-2.6551,-2.6985,-2.7016,-2.7142,-2.7439,-2.7458,-2.76,-2.7894,-2.7894,-2.8125,-2.8522,-2.8627,-2.8805,-2.3198,0.0,0.0,-2.731,-2.9746,-3.1984,-3.161,-3.279,-3.3677,-3.2644,-3.3585,-3.4355,-3.3524,-3.4429,-3.4661,-3.2773,-3.279,-3.2684,-3.1655,-3.1008,-3.0322,-2.9524,-3.0034,-3.0123,-2.9274,-2.7926,-2.7807,-2.9486,-2.8568,-2.7824,-2.7538,-2.8799,-2.891,-2.7565,-2.8943,-2.9827,-3.0037,-3.0622,-3.1028,-3.1235,-3.0945,-3.0355,-2.9516,-2.9506,-2.9156,-2.8541,-2.8741,-2.8711,-2.8559,-2.8616,-2.808,-2.7324,-2.8166,-2.8057,-2.7362,-2.7075,-2.7465,-2.8052,-2.7561,-2.7262,-2.7019,-2.6636,-2.611,-2.5688,-2.602,-2.6373,-2.6809,-2.746,-2.7884,-2.8364,-2.9312,-2.9513,-2.9648,-3.0424,-3.0615,-3.0471,-2.9874,-2.9133,-2.8412,-2.7829,-2.751,-2.7312,-2.7279,-2.7772,-2.7855,-2.6915,-2.6281,-2.5837,-2.56,-2.5835,-2.613,-2.6358,-2.696,-2.7368,-2.7364,-2.7358,-2.7636,-2.8261,-2.7636,-2.7518,-2.8096,-2.8159,-2.824,-2.8404,-2.8404,-2.8515,-2.8706,-2.8675,-2.898,-2.9592,-2.9611,-2.9912,0.0,0.0,-2.7709,-3.1053,-3.1945,-3.2856,-3.6118,-3.6221,-3.5846,-3.6654,-3.5632,-3.4335,-3.347,-3.3392,-3.3455,-3.3369,-3.2677,-3.2415,-3.3212,-3.1812,-3.0403,-2.9581,-3.0152,-3.0282,0.0,-2.911,-2.8985,-2.9109,-2.9089,-2.8683,-2.7822,-2.9614,-3.0242,-2.9341,-3.0245,-3.1138,-3.1914,-3.1934,-3.2355,-3.3114,-3.2264,-3.1397,-3.0549,-3.0547,-3.0466,-3.0375,-3.1271,-3.1196,-3.042,-3.0494,-2.9561,-2.8137,-2.8945,-2.9211,-2.9074,-2.8616,-2.8631,-2.8725,-2.7732,-2.8023,-2.8574,-2.702,-2.6486,-2.666,-2.7612,-2.7303,-2.7123,-2.9592,-2.9682,-2.9271,-3.0207,-3.04,-3.04,-3.0559,-3.0649,-3.0695,-3.0681,-3.0071,-2.9552,-2.953,-2.8793,-2.8167,-2.8165,-2.8138,-2.7776,-2.6837,-2.6734,-2.6451,-2.5615,-2.6305,-2.7199,-2.8028,-2.8212,-2.8255,-2.8264,-2.8257,-2.8261,-2.83,-2.8201,-2.8178,-2.8198,-2.8258,-2.8652,-2.9432,-2.9449,-2.9873,-3.0718,-3.0642,-3.0603,-3.0562,-3.062,-3.0563,0.0,0.0,-3.1511,-3.3369,-3.5054,-3.6711,-3.8479,-3.8199,-3.7329,-3.6504,-3.4992,-3.3542,-3.2661,-3.253,-3.2343,-3.1776,-3.2396,-3.2663,-3.1797,-3.2115,-3.1695,-2.9731,-3.0661,0.0,0.0,0.0,0.0,-3.0102,-3.0157,-3.0042,-2.98,-3.0957,-3.123,-3.0366,-3.1209,-3.1791,-3.2056,-3.201,-3.2435,-3.3262,-3.2338,-3.2038,-3.2305,-3.1676,-3.1696,-3.2181,-3.1915,-3.1661,-3.1383,-3.0827,-2.999,-2.9101,-2.9865,-2.9763,-2.9201,-2.9265,-2.9486,-2.9684,-2.9066,-2.8881,-2.8836,-2.8413,-2.7933,-2.7583,-2.801,-2.8314,-2.8689,-2.9513,-2.9873,-3.0102,-3.0462,-3.049,-3.0439,-3.0579,-3.0645,-3.0691,-3.0706,-3.0126,-2.9595,-2.9609,-2.9306,-2.9041,-2.8993,-2.9425,-2.9457,-2.8554,-2.7005,-2.6064,-2.6386,-2.6709,-2.7259,-2.8166,-2.8802,-2.9153,-2.9162,-2.9153,-2.9394,-2.9921,-2.9384,-2.9316,-2.9904,-2.9951,-3.0095,-3.035,-3.0366,-3.0517,-3.0801,-3.0771,-3.0742,-3.0751,-3.1358,-3.1587,-2.8729,-3.1387,-3.4443,-3.5731,-3.748,-3.9052,-3.9657,-3.8875,-3.7555,-3.5875,-3.3895,-3.2129,-3.0958,-3.0461,-3.0253,-3.0331,-3.0758,-3.1223,-3.1669,-3.2118,-3.2157,-3.1434,-3.201,-3.2279,0.0,0.0,0.0,-3.0745,-3.1307,-3.1404,-3.0827,-3.1919,-3.2178,-3.1289,-3.2109,-3.271,-3.3027,-3.2989,-3.3251,-3.3797,-3.2859,-3.2547,-3.275,-3.2175,-3.2205,-3.2682,-3.2472,-3.2217,-3.1894,-3.1328,-3.064,-2.9974,-3.0366,-3.0168,-2.9659,-2.9742,-2.9958,-3.0142,-2.9734,-2.9512,-2.9346,-2.9245,-2.8848,-2.8465,-2.8626,-2.904,-2.9512,-2.9784,-3.0195,-3.0559,-3.0588,-3.054,-3.049,-3.0588,-3.0643,-3.0703,-3.0691,-3.0367,-3.0056,-3.0063,-2.9994,-2.9912,-2.9863,-3.0008,-2.9949,-2.9375,-2.7633,-2.6722,-2.764,-2.7779,-2.8139,-2.9066,-2.9672,-3.0038,-3.0057,-3.0035,-3.0254,-3.0778,-3.027,-3.0209,-3.0778,-3.0791,-3.0806,-3.0797,-3.08,-3.08,-3.08,-3.0796,-3.0969,-3.1283,-3.1848,-3.2244,-3.1737,-3.4087,-3.6404,-3.8132,-3.9197,-3.9777,-3.9731,-3.8322,-3.6539,-3.4899,-3.245,-3.0118,0.0,0.0,-2.7538,-2.9226,-2.822,-2.8686,-3.2819,-3.2087,-3.2012,0.0,0.0,0.0,0.0,0.0,0.0,-3.1244,0.0,-3.2824,-3.1211,-3.269,-3.3224,-3.2398,-3.3125,-3.3939,-3.4764,-3.4764,-3.4744,-3.4688,-3.3861,-3.3019,-3.2202,-3.2226,-3.2226,-3.2243,-3.3085,-3.2922,-3.207,-3.207,-3.1526,-3.0667,-3.0517,-3.0472,-3.0433,-3.0022,-3.0019,-3.0128,-2.9734,-2.9853,-3.0106,-2.9515,-2.9331,-2.9367,-2.958,-2.9594,-2.97,-3.0477,-3.0657,-3.0598,-3.0598,-3.0617,-3.0617,-3.0617,-3.0656,-3.072,-3.0704,-3.0806,-3.0895,-3.0898,-3.0789,-3.0703,-3.0711,-2.9921,-2.933,-2.9425,-2.8698,-2.8427,-2.9209,-2.9353,-2.9737,-3.0594,-3.0799,-3.0876,-3.0894,-3.0878,-3.0856,-3.0797,-3.0801,-3.0823,-3.0857,-3.0871,-3.0899,-3.0938,-3.0938,-3.0927,-3.093,-3.0934,-3.1366,-3.2166,-3.2211,-3.2641,-3.37,-3.6323,-3.8824,-3.9349,-3.9594,-3.956,-3.8963,-3.6482,-3.3992,-3.2914,-3.0127,-2.7748,0.0,0.0,0.0,-2.9334,-3.0758,0.0,-3.3231,-3.4683,0.0,-3.4783,0.0,-3.6157,-3.5951,-3.6103,0.0,0.0,-3.5308,-3.527,-3.5485,-3.5956,-3.6149,-3.5976,-3.5566,-3.5444,-3.5662,-3.5662,-3.5337,-3.4703,-3.4471,-3.4589,-3.4961,-3.4322,-3.4354,-3.4886,-3.4472,-3.3784,-3.2956,-3.2868,-3.1918,-3.0607,-3.1041,-3.0854,-3.0309,-2.9832,-2.9803,-2.9937,-2.9681,-2.9853,-3.0297,-3.0934,-3.1139,-3.1157,-3.1376,-3.139,-3.1261,-3.0886,-3.0684,-3.0617,-3.0656,-3.0675,-3.0675,-3.0675,-3.0733,-3.0768,-3.0773,-3.0837,-3.0903,-3.0896,-3.0821,-3.0737,-3.0646,-2.9931,-2.9805,-3.1051,-3.0498,-2.979,-2.9419,-2.9395,-2.9705,-3.0532,-3.1262,-3.1432,-3.0804,-3.1374,-3.1484,-3.0836,-3.0799,-3.1086,-3.1744,-3.1763,-3.208,-3.2727,-3.2744,-3.2736,-3.2742,-3.2731,-3.286,-3.3083,-3.373,-3.4157,-3.6443,-3.8459,-4.0276,-4.0818,-4.0343,-3.9324,-3.7713,-3.5236,-3.2701,-3.0739,-2.8474,0.0,0.0,0.0,0.0,0.0,0.0,0.0,-3.3139,-3.4999,-3.6211,0.0,-3.7196,0.0,-3.8163,-3.7912,-3.8024,0.0,-3.7644,-3.7139,-3.7566,-3.7663,-3.7572,-3.7214,-3.7144,-3.7108,-3.7107,-3.6716,-3.6288,-3.5781,-3.5056,-3.4954,-3.5396,-3.453,-3.4382,-3.4753,0.0,-3.3173,-3.272,-3.255,-3.1719,-3.0606,-3.1264,-3.0948,-3.0125,-2.9851,-2.9734,-2.9808,-3.0039,-3.0351,-3.0767,-3.1551,-3.1806,-3.1844,-3.2038,-3.2044,-3.1748,-3.0562,-3.0436,-3.0651,-3.0688,-3.0695,-3.08,-3.1188,-3.1036,-3.0808,-3.0807,-3.0849,-3.0892,-3.0853,-3.1436,-3.1786,-3.1297,-3.1164,-3.1429,-3.2377,-3.2094,-3.1615,-3.1165,-3.072,-3.0635,-3.1127,-3.1331,-3.1265,-3.0817,-3.1589,-3.1738,-3.0856,-3.1526,-3.1998,-3.2097,-3.2467,-3.2904,-3.3389,-3.3398,-3.3402,-3.3404,-3.3406,-3.3607,-3.3982,-3.4473,-3.4901,-3.9345,-4.0363,-4.1064,-4.1945,-4.0792,-3.876,-3.615,-3.3978,-3.1663,-2.8647,0.0,-2.6301,-2.5788,-2.5166,-2.5565,-2.8065,0.0,-2.8922,-3.2984,-3.4394,-3.5878,-3.8217,-3.8684,-3.942,-4.0952,-3.9687,-3.9382,-4.087,-3.9599,-3.8697,-3.8578,-3.8575,-3.8179,-3.7308,-3.808,-3.8496,-3.8508,-3.7745,-3.7354,-3.7331,-3.577,-3.5014,-3.4991,-3.4121,-3.3716,-3.3677,-3.2869,-3.2441,-3.2331,-3.2242,-3.169,-3.0936,-3.1463,-3.1116,-3.0314,-2.9994,-2.992,-3.0058,-3.0621,-3.1054,-3.1445,-3.1908,-3.2076,-3.2126,-3.2208,-3.2188,-3.18,-3.0121,-3.0173,-3.0736,-3.0867,-3.0806,-3.0942,-3.1824,-3.1495,-3.0986,-3.0986,-3.1024,-3.1094,-3.1133,-3.2279,-3.3009,-3.2304,-3.2811,-3.3358,-3.3458,-3.348,-3.351,-3.3619,-3.2673,-3.2009,-3.2078,-3.1455,-3.109,-3.1217,-3.1869,-3.1953,-3.1188,-3.2558,-3.3113,-3.2472,-3.3175,-3.3634,-3.3747,-3.3866,-3.3866,-3.3749,-3.3867,-3.4258,-3.4863,-3.4861,-3.5289,-4.0996,-4.1589,-4.1583,-4.1102,-3.9238,-3.6825,-3.426,-3.1236,0.0,0.0,0.0,-2.492,-2.5512,-2.6129,0.0,-2.906,0.0,0.0,0.0,0.0,-3.7103,0.0,0.0,0.0,0.0,0.0,0.0,0.0,0.0,-4.0552,-4.052,-3.9844,-3.9111,-3.8277,-3.8418,-3.849,-3.8506,-3.8302,-3.8186,-3.8181,-3.7175,-3.6677,-3.6654,-3.5784,-3.5387,-3.5368,-3.5205,0.0,-3.4117,-3.464,-3.387,-3.2417,-3.2483,-3.2344,-3.1952,-3.0278,-3.0619,-3.1823,-3.113,-3.1468,-3.2326,-3.3181,-3.3555,-3.3588,-3.3016,-3.2878,-3.2571,-3.0942,-3.0633,-3.0949,-3.1672,-3.1365,-3.1092,-3.1951,-3.2065,-3.1963,-3.1963,-3.1971,-3.2168,-3.2812,-3.2653,-3.2541,-3.3009,-3.3253,-3.3612,-3.4277,-3.4374,-3.4613,-3.5274,-3.3957,-3.2962,-3.2978,-3.2907,-3.2869,-3.2887,-3.3058,-3.3102,-3.2964,-3.3223,-3.3657,-3.4225,-3.4381,-3.4803,-3.5523,-3.6267,-3.6268,-3.5545,-3.6269,-3.6328,-3.5778,-3.5779,-3.5854,-4.155,-4.2028,-4.1757,-4.0737,-3.8563,-3.5944,-3.3112,0.0,0.0,0.0,0.0,-2.5067,-2.5558,0.0,0.0,0.0,0.0,0.0,0.0,0.0,0.0,0.0,0.0,0.0,0.0,0.0,0.0,0.0,0.0,-4.092,-4.0903,-4.0135,-3.9754,-3.9856,-3.9418,-3.938,-3.9799,-3.9321,-3.9059,-3.9011,-3.814,-3.7728,-3.7702,-3.6867,-3.6479,-3.644,-3.5521,-3.4891,-3.4505,-3.4646,-3.3987,-3.282,-3.2664,-3.2523,-3.2272,-3.09,-3.1166,-3.2241,-3.2183,-3.2562,-3.3219,-3.4087,-3.4263,-3.3955,-3.3216,-3.3016,-3.2617,-3.0549,-3.0672,-3.141,-3.1424,-3.1504,-3.168,-3.2109,-3.2207,-3.2305,-3.2734,-3.3184,-3.3476,-3.3418,-3.3828,-3.4139,-3.3994,-3.4404,-3.4871,-3.5214,-3.5311,-3.5467,-3.5856,-3.5142,-3.4417,-3.3918,-3.3531,-3.3315,-3.3345,-3.3802,-3.3885,-3.3422,-3.4218,-3.4706,-3.4693,-3.5142,-3.5797,-3.6658,-3.7087,-3.732,-3.7359,-3.777,-3.7768,-3.735,-3.7352,-3.735,-4.1359,-4.2068,-4.1912,-4.0289,-3.7958,-3.5259,-3.2116,-2.9487,0.0,0.0,-2.5507,-2.5538,-2.5683,0.0,0.0,0.0,0.0,0.0,0.0,0.0,0.0,0.0,0.0,0.0,0.0,0.0,0.0,0.0,0.0,0.0,-4.0836,-4.0264,-4.0308,-4.1074,-4.0389,-4.0331,-4.0996,-4.0291,-3.9915,-3.9859,-3.8976,-3.8559,-3.852,-3.7511,-3.7055,-3.6968,-3.5418,-3.4768,-3.4738,-3.443,-3.3953,-3.3365,-3.2947,-3.2819,-3.2749,-3.1729,-3.1956,-3.2826,-3.322,-3.3677,-3.416,-3.4755,-3.4677,-3.4191,-3.3439,-3.3214,-3.2801,-3.0696,-3.1126,-3.2133,-3.1713,-3.2031,-3.25,-3.2695,-3.2734,-3.2969,-3.3789,-3.4355,-3.4492,-3.3809,-3.476,-3.5474,-3.472,-3.5363,-3.6025,-3.615,-3.6222,-3.6264,-3.6264,-3.6367,-3.6096,-3.5178,-3.4188,-3.3672,-3.3916,-3.4413,-3.4488,-3.3971,-3.5174,-3.5692,-3.5245,-3.5893,-3.668,-3.7543,-3.7734,-3.8082,-3.8593,-3.8785,-3.8788,-3.8578,-3.858,-3.858,-4.0232,-4.1705,-4.2288,-3.9223,-3.6765,-3.4173,-3.0901,0.0,0.0,-2.5683,-2.5507,-2.5531,-2.5677,-2.5703,0.0,0.0,0.0,0.0,0.0,0.0,0.0,0.0,0.0,0.0,0.0,0.0,0.0,0.0,0.0,0.0,-4.089,-4.0834,-4.09,-4.1094,-4.0852,-4.0801,-4.0996,-4.0791,-4.0701,-4.0682,-3.9813,-3.9383,-3.9325,-3.7669,-3.6914,-3.6875,-3.5985,0.0,0.0,-3.5425,-3.5243,-3.499,-3.4114,-3.4175,-3.4546,-3.2826,-3.3382,-3.4864,-3.392,-3.4306,-3.524,-3.5203,-3.5152,-3.4939,-3.4148,-3.3949,-3.3808,-3.2899,-3.2813,-3.3179,-3.403,-3.3766,-3.3496,-3.4277,-3.4473,-3.4707,-3.5566,-3.5195,-3.4687,-3.4609,-3.4661,-3.469,-3.461,-3.533,-3.6188,-3.6955,-3.7082,-3.7084,-3.7084,-3.7787,-3.793,-3.705,-3.5462,-3.4795,-3.5605,-3.5068,-3.4989,-3.563,-3.5817,-3.6226,-3.6937,-3.7058,-3.7498,-3.8377,-3.9166,-3.9253,-3.8593,-3.939,-3.9342,-3.8513,-3.8515,-3.8515,-3.7978,-4.008,-4.116,-3.8037,-3.5529,-3.3128,-3.049,0.0,0.0,-2.5459,-2.5414,-2.5469,-2.562,-2.5633,-2.5775,0.0,0.0,0.0,0.0,0.0,0.0,0.0,0.0,0.0,0.0,0.0,0.0,0.0,0.0,0.0,-4.0905,-4.0901,-4.0929,-4.0979,-4.0906,-4.0859,-4.0869,-4.0828,-4.0807,-4.0807,-4.0459,-4.0273,-4.0211,-3.8481,-3.7677,-3.7618,-3.6284,-3.5704,0.0,-3.5476,-3.536,-3.5189,-3.4173,-3.4279,-3.485,-3.3688,-3.412,-3.524,-3.487,-3.5014,-3.5391,-3.534,-3.527,-3.5057,-3.4235,-3.4055,-3.3949,-3.3215,-3.3426,-3.3867,-3.3837,-3.3614,-3.3613,-3.4492,-3.4707,-3.4941,-3.5801,-3.5708,-3.5418,-3.5418,-3.5392,-3.5366,-3.5321,-3.6079,-3.6754,-3.6992,-3.7566,-3.7756,-3.7151,-3.7453,-3.7577,-3.7234,-3.6536,-3.6463,-3.7329,-3.6661,-3.6553,-3.7344,-3.7448,-3.762,-3.7968,-3.7982,-3.8391,-3.9276,-3.9628,-3.9901,-4.0109,-4.0448,-4.043,-4.0058,-4.0056,-4.0056,-3.4915,-3.7557,-3.9357,-3.6562,-3.4306,-3.2171,0.0,0.0,-2.5293,-2.5292,-2.534,-2.5421,-2.5513,-2.5566,-2.559,-2.5627,0.0,-2.6229,0.0,0.0,0.0,0.0,0.0,0.0,0.0,0.0,0.0,0.0,0.0,0.0,-4.0859,-4.0868,-4.0878,-4.0907,-4.0839,-4.0818,-4.0807,-4.0796,-4.0804,-4.0804,-4.0796,-4.0796,-4.0746,-3.9267,-3.845,-3.8121,-3.6671,-3.5916,0.0,-3.5443,-3.5345,-3.5209,-3.4425,-3.4452,-3.4925,-3.4387,-3.4649,-3.5268,-3.5364,-3.5378,-3.5378,-3.5336,-3.5285,-3.5152,-3.4827,-3.4596,-3.4455,-3.4462,-3.4801,-3.4994,-3.4178,-3.4047,-3.4269,-3.4874,-3.5031,-3.5187,-3.5813,-3.5903,-3.5805,-3.556,-3.5714,-3.578,-3.5437,-3.6362,-3.7152,-3.7209,-3.7898,-3.8136,-3.7424,-3.7442,-3.7531,-3.7521,-3.7503,-3.7737,-3.8385,-3.7917,-3.7837,-3.8383,-3.8468,-3.8608,-3.8872,-3.8885,-3.9295,-4.0174,-4.0171,-4.0485,-4.1094,-4.1108,-4.1101,-4.1101,-4.1094,-4.0957,-3.0975,-3.417,-3.6985,-3.4703,-3.3022,-3.133,0.0,0.0,-2.5225,-2.5283,-2.5313,-2.5322,-2.5398,-2.5459,-2.5507,-2.5507,-2.5603,0.0,0.0,0.0,0.0,0.0,0.0,0.0,0.0,0.0,0.0,0.0,0.0,0.0,-4.0807,-4.0788,-4.0831,-4.0907,-4.0706,-4.0668,-4.0807,-4.0808,-4.079,-4.079,-4.079,-4.079,-4.0771,-3.9894,-3.9011,-3.816,0.0,-3.6439,0.0,-3.5553,-3.5416,-3.53,-3.5136,-3.5018,-3.4908,-3.4889,-3.5016,-3.52,-3.5126,-3.5187,-3.5283,-3.5219,-3.5209,-3.5362,-3.6222,-3.5908,-3.5656,-3.7454,-3.7475,-3.6764,-3.5815,-3.5684,-3.5772,-3.5791,-3.5791,-3.5791,-3.5791,-3.5791,-3.5574,-3.4768,-3.5253,-3.5514,-3.4564,-3.5809,-3.716,-3.7874,-3.8047,-3.8102,-3.8102,-3.821,-3.8283,-3.8302,-3.8354,-3.8429,-3.85,-3.85,-3.85,-3.85,-3.85,-3.8889,-3.9747,-3.9789,-4.0196,-4.1074,-4.1099,-4.1087,-4.1107,-4.1097,-4.1104,-4.1094,-4.1095,-4.0647,-2.8232,-3.0469,-3.2371,-3.1779,-3.053,-2.9158,-2.7975,-2.6407,-2.5203,-2.5236,-2.5228,-2.5262,-2.5382,-2.5425,-2.5486,-2.5604,-2.5675,0.0,0.0,0.0,0.0,0.0,0.0,0.0,0.0,0.0,0.0,0.0,0.0,0.0,-4.0596,-4.0602,-4.0662,-4.0831,-4.0771,-4.0759,-4.0808,-4.0803,-4.0796,-4.0804,-4.0796,-4.0796,-4.0765,-3.9932,-3.9077,0.0,0.0,-3.6397,-3.554,-3.5407,-3.527,-3.5155,-3.5072,-3.502,-3.4964,-3.5018,-3.5138,-3.5281,-3.5307,-3.5366,-3.5444,-3.547,-3.547,-3.5644,-3.6459,-3.6078,-3.5479,-3.6054,-3.6105,-3.6022,-3.6228,-3.6344,-3.6428,-3.6407,-3.6501,-3.6396,-3.5843,-3.5727,-3.5669,-3.5466,-3.6105,-3.6597,-3.6298,-3.7637,-3.8782,-3.8941,-3.9482,-3.9631,-3.8945,-3.9049,-3.9198,-3.9198,-3.9283,-3.9591,-4.0154,-3.9656,-3.9578,-4.0174,-4.026,-4.0409,-4.0682,-4.0694,-4.0813,-4.1094,-4.11,-4.1105,-4.1108,-4.11,-4.1106,-4.1111,-4.1095,-4.0944,0.0,-2.7949,-2.9343,-2.9609,-2.8764,0.0,0.0,-2.6041,-2.5191,-2.5191,-2.5191,-2.5228,-2.533,-2.539,-2.5452,-2.56,-2.5615,0.0,0.0,0.0,0.0,0.0,0.0,0.0,0.0,0.0,0.0,0.0,0.0,0.0,-4.0415,-4.0415,-4.0481,-4.0612,-4.0733,-4.079,-4.079,-4.0713,-4.072,-4.0792,-4.0681,-4.0675,-4.0787,-4.0231,-3.948,0.0,-3.8094,-3.7127,0.0,-3.5859,-3.5576,-3.5157,-3.5126,-3.5073,-3.5038,-3.5072,-3.5141,-3.5239,-3.5325,-3.5393,-3.5444,-3.5566,-3.582,-3.6079,-3.6292,-3.6588,-3.6722,-3.6067,-3.6142,-3.6339,-3.6102,-3.6109,-3.6278,-3.6656,-3.655,-3.6339,-3.6187,-3.5901,-3.5708,-3.5757,-3.6234,-3.674,-3.7008,-3.8197,-3.918,-3.9383,-3.9862,-3.9973,-3.9359,-3.9185,-3.9237,-3.9548,-3.9726,-4.0143,-4.096,-4.0532,-4.0454,-4.0999,-4.1078,-4.111,-4.111,-4.111,-4.1103,-4.1091,-4.1103,-4.1103,-4.1091,-4.1103,-4.1097,-4.1095,-4.1095,-4.11,0.0,0.0,0.0,0.0,0.0,0.0,0.0,-2.5746,0.0,-2.5191,-2.5191,-2.5206,-2.5284,-2.5357,-2.5418,-2.5492,0.0,0.0,0.0,0.0,0.0,0.0,0.0,0.0,0.0,0.0,0.0,0.0,0.0,0.0,-4.0247,-4.0247,-4.0247,-4.0264,-4.0564,-4.0746,-4.0778,-4.0593,-4.0593,-4.0778,-4.0469,-4.0492,-4.0776,-4.0674,-4.0166,0.0,-3.9398,-3.8395,-3.6781,-3.6781,-3.6247,-3.5468,-3.5468,-3.5365,-3.5188,-3.5205,-3.5148,-3.5126,-3.5273,-3.5325,-3.5366,-3.5566,-3.6121,-3.6605,-3.5919,-3.7313,-3.878,-3.7088,-3.7147,-3.7306,-3.5615,-3.5283,-3.5637,-3.6617,-3.6273,-3.5913,-3.6714,-3.6328,-3.5776,-3.5736,-3.5859,-3.6228,-3.6977,-3.7812,-3.8656,-3.9387,-3.9499,-3.9487,-3.9487,-3.886,-3.8721,-3.9604,-3.9765,-4.0156,-4.1033,-4.111,-4.111,-4.111,-4.111,-4.111,-4.111,-4.111,-4.111,-4.111,-4.1169,-4.1188,-4.1188,-4.1247,-4.1253,-4.1192,-4.1192,-4.1159,-2.4172,0.0,-2.4358,-2.5305,-2.5405,0.0,0.0,0.0,0.0,0.0,0.0,0.0,0.0,0.0,0.0,0.0,0.0,0.0,0.0,0.0,0.0,0.0,0.0,0.0,0.0,0.0,0.0,0.0,0.0,-3.9632,-3.969,-3.969,-3.9738,-3.9848,-3.9908,-4.0118,-4.0504,-4.0454,-4.0454,-4.0504,-4.0473,-4.0511,-4.0662,-4.0711,-4.0246,-3.9398,-3.9391,-3.8684,-3.7526,-3.7491,-3.7292,-3.7069,-3.7106,-3.6705,-3.6115,-3.616,-3.5783,-3.5273,-3.5419,-3.5527,-3.5631,-3.5779,-3.5954,-3.6183,-3.6627,-3.7055,-3.7135,-3.5949,-3.5729,-3.5851,-3.6005,-3.608,-3.6358,-3.7194,-3.7456,-3.7382,-3.6914,-3.6809,-3.6584,-3.5963,-3.6378,-3.7105,-3.8001,-3.8785,-3.9577,-4.0413,-4.0455,-4.0397,-4.0397,-3.9751,-3.9625,-4.0499,-4.0116,-4.0156,-4.1033,-4.111,-4.111,-4.111,-4.111,-4.111,-4.111,-4.111,-4.111,-4.111,-4.1695,-4.2026,-4.2026,-4.2689,-4.2695,-4.2089,-4.2089,-4.173,-2.3088,-2.3327,-2.3732,-2.45,-2.4626,-2.4639,0.0,0.0,0.0,0.0,0.0,0.0,0.0,0.0,0.0,0.0,0.0,0.0,0.0,0.0,0.0,0.0,0.0,0.0,0.0,0.0,0.0,0.0,0.0,-3.9383,-3.9414,-3.9396,-3.9427,-3.951,-3.951,-3.9694,-4.0081,-4.0138,-4.0212,-4.0264,-4.0304,-4.0406,-4.0596,-4.0674,-4.0447,-3.9997,-4.001,-3.9411,-3.8438,-3.8338,-3.8057,-3.7603,-3.7277,-3.7118,-3.699,-3.6266,-3.6007,-3.5997,-3.5676,-3.5687,-3.5806,-3.5872,-3.5897,-3.5986,-3.6417,-3.6472,-3.6338,-3.6126,-3.599,-3.5887,-3.5889,-3.5895,-3.6217,-3.7526,-3.7679,-3.7662,-3.8055,-3.7933,-3.75,-3.667,-3.684,-3.7317,-3.7818,-3.8565,-3.9393,-4.0268,-4.0645,-4.0852,-4.0874,-4.052,-4.0437,-4.0933,-4.0628,-4.0582,-4.1051,-4.1091,-4.1095,-4.1091,-4.111,-4.111,-4.111,-4.111,-4.111,-4.111,-4.1539,-4.1929,-4.2299,-4.2396,-4.2422,-4.2382,-4.1992,-4.1769,-2.2002,-2.2904,-2.4082,-2.4391,-2.4433,-2.4491,0.0,0.0,0.0,0.0,0.0,0.0,0.0,0.0,0.0,0.0,0.0,0.0,0.0,0.0,0.0,0.0,0.0,0.0,0.0,0.0,0.0,0.0,0.0,-3.929,-3.9219,-3.9192,-3.9192,-3.9192,-3.9192,-3.932,-3.9566,-3.9735,-3.9882,-4.0043,-4.006,-4.0194,-4.0381,-4.0524,-4.0455,-4.0282,0.0,0.0,-3.9173,-3.9197,-3.8763,-3.8037,-3.7349,-3.7412,-3.7704,-3.6323,-3.6183,-3.6596,-3.5957,-3.5801,-3.5908,-3.5903,-3.5903,-3.5908,-3.5903,-3.5903,-3.6027,-3.6662,-3.6693,-3.6363,-3.5603,-3.5374,-3.582,-3.7676,-3.7623,-3.7626,-3.934,-3.9189,-3.8444,-3.7561,-3.7394,-3.7444,-3.757,-3.8207,-3.8987,-3.9875,-4.0582,-4.1033,-4.1081,-4.0931,-4.0897,-4.1089,-4.097,-4.0951,-4.1087,-4.1094,-4.1109,-4.1095,-4.1097,-4.111,-4.111,-4.1227,-4.1227,-4.111,-4.1344,-4.1753,-4.2299,-4.1753,-4.1799,-4.2376,-4.1763,-4.1808,-2.1967,-2.2565,-2.3215,-2.3403,-2.3957,-2.4526,0.0,0.0,0.0,0.0,0.0,0.0,0.0,0.0,0.0,0.0,0.0,0.0,0.0,0.0,0.0,0.0,0.0,0.0,0.0,0.0,0.0,0.0,0.0,-3.881,-3.881,-3.881,-3.881,-3.881,-3.881,-3.8822,-3.8844,-3.9253,-3.9604,-3.9851,-3.9914,-3.9738,-3.9362,-4.0158,-3.9726,-3.8397,0.0,-3.9961,-3.9085,-3.9794,-4.0024,-3.989,-3.9775,-3.8895,-3.774,-3.7706,-3.6899,-3.5813,-3.5852,-3.5883,-3.5903,-3.5898,-3.5911,-3.5903,-3.5898,-3.5911,-3.5924,-3.6047,-3.592,-3.5709,-3.5528,-3.5513,-3.5993,-3.7762,-3.8219,-3.8541,-3.9555,-3.9689,-3.9348,-3.847,-3.8307,-3.8525,-3.9279,-3.9513,-3.9895,-4.0769,-4.1016,-4.1085,-4.1103,-4.0444,-4.027,-4.1029,-4.0444,-4.0308,-4.1048,-4.1105,-4.1103,-4.1101,-4.1091,-4.111,-4.111,-4.1753,-4.1812,-4.111,-4.2494,-4.2922,-4.2299,-4.2922,-4.2903,-4.2318,-4.2929,-4.2915,-2.0896,-2.1962,-2.3073,-2.2731,-2.3545,-2.4445,0.0,0.0,0.0,0.0,0.0,0.0,0.0,0.0,0.0,0.0,0.0,0.0,0.0,0.0,0.0,0.0,0.0,0.0,0.0,0.0,0.0,0.0,0.0,0.0,-3.8707,-3.8707,-3.8707,-3.8707,-3.8851,-3.8939,-3.8939,-3.8824,-3.9032,-3.9647,-3.9975,-3.9986,-3.9768,-4.0268,-4.0062,-3.935,0.0,-4.0246,-3.9783,-3.9659,-3.9603,-3.9508,-3.861,-3.807,-3.7794,-3.758,-3.6716,-3.5678,-3.584,-3.5908,-3.5908,-3.5891,-3.5897,-3.5908,-3.5891,-3.5898,-3.5905,-3.5905,-3.5779,-3.5669,-3.5659,-3.6002,-3.6701,-3.7992,-3.8775,-3.9429,-4.0272,-4.0486,-4.0235,-3.9364,-3.9193,-3.9182,-3.9104,-3.9493,-3.9947,-4.034,-4.0773,-4.1066,-4.1107,-4.0741,-4.0656,-4.1052,-4.074,-4.0662,-4.1072,-4.1094,-4.1093,-4.1107,-4.1091,-4.1097,-4.1097,-4.1468,-4.148,-4.1106,-4.1866,-4.2265,-4.2299,-4.2265,-4.2518,-4.3,-4.2971,-4.3232,-2.0274,-2.1613,-2.2966,-2.2418,0.0,-2.4413,0.0,0.0,0.0,0.0,0.0,0.0,0.0,0.0,0.0,0.0,0.0,0.0,0.0,0.0,0.0,0.0,0.0,0.0,0.0,0.0,0.0,0.0,0.0,0.0,-3.8707,-3.8524,-3.8444,-3.8486,-3.8711,-3.8738,-3.8588,-3.8402,-3.871,-3.958,-3.9597,-3.9738,-4.0005,-4.0106,-4.0038,-3.9865,-4.0287,-4.023,-3.9791,-3.9218,-3.8877,-3.8572,-3.7274,-3.7105,-3.7516,-3.688,-3.6248,-3.5729,-3.5846,-3.5908,-3.5908,-3.5903,-3.5903,-3.5908,-3.5872,-3.5892,-3.5898,-3.585,-3.5782,-3.5737,-3.5786,-3.6416,-3.7288,-3.8201,-3.914,-4.0039,-4.0842,-4.1051,-4.0904,-4.0228,-4.0095,-3.9883,-3.9221,-3.9669,-4.0097,-4.009,-4.0623,-4.1033,-4.1091,-4.1103,-4.1097,-4.1108,-4.1283,-4.1498,-4.1693,-4.1709,-4.1716,-4.1718,-4.1324,-4.1107,-4.1107,-4.1302,-4.1394,-4.1397,-4.1592,-4.2007,-4.261,-4.1998,-4.2344,-4.3585,-4.3173,-4.3671,-2.1058,-2.1856,-2.2475,-2.2475,0.0,0.0,-2.5517,0.0,0.0,0.0,0.0,0.0,0.0,0.0,0.0,0.0,0.0,0.0,0.0,0.0,0.0,0.0,0.0,0.0,0.0,0.0,0.0,0.0,0.0,0.0,-3.8707,-3.7991,-3.7679,-3.7849,-3.7941,-3.7683,-3.7061,-3.8052,-3.8996,-3.9851,-3.8281,-3.808,-3.9088,-3.9106,-3.8666,-3.7978,-3.9603,-3.9392,-3.7959,-3.8686,-3.8514,-3.7789,-3.7658,-3.7247,-3.6613,-3.5874,-3.564,-3.5729,-3.5846,-3.5908,-3.5903,-3.5898,-3.5905,-3.5897,-3.583,-3.585,-3.5857,-3.5669,-3.5689,-3.5793,-3.5804,-3.6479,-3.7415,-3.8279,-3.9204,-4.0111,-4.0918,-4.1092,-4.1087,-4.1029,-4.1012,-4.0994,-4.0916,-4.0955,-4.1006,-4.1007,-4.1055,-4.1097,-4.1093,-4.1091,-4.1107,-4.1091,-4.181,-4.263,-4.343,-4.3512,-4.3512,-4.3515,-4.1992,-4.1107,-4.1107,-4.1888,-4.2316,-4.2318,-4.3097,-4.3518,-4.3513,-4.3459,-4.3475,-4.3624,-4.4378,-4.4786,-2.0682,-2.1663,-2.2595,-2.2671,0.0,0.0,0.0,0.0,0.0,0.0,0.0,0.0,0.0,0.0,0.0,0.0,0.0,0.0,0.0,0.0,0.0,0.0,0.0,0.0,0.0,0.0,0.0,0.0,0.0,0.0,-3.7221,-3.6909,-3.709,-3.7829,-3.8059,-3.8332,-3.8754,-3.8268,-3.848,-3.9337,-3.8118,-3.7774,-3.8209,-3.8744,-3.8514,-3.7769,-3.8973,-3.882,-3.7674,-3.7467,-3.7182,-3.6838,-3.6288,-3.5905,-3.5646,-3.5436,-3.5432,-3.553,-3.5621,-3.5687,-3.5704,-3.566,-3.5282,-3.4933,-3.5396,-3.5222,-3.4932,-3.5422,-3.5577,-3.5639,-3.5717,-3.6837,-3.8027,-3.8356,-3.9531,-4.0664,-4.0972,-4.103,-4.1058,-4.1088,-4.1025,-4.098,-4.098,-4.098,-4.0988,-4.0972,-4.1056,-4.1101,-4.1099,-4.111,-4.1094,-4.1107,-4.1878,-4.2747,-4.3626,-4.3704,-4.3704,-4.3704,-4.3076,-4.2729,-4.2729,-4.3022,-4.32,-4.3203,-4.3535,-4.3667,-4.3595,-4.3629,-4.3927,-4.4423,-4.4747,-4.5197,-2.1566,-2.2398,-2.3179,0.0,0.0,0.0,0.0,0.0,0.0,0.0,0.0,0.0,0.0,0.0,0.0,0.0,0.0,0.0,0.0,0.0,0.0,0.0,0.0,0.0,0.0,0.0,0.0,0.0,0.0,0.0,0.0,-3.6431,-3.6833,-3.797,-3.819,-3.8599,-3.92,-3.848,-3.8266,-3.8572,-3.7731,-3.7445,-3.7712,-3.8056,-3.8018,-3.7731,-3.8323,-3.8113,-3.7255,-3.6667,-3.6231,-3.5891,-3.5284,-3.5075,-3.5073,-3.5203,-3.5307,-3.5386,-3.5437,-3.5496,-3.5519,-3.5481,-3.5063,-3.4685,-3.5213,-3.5002,-3.4699,-3.5252,-3.5451,-3.5504,-3.5553,-3.693,-3.8313,-3.8302,-3.9667,-4.0969,-4.0962,-4.0976,-4.0972,-4.1028,-4.0937,-4.0839,-4.0839,-4.0839,-4.0839,-4.0839,-4.0945,-4.1037,-4.1033,-4.1065,-4.1304,-4.1854,-4.2707,-4.3576,-4.4445,-4.4524,-4.4524,-4.4524,-4.4524,-4.427,-4.3723,-4.3704,-4.383,-4.4114,-4.4117,-4.4218,-4.4429,-4.4474,-4.477,-4.5306,-4.532,-4.5634,-2.4059,-2.4241,0.0,0.0,0.0,0.0,0.0,0.0,0.0,0.0,0.0,0.0,0.0,0.0,0.0,0.0,0.0,0.0,0.0,0.0,0.0,0.0,0.0,0.0,0.0,0.0,0.0,0.0,0.0,0.0,0.0,-3.6707,-3.6878,-3.8164,-3.8263,-3.8118,-3.7731,-3.8572,-3.8572,-3.7693,-3.691,-3.6929,-3.7655,-3.6871,-3.6929,-3.7674,-3.7674,-3.7181,-3.6401,-3.6401,-3.5853,-3.5001,-3.5001,-3.5001,-3.502,-3.5152,-3.5232,-3.5311,-3.5368,-3.5399,-3.5386,-3.5399,-3.5387,-3.5374,-3.5321,-3.5339,-3.5348,-3.5235,-3.5331,-3.5469,-3.532,-3.669,-3.8112,-3.8102,-3.952,-4.0901,-4.0901,-4.0901,-4.0909,-4.0909,-4.0801,-4.0694,-4.0694,-4.0694,-4.0694,-4.0694,-4.0798,-4.0896,-4.0901,-4.1022,-4.1777,-4.3515,-4.4471,-4.5346,-4.6225,-4.63,-4.63,-4.63,-4.63,-4.5539,-4.3801,-4.3723,-4.4133,-4.4992,-4.5013,-4.5391,-4.6204,-4.6202,-4.6206,-4.6206,-4.6206,-4.6237,-2.3326,0.0,0.0,0.0,0.0,0.0,0.0,0.0,0.0,0.0,0.0,0.0,0.0,0.0,0.0,0.0,0.0,0.0,0.0,0.0,0.0,0.0,0.0,0.0,0.0,0.0,0.0,0.0,0.0,0.0,0.0,-3.567,-3.6484,-3.8225,-3.8467,-3.8893,-3.9527,-3.9183,-3.8877,-3.861,-3.775,-3.7177,-3.6852,-3.6623,-3.6298,-3.5974,-3.6585,-3.6358,-3.5539,-3.5507,-3.5266,-3.4927,-3.4927,-3.4927,-3.4945,-3.4982,-3.507,-3.5155,-3.5136,-3.5028,-3.492,-3.5066,-3.458,-3.4055,-3.481,-3.4668,-3.4375,-3.492,-3.5141,-3.5223,-3.5226,-3.653,-3.7882,-3.8054,-3.9429,-4.0703,-4.0738,-4.0715,-4.0703,-4.0749,-4.0649,-4.0564,-4.0564,-4.0564,-4.0588,-4.0681,-4.0798,-4.0943,-4.1032,-4.1613,-4.2428,-4.3518,-4.4407,-4.5272,-4.6152,-4.623,-4.6249,-4.6303,-4.6303,-4.6063,-4.5558,-4.5539,-4.5656,-4.5909,-4.5916,-4.6028,-4.6269,-4.6269,-4.6246,-4.6198,-4.6198,-4.6246,-2.401,0.0,0.0,0.0,0.0,0.0,0.0,0.0,0.0,0.0,0.0,0.0,0.0,0.0,0.0,0.0,0.0,0.0,0.0,0.0,0.0,0.0,0.0,0.0,0.0,0.0,0.0,0.0,0.0,0.0,0.0,-3.5581,-3.664,-3.8365,-3.8921,-3.9543,-4.0291,-3.9775,-3.9527,-3.9508,-3.8611,-3.7943,-3.7483,-3.6814,-3.6031,-3.5229,-3.573,-3.5656,-3.5143,-3.5056,-3.4964,-3.4908,-3.4908,-3.4908,-3.4908,-3.4908,-3.4889,-3.4889,-3.485,-3.4693,-3.451,-3.4651,-3.429,-3.3947,-3.4581,-3.4529,-3.4338,-3.4813,-3.5001,-3.5075,-3.5147,-3.642,-3.7731,-3.7896,-3.9278,-4.0559,-4.0602,-4.0593,-4.0559,-4.0602,-4.0564,-4.0489,-4.0489,-4.0549,-4.0621,-4.0681,-4.1089,-4.1429,-4.1565,-4.2635,-4.3573,-4.4059,-4.4894,-4.5629,-4.6165,-4.6204,-4.6226,-4.6269,-4.6269,-4.6268,-4.6295,-4.6306,-4.63,-4.63,-4.629,-4.63,-4.6307,-4.6269,-4.6249,-4.6249,-4.6249,-4.6269,0.0,0.0,0.0,0.0,0.0,0.0,0.0,0.0,0.0,0.0,0.0,0.0,0.0,0.0,0.0,0.0,0.0,0.0,0.0,0.0,0.0,0.0,0.0,0.0,0.0,0.0,0.0,0.0,0.0,0.0,0.0,-3.6073,-3.7087,-3.845,-3.9269,-3.9848,-4.0177,-4.0158,-4.0196,-4.0272,-3.9338,-3.888,-3.8821,-3.7294,-3.6129,-3.5288,-3.507,-3.4978,-3.4961,-3.4851,-3.4794,-3.4794,-3.487,-3.4908,-3.4908,-3.4889,-3.4771,-3.4602,-3.4561,-3.4404,-3.4173,-3.4197,-3.4363,-3.4561,-3.4583,-3.4751,-3.4908,-3.4908,-3.5002,-3.5134,-3.5189,-3.6499,-3.7811,-3.7827,-3.9188,-4.0473,-4.0473,-4.0473,-4.0492,-4.0489,-4.0489,-4.0504,-4.0519,-4.0615,-4.0745,-4.0815,-4.1634,-4.2274,-4.2403,-4.3877,-4.489,-4.4894,-4.5675,-4.6195,-4.6198,-4.62,-4.62,-4.6202,-4.6202,-4.6228,-4.6288,-4.6295,-4.6303,-4.63,-4.63,-4.6306,-4.6306,-4.6249,-4.6249,-4.6306,-4.6306,-4.63,0.0,0.0,0.0,0.0,0.0,0.0,0.0,0.0,0.0,0.0,0.0,0.0,0.0,0.0,0.0,0.0,0.0,0.0,0.0,0.0,0.0,0.0,0.0,0.0,0.0,0.0,0.0,0.0,0.0,0.0,-3.5509,-3.5908,-3.6578,-3.7639,-3.7927,-3.848,-3.9257,-3.9185,-3.9471,-4.0118,-3.9242,-3.8518,-3.7965,-3.7603,-3.6954,-3.6058,-3.4742,-3.4139,-3.4089,-3.4052,-3.4016,-3.4017,-3.4643,-3.4908,-3.4889,-3.473,-3.4626,-3.4561,-3.4363,-3.4124,-3.3921,-3.4124,-3.4245,-3.4316,-3.4539,-3.4751,-3.4908,-3.4908,-3.5439,-3.6027,-3.6045,-3.7337,-3.867,-3.8707,-3.9563,-4.0327,-4.0327,-4.0327,-4.0381,-4.0492,-4.0489,-4.0534,-4.0629,-4.0681,-4.0943,-4.1703,-4.2633,-4.3291,-4.3325,-4.4247,-4.4897,-4.491,-4.569,-4.6203,-4.6189,-4.6189,-4.6206,-4.6195,-4.6199,-4.6209,-4.6226,-4.6269,-4.63,-4.63,-4.6306,-4.6309,-4.6309,-4.6293,-4.6293,-4.6309,-4.6309,-4.6306,0.0,0.0,0.0,0.0,0.0,0.0,0.0,0.0,0.0,0.0,0.0,0.0,0.0,0.0,0.0,0.0,0.0,0.0,0.0,0.0,0.0,0.0,0.0,0.0,0.0,0.0,0.0,0.0,0.0,-3.3396,-3.3939,-3.49,-3.5723,-3.6365,-3.7309,-3.7993,-3.8431,-3.8362,-3.8518,-3.8899,-3.8442,-3.8023,-3.7642,-3.6841,-3.6268,-3.5755,-3.4698,-3.4073,-3.3824,-3.4074,-3.3999,-3.3771,-3.4586,-3.4908,-3.4889,-3.4668,-3.4517,-3.4363,-3.4099,-3.3815,-3.3633,-3.378,-3.3998,-3.4221,-3.4381,-3.4649,-3.4984,-3.5401,-3.5875,-3.635,-3.6806,-3.7871,-3.888,-3.8974,-3.968,-4.031,-4.031,-4.031,-4.0346,-4.0457,-4.0564,-4.0629,-4.0765,-4.1179,-4.1772,-4.268,-4.3615,-4.4228,-4.4228,-4.4988,-4.5514,-4.5514,-4.5923,-4.6196,-4.6196,-4.6196,-4.619,-4.6195,-4.6195,-4.6197,-4.6209,-4.6219,-4.6269,-4.6297,-4.6306,-4.63,-4.63,-4.63,-4.63,-4.63,-4.63,-4.6306,0.0,0.0,0.0,0.0,0.0,0.0,0.0,0.0,0.0,0.0,0.0,0.0,0.0,0.0,0.0,0.0,0.0,0.0,0.0,0.0,0.0,0.0,0.0,0.0,0.0,0.0,0.0,0.0,0.0,-3.2025,-3.226,-3.3638,-3.4634,-3.5109,-3.6531,-3.7414,-3.7619,-3.7587,-3.7596,-3.7585,-3.7452,-3.73,-3.711,-3.5775,-3.5223,-3.5284,-3.4526,-3.4016,-3.3752,-3.4049,-3.3995,-3.3771,-3.4434,-3.468,-3.4642,-3.44,-3.418,-3.3944,-3.3805,-3.3577,-3.3393,-3.3393,-3.378,-3.4234,-3.4364,-3.4636,-3.5078,-3.595,-3.6311,-3.6615,-3.7414,-3.8347,-3.9108,-3.9254,-3.9827,-4.0363,-4.0346,-4.0345,-4.0413,-4.0549,-4.0797,-4.1011,-4.1111,-4.2043,-4.3,-4.3721,-4.4579,-4.5124,-4.5124,-4.5748,-4.6196,-4.6196,-4.6196,-4.6196,-4.6196,-4.6196,-4.6196,-4.6196,-4.6196,-4.6196,-4.6197,-4.6201,-4.6228,-4.6289,-4.63,-4.6306,-4.6306,-4.6303,-4.63,-4.63,-4.6306,-4.6297,0.0,0.0,0.0,0.0,0.0,0.0,0.0,0.0,0.0,0.0,0.0,0.0,0.0,0.0,0.0,0.0,0.0,0.0,0.0,0.0,0.0,0.0,0.0,0.0,0.0,0.0,0.0,0.0,-3.2391,-3.2389,-3.2542,-3.2768,-3.3333,-3.4327,-3.4477,-3.5283,-3.6829,-3.6727,-3.6982,-3.7584,-3.6844,-3.6084,-3.5343,-3.5115,-3.5306,-3.5694,-3.3485,-3.2842,-3.331,-3.2688,-3.292,-3.3714,-3.3828,-3.3866,-3.3809,-3.3325,-3.3101,-3.3117,-3.3378,-3.3422,-3.3393,-3.3393,-3.378,-3.4327,-3.5039,-3.5068,-3.5078,-3.595,-3.6748,-3.7414,-3.7704,-3.8958,-4.023,-4.0428,-4.0565,-4.0602,-4.0489,-4.0545,-4.0681,-4.0828,-4.1507,-4.2096,-4.2103,-4.3461,-4.4579,-4.4715,-4.5475,-4.602,-4.602,-4.6137,-4.6196,-4.6196,-4.6196,-4.6196,-4.6196,-4.6196,-4.6196,-4.6196,-4.6196,-4.6203,-4.6209,-4.6211,-4.6191,-4.6218,-4.6269,-4.6305,-4.6305,-4.6293,-4.63,-4.63,-4.63,-4.6306,0.0,0.0,0.0,0.0,0.0,0.0,0.0,0.0,0.0,0.0,0.0,0.0,0.0,0.0,0.0,0.0,0.0,0.0,0.0,0.0,0.0,0.0,0.0,0.0,0.0,0.0,0.0,0.0,-3.1288,-3.1054,-3.12,-3.1694,-3.2229,-3.2774,-3.3249,-3.3846,-3.4565,-3.4513,-3.4606,-3.4835,-3.439,-3.3976,-3.3596,-3.3596,-3.4169,-3.5101,-3.3861,-3.3228,-3.309,-3.3224,-3.3355,-3.3542,-3.415,-3.4093,-3.3639,-3.3134,-3.2655,-3.2289,-3.2782,-3.294,-3.304,-3.3642,-3.4124,-3.4558,-3.5385,-3.5694,-3.6007,-3.7338,-3.8023,-3.8531,-3.9109,-3.9861,-4.0481,-4.0615,-4.073,-4.0807,-4.073,-4.0706,-4.073,-4.0869,-4.1665,-4.2455,-4.2935,-4.4072,-4.5066,-4.5553,-4.5942,-4.6196,-4.6196,-4.6196,-4.6196,-4.6196,-4.6138,-4.613,-4.6196,-4.6138,-4.613,-4.6196,-4.6196,-4.6196,-4.6196,-4.6203,-4.6195,-4.6195,-4.6237,-4.6269,-4.6307,-4.6303,-4.63,-4.63,-4.6305,-4.6289,0.0,0.0,0.0,0.0,0.0,0.0,0.0,0.0,0.0,0.0,0.0,0.0,0.0,0.0,0.0,0.0,0.0,0.0,0.0,0.0,0.0,0.0,0.0,0.0,0.0,0.0,0.0,0.0,-3.03,-3.0,-3.0138,-3.0835,-3.1379,-3.1722,-3.2405,-3.2819,-3.2921,-3.2859,-3.2766,-3.2657,-3.2545,-3.2477,-3.2477,-3.2477,-3.3015,-3.3949,-3.3664,-3.3324,-3.2966,-3.3621,-3.3825,-3.3785,-3.4358,-3.4226,-3.3658,-3.324,-3.2676,-3.218,-3.2798,-3.3018,-3.3135,-3.3944,-3.439,-3.4816,-3.5854,-3.6311,-3.6795,-3.8495,-3.9025,-3.926,-3.9954,-4.0323,-4.0554,-4.0655,-4.0776,-4.0917,-4.0935,-4.0869,-4.0897,-4.1207,-4.2004,-4.2922,-4.378,-4.4656,-4.5455,-4.6098,-4.6196,-4.6196,-4.6196,-4.6196,-4.6196,-4.6196,-4.6084,-4.6037,-4.6146,-4.5998,-4.5988,-4.6146,-4.6146,-4.6154,-4.6196,-4.6196,-4.6196,-4.6196,-4.6206,-4.6219,-4.6269,-4.6269,-4.6269,-4.6269,-4.6269,-4.6243,0.0,0.0,0.0,0.0,0.0,0.0,0.0,0.0,0.0,0.0,0.0,0.0,0.0,0.0,0.0,0.0,0.0,0.0,0.0,0.0,0.0,0.0,0.0,0.0,0.0,0.0,0.0,0.0,-3.0053,-3.0152,-3.0279,-3.0398,-3.0874,-3.1768,-3.1845,-3.222,-3.3003,-3.2737,-3.2603,-3.2588,-3.2476,-3.2406,-3.2406,-3.2406,-3.2354,-3.2214,-3.1946,-3.2288,-3.2994,-3.3032,-3.3749,-3.4737,-3.4036,-3.3733,-3.3677,-3.3387,-3.3266,-3.3299,-3.3915,-3.4117,-3.4141,-3.4179,-3.442,-3.5,-3.6723,-3.6937,-3.6942,-3.8629,-3.909,-3.9157,-3.9386,-4.0024,-4.0642,-4.0849,-4.0878,-4.0935,-4.1071,-4.1078,-4.1312,-4.2078,-4.2935,-4.3819,-4.4676,-4.5553,-4.6157,-4.6196,-4.6196,-4.6196,-4.6196,-4.6196,-4.6196,-4.6196,-4.6084,-4.6007,-4.6007,-4.5835,-4.5803,-4.5997,-4.6007,-4.6075,-4.6196,-4.6196,-4.6196,-4.6196,-4.6203,-4.6189,-4.621,-4.6217,-4.6205,-4.6205,-4.6206,-4.6191,0.0,0.0,0.0,0.0,0.0,0.0,0.0,0.0,0.0,0.0,0.0,0.0,0.0,0.0,0.0,0.0,0.0,0.0,0.0,0.0,0.0,0.0,0.0,0.0,0.0,0.0,0.0,0.0,0.0,-3.003,-2.9552,-2.9547,-2.9755,-3.0192,-3.0192,-3.0559,-3.1334,-3.1101,-3.1005,-3.0986,-3.0845,-3.0814,-3.0814,-3.0814,-3.0692,-3.0546,-3.158,-3.2355,-3.299,-3.3732,-3.4298,-3.4693,-3.4528,-3.415,-3.3677,-3.3446,-3.3008,-3.2651,-3.3481,-3.3744,-3.3879,-3.4643,-3.4978,-3.5405,-3.7104,-3.7562,-3.7849,-3.9527,-4.0087,-4.0196,-4.0282,-4.0513,-4.0776,-4.0926,-4.0952,-4.0988,-4.1078,-4.1071,-4.1298,-4.2137,-4.3,-4.3877,-4.4754,-4.5611,-4.6196,-4.6196,-4.6196,-4.6196,-4.6196,-4.6111,-4.6075,-4.6075,-4.5841,-4.5708,-4.579,-4.5665,-4.5694,-4.5986,-4.5997,-4.6066,-4.6196,-4.6196,-4.6196,-4.6196,-4.6196,-4.6203,-4.6206,-4.6199,-4.6202,-4.6202,-4.6191,-4.6192,0.0,0.0,0.0,0.0,0.0,0.0,0.0,0.0,0.0,0.0,0.0,0.0,0.0,0.0,0.0,0.0,0.0,0.0,0.0,0.0,0.0,0.0,0.0,0.0,0.0,0.0,0.0,0.0,0.0,0.0,-2.9558,-2.9571,-2.9621,-2.967,-2.9641,-2.9858,-3.0285,-3.0118,-3.0015,-3.0015,-2.9937,-2.9888,-2.9888,-2.9888,-3.0007,-3.0277,-3.1707,-3.2487,-3.2804,-3.4141,-3.4753,-3.4851,-3.4926,-3.4641,-3.4148,-3.396,-3.3542,-3.3147,-3.3809,-3.4034,-3.4184,-3.5028,-3.5537,-3.6065,-3.7448,-3.8171,-3.8807,-4.0202,-4.07,-4.079,-4.079,-4.0808,-4.0815,-4.0908,-4.0927,-4.0945,-4.1023,-4.103,-4.1376,-4.2507,-4.3189,-4.3975,-4.5144,-4.5825,-4.6196,-4.6196,-4.6196,-4.6189,-4.6138,-4.6066,-4.5966,-4.5902,-4.5669,-4.5541,-4.5634,-4.5507,-4.5577,-4.5891,-4.5902,-4.5988,-4.6196,-4.6196,-4.6196,-4.6196,-4.6196,-4.6196,-4.6206,-4.6206,-4.6176,-4.6138,-4.6138,-4.6137,0.0,0.0,0.0,0.0,0.0,0.0,0.0,0.0,0.0,0.0,0.0,0.0,0.0,0.0,0.0,0.0,0.0,0.0,0.0,0.0,0.0,0.0,0.0,0.0,0.0,0.0,0.0,0.0,-3.0352,-3.0398,-3.0359,-3.0491,-3.0482,-3.0321,-3.0304,-3.024,-3.0109,-2.9972,-2.9888,-2.9888,-2.9888,-2.9888,-2.9888,-2.9888,-3.0424,-3.142,-3.2241,-3.2504,-3.2463,-3.4201,-3.5062,-3.53,-3.5155,-3.5105,-3.5088,-3.4945,-3.4908,-3.4908,-3.5053,-3.5105,-3.5122,-3.5289,-3.6017,-3.696,-3.7789,-3.8737,-3.9681,-4.0539,-4.079,-4.079,-4.079,-4.079,-4.079,-4.0803,-4.0803,-4.0808,-4.0888,-4.1015,-4.1591,-4.3227,-4.3578,-4.415,-4.5864,-4.6176,-4.6196,-4.6196,-4.6196,-4.6146,-4.6007,-4.5997,-4.5902,-4.5717,-4.5571,-4.549,-4.549,-4.5381,-4.5419,-4.5689,-4.5717,-4.5852,-4.6189,-4.6196,-4.6196,-4.6196,-4.6196,-4.6196,-4.6196,-4.6196,-4.6138,-4.5997,-4.5997,-4.5997,-2.5703,0.0,0.0,0.0,0.0,0.0,0.0,0.0,0.0,0.0,0.0,0.0,0.0,0.0,0.0,0.0,0.0,0.0,0.0,0.0,0.0,0.0,0.0,0.0,0.0,0.0,0.0,0.0,-3.0182,-3.0279,-2.9641,-2.9544,-2.9224,-2.8606,-2.9615,-3.0138,-3.0109,-2.9972,-2.9888,-2.9888,-2.9888,-2.9888,-2.9888,-2.9888,-3.0102,-3.0528,-3.2077,-3.2766,-3.2927,-3.4523,-3.5232,-3.53,-3.5155,-3.5105,-3.5088,-3.4945,-3.4908,-3.4908,-3.5053,-3.5155,-3.5381,-3.6133,-3.6607,-3.7158,-3.8646,-3.9289,-3.9681,-4.0539,-4.079,-4.079,-4.079,-4.079,-4.0803,-4.0792,-4.0804,-4.0837,-4.0954,-4.0996,-4.1349,-4.2448,-4.3169,-4.3955,-4.5066,-4.5787,-4.6181,-4.6075,-4.6066,-4.5988,-4.5803,-4.5694,-4.5623,-4.5555,-4.5438,-4.5361,-4.5361,-4.54,-4.5524,-4.5689,-4.5847,-4.5998,-4.6196,-4.6196,-4.6196,-4.6196,-4.6196,-4.6146,-4.6066,-4.6066,-4.6047,-4.5997,-4.5847,-4.579,0.0,0.0,0.0,0.0,0.0,0.0,-2.512,-2.5038,0.0,0.0,0.0,0.0,0.0,0.0,0.0,0.0,0.0,0.0,0.0,0.0,0.0,0.0,0.0,0.0,0.0,-2.9031,-2.9689,-2.8818,-2.9573,-2.9815,-2.9255,-2.9462,-2.9356,-2.8828,-2.965,-3.0079,-3.0034,-2.9937,-2.9888,-2.9888,-2.9888,-2.9888,-2.9888,-2.9888,-3.0178,-3.0734,-3.2163,-3.3071,-3.3607,-3.4859,-3.5388,-3.5374,-3.5235,-3.5155,-3.5088,-3.4945,-3.4908,-3.4908,-3.5053,-3.5155,-3.5327,-3.604,-3.6537,-3.7127,-3.8535,-3.9204,-3.9681,-4.0539,-4.079,-4.079,-4.079,-4.079,-4.0803,-4.08,-4.0792,-4.0826,-4.0945,-4.0917,-4.1257,-4.2505,-4.3206,-4.3953,-4.5045,-4.5715,-4.6056,-4.5902,-4.5871,-4.5822,-4.565,-4.5558,-4.5491,-4.5419,-4.54,-4.5381,-4.5381,-4.5507,-4.565,-4.5803,-4.5944,-4.6066,-4.6196,-4.6196,-4.6196,-4.6196,-4.6196,-4.6083,-4.5891,-4.5956,-4.6034,-4.6132,-4.6129,-4.6244,0.0,0.0,0.0,0.0,0.0,0.0,-2.4793,-2.4657,-2.458,0.0,0.0,0.0,0.0,0.0,0.0,0.0,0.0,0.0,0.0,0.0,0.0,0.0,0.0,0.0,-2.676,-2.8277,-2.8934,-2.8073,-2.8722,-2.9043,-2.8827,-2.9562,-2.9939,-2.9842,-2.9904,-2.9939,-2.9888,-2.9905,-2.9921,-2.9921,-2.9937,-2.9937,-2.9937,-2.9937,-3.0434,-3.135,-3.2368,-3.3269,-3.4128,-3.5079,-3.5502,-3.5502,-3.5345,-3.5203,-3.5088,-3.4945,-3.4908,-3.4927,-3.5035,-3.5088,-3.5157,-3.5498,-3.6157,-3.6993,-3.804,-3.8895,-3.9681,-4.0539,-4.079,-4.079,-4.079,-4.079,-4.079,-4.079,-4.079,-4.0827,-4.0878,-4.0796,-4.1195,-4.2895,-4.3411,-4.3964,-4.5202,-4.5677,-4.5839,-4.5703,-4.5612,-4.5549,-4.549,-4.5473,-4.5438,-4.5298,-4.5419,-4.549,-4.549,-4.563,-4.5803,-4.5956,-4.5997,-4.6037,-4.6146,-4.6162,-4.6189,-4.6189,-4.6251,-4.6085,-4.5675,-4.5932,-4.6098,-4.626,-4.6572,-4.6958,0.0,0.0,0.0,0.0,0.0,0.0,-2.4332,-2.41,-2.393,0.0,0.0,0.0,0.0,0.0,0.0,0.0,0.0,0.0,0.0,0.0,0.0,0.0,0.0,0.0,-2.6721,-2.8277,-2.8934,-2.8073,-2.8116,-2.7836,-2.7059,-2.772,-2.8114,-2.8093,-2.8654,-2.9276,-2.9888,-3.0019,-3.0064,-3.0064,-3.0166,-3.0226,-3.0226,-3.0226,-3.0369,-3.0686,-3.216,-3.2916,-3.3275,-3.4721,-3.5402,-3.547,-3.5235,-3.5122,-3.5088,-3.4945,-3.4908,-3.4889,-3.4926,-3.5,-3.5253,-3.6102,-3.6584,-3.7109,-3.8755,-3.9359,-3.9681,-4.0539,-4.079,-4.079,-4.079,-4.079,-4.079,-4.079,-4.079,-4.0796,-4.0826,-4.0773,-4.0971,-4.1931,-4.2834,-4.3481,-4.366,-4.4481,-4.522,-4.5491,-4.5075,-4.4886,-4.5304,-4.5339,-4.5339,-4.5297,-4.5419,-4.549,-4.549,-4.5769,-4.5891,-4.5777,-4.5914,-4.5944,-4.5796,-4.5947,-4.6027,-4.6027,-4.6569,-4.6419,-4.5541,-4.6013,-4.6154,-4.5982,-4.6477,-4.6853,0.0,0.0,0.0,-2.5815,0.0,0.0,0.0,-2.4052,-2.3595,0.0,0.0,0.0,0.0,0.0,0.0,0.0,0.0,0.0,0.0,0.0,0.0,0.0,0.0,0.0,-2.6002,-2.7215,-2.7815,-2.7343,-2.7248,-2.6971,-2.6427,-2.714,-2.7737,-2.8141,-2.8499,-2.9106,-2.9984,-3.0079,-3.0138,-3.0213,-3.0266,-3.0292,-3.0292,-3.0292,-3.0273,-3.0331,-3.1596,-3.2382,-3.2847,-3.4091,-3.4871,-3.5281,-3.5155,-3.5053,-3.4982,-3.4908,-3.4908,-3.4908,-3.4908,-3.4945,-3.5075,-3.5668,-3.6189,-3.6876,-3.8317,-3.9399,-4.023,-4.0674,-4.079,-4.079,-4.079,-4.079,-4.079,-4.079,-4.0796,-4.0781,-4.0699,-4.0662,-4.0731,-4.1035,-4.1944,-4.2884,-4.3627,-4.4621,-4.5336,-4.5464,-4.5163,-4.4995,-4.5281,-4.5297,-4.5297,-4.5297,-4.5491,-4.5603,-4.5603,-4.5914,-4.6056,-4.5968,-4.5977,-4.5956,-4.5847,-4.5847,-4.6041,-4.6487,-4.7152,-4.7234,-4.6741,-4.7048,-4.6879,-4.6318,-4.7029,-4.7638,0.0,0.0,0.0,0.0,0.0,-2.5321,0.0,0.0,0.0,0.0,0.0,0.0,0.0,0.0,0.0,0.0,0.0,0.0,0.0,0.0,0.0,0.0,0.0,0.0,-2.5255,-2.5956,-2.6448,-2.6554,-2.6354,-2.6178,-2.6073,-2.6844,-2.7671,-2.8487,-2.8677,-2.9197,-3.0138,-3.0152,-3.0221,-3.0318,-3.0362,-3.0343,-3.0318,-3.0318,-3.0247,-3.0195,-3.1101,-3.1819,-3.2454,-3.3451,-3.4251,-3.4861,-3.5013,-3.5,-3.4908,-3.4908,-3.4908,-3.4908,-3.4908,-3.4908,-3.4908,-3.5053,-3.5825,-3.6903,-3.7945,-3.9438,-4.079,-4.079,-4.079,-4.079,-4.079,-4.0759,-4.0746,-4.0746,-4.0713,-4.0674,-4.0563,-4.054,-4.05,-4.0406,-4.1181,-4.2314,-4.3778,-4.4737,-4.5349,-4.5468,-4.5285,-4.5188,-4.5298,-4.5297,-4.5297,-4.5297,-4.5541,-4.5703,-4.5703,-4.6018,-4.6169,-4.6111,-4.6037,-4.5956,-4.5873,-4.5736,-4.5989,-4.6688,-4.7409,-4.7664,-4.7473,-4.7795,-4.7537,-4.6719,-4.7611,-4.8366,0.0,0.0,0.0,0.0,-2.5525,0.0,0.0,0.0,-2.3614,-2.2859,0.0,0.0,0.0,0.0,0.0,0.0,0.0,0.0,0.0,0.0,0.0,0.0,0.0,0.0,0.0,-2.5269,-2.5653,-2.6369,-2.569,-2.5246,-2.5234,-2.6047,-2.6906,-2.7802,-2.8549,-2.9385,-3.0266,-3.0348,-3.0375,-3.0386,-3.0519,-3.049,-3.0394,-3.0394,-3.0348,-3.0324,-3.1083,-3.1463,-3.1657,-3.3121,-3.377,-3.3922,-3.4642,-3.4908,-3.4908,-3.4908,-3.4908,-3.4908,-3.4908,-3.4908,-3.4908,-3.5053,-3.632,-3.7978,-3.8878,-3.992,-4.079,-4.079,-4.079,-4.079,-4.079,-4.0668,-4.0526,-4.0526,-4.0431,-4.0348,-4.0351,-4.0302,-4.0269,-4.0306,-4.108,-4.2014,-4.2905,-4.3485,-4.421,-4.5243,-4.4941,-4.4765,-4.5244,-4.5297,-4.5297,-4.5297,-4.5541,-4.5703,-4.5703,-4.6018,-4.6074,-4.577,-4.5914,-4.5815,-4.54,-4.5473,-4.5563,-4.5678,-4.649,-4.6494,-4.5606,-4.6814,-4.7155,-4.6731,-4.7703,-4.8126,0.0,0.0,0.0,0.0,0.0,0.0,-2.5808,0.0,-2.415,0.0,0.0,0.0,0.0,0.0,0.0,0.0,-2.2542,0.0,0.0,0.0,0.0,0.0,0.0,0.0,0.0,0.0,0.0,0.0,-2.5304,-2.5088,-2.5044,-2.538,-2.6205,-2.7527,-2.7445,-2.8273,-3.018,-2.9742,-2.9806,-3.0336,-3.039,-3.039,-3.0336,-3.0336,-3.0561,-3.0949,-3.1268,-3.1911,-3.2779,-3.3429,-3.3979,-3.4434,-3.4775,-3.4908,-3.4908,-3.4908,-3.4908,-3.4908,-3.4908,-3.4908,-3.5078,-3.6103,-3.7373,-3.8676,-3.9519,-4.0117,-4.05,-4.05,-4.05,-4.05,-4.05,-4.045,-4.0383,-4.0383,-4.0364,-4.0332,-4.0212,-4.025,-4.0286,-4.0196,-4.0628,-4.1264,-4.208,-4.3211,-4.4341,-4.5299,-4.5235,-4.5156,-4.5399,-4.5438,-4.5456,-4.5524,-4.563,-4.5744,-4.5859,-4.6074,-4.636,-4.6717,-4.6706,-4.6313,-4.5457,-4.5973,-4.6205,-4.609,-4.6932,-4.7408,-4.7513,-4.7884,-4.798,-4.7825,-4.7956,-4.8366,-2.8167,0.0,0.0,0.0,0.0,0.0,0.0,0.0,0.0,0.0,0.0,0.0,0.0,0.0,0.0,0.0,0.0,-2.2579,0.0,0.0,0.0,0.0,0.0,0.0,0.0,0.0,0.0,-2.4993,-2.5051,-2.5051,-2.5031,-2.524,-2.5937,-2.7181,-2.6839,-2.7513,-2.9365,-2.9027,-2.9183,-2.987,-3.0087,-3.0221,-3.0253,-3.0253,-3.0643,-3.1343,-3.1343,-3.2112,-3.3354,-3.36,-3.4036,-3.4586,-3.4813,-3.4775,-3.4605,-3.4813,-3.4908,-3.4908,-3.4908,-3.5059,-3.5495,-3.6917,-3.808,-3.9052,-3.9853,-4.0194,-4.03,-4.03,-4.03,-4.03,-4.03,-4.0283,-4.0248,-4.0248,-4.0247,-4.0229,-4.0081,-4.0158,-4.0251,-4.0118,-4.0271,-4.0679,-4.149,-4.2936,-4.427,-4.503,-4.5337,-4.549,-4.549,-4.549,-4.5539,-4.5689,-4.5744,-4.5847,-4.5997,-4.6344,-4.6819,-4.7462,-4.7281,-4.6661,-4.5594,-4.6123,-4.6359,-4.6175,-4.6787,-4.7554,-4.8482,-4.8172,-4.8308,-4.8781,-4.8447,-4.8698,0.0,0.0,0.0,-2.7453,0.0,0.0,0.0,0.0,-2.6096,0.0,0.0,0.0,0.0,0.0,-2.231,-2.231,-2.231,0.0,0.0,0.0,0.0,0.0,0.0,0.0,0.0,0.0,-2.4723,-2.4723,-2.4889,-2.5031,-2.5101,-2.5907,-2.6414,-2.6535,-2.7332,-2.7707,-2.7573,-2.8327,-2.8727,-2.8755,-2.9546,-2.9984,-3.0109,-3.0109,-3.0525,-3.1212,-3.1212,-3.1686,-3.252,-3.3354,-3.3714,-3.3828,-3.4605,-3.4415,-3.3828,-3.4605,-3.4908,-3.4908,-3.4908,-3.5438,-3.6291,-3.7125,-3.808,-3.9052,-3.9853,-4.0194,-4.03,-4.03,-4.03,-4.03,-4.03,-4.0194,-4.0101,-4.0101,-4.0,-3.9911,-3.9911,-3.9954,-4.0017,-4.0077,-4.0157,-4.0502,-4.1361,-4.2483,-4.3453,-4.4133,-4.4956,-4.549,-4.549,-4.549,-4.5539,-4.5689,-4.5871,-4.5997,-4.5997,-4.6889,-4.7462,-4.7501,-4.7187,-4.6607,-4.5742,-4.561,-4.5476,-4.5335,-4.5373,-4.5878,-4.6873,-4.6663,-4.7505,-4.9279,-4.9265,-4.9031,0.0,0.0,-2.8299,-2.8056,0.0,0.0,0.0,0.0,0.0,0.0,0.0,0.0,0.0,0.0,-2.231,-2.231,-2.231,-2.2282,0.0,0.0,0.0,0.0,0.0,0.0,0.0,0.0,0.0,-2.4246,-2.4456,-2.4607,-2.4636,-2.5424,-2.6115,-2.6691,-2.6975,-2.7636,-2.867,-2.857,-2.877,-2.9297,-2.9699,-2.9934,-3.0007,-3.0557,-3.1246,-3.1989,-3.1989,-3.2785,-3.4036,-3.3809,-3.4017,-3.4529,-3.4794,-3.4737,-3.4529,-3.4794,-3.4567,-3.4263,-3.5382,-3.667,-3.7883,-3.8167,-3.8854,-3.9616,-3.9901,-4.0,-4.004,-4.004,-4.004,-4.004,-4.004,-4.0,-3.9977,-3.9977,-3.9914,-3.9889,-3.9889,-4.0409,-4.0699,-4.0131,-4.0556,-4.1092,-4.1379,-4.2278,-4.3194,-4.3943,-4.4882,-4.549,-4.549,-4.5571,-4.5708,-4.5891,-4.5956,-4.6047,-4.6111,-4.7506,-4.8105,-4.754,-4.7815,-4.7301,-4.5775,-4.5571,-4.5438,-4.5297,-4.5812,-4.6626,-4.7662,-4.8126,-4.9009,-5.0303,-5.0298,-5.009,-2.9197,-2.9215,0.0,-2.8883,-2.8629,0.0,-2.8053,0.0,-2.6851,0.0,0.0,0.0,0.0,0.0,-2.3073,-2.3024,-2.289,-2.275,0.0,-2.3319,0.0,0.0,0.0,0.0,0.0,0.0,-2.3891,-2.3891,-2.421,-2.4389,0.0,-2.5152,-2.5838,-2.6358,-2.6655,-2.7283,-2.8299,-2.8197,-2.8464,-2.9064,-2.9476,-2.9751,-2.9926,-3.0814,-3.1648,-3.2425,-3.2728,-3.3638,-3.4851,-3.4339,-3.4434,-3.4908,-3.4908,-3.4548,-3.4074,-3.468,-3.4775,-3.4775,-3.614,-3.7523,-3.87,-3.87,-3.9248,-3.9889,-3.9889,-3.9889,-3.9889,-3.9889,-3.9889,-3.9889,-3.9889,-3.9889,-3.9889,-3.9889,-4.0157,-4.0344,-4.0344,-4.1073,-4.1554,-4.1003,-4.139,-4.1814,-4.1874,-4.26,-4.3385,-4.392,-4.4825,-4.5456,-4.549,-4.5571,-4.5722,-4.5966,-4.5997,-4.6319,-4.7065,-4.8144,-4.867,-4.8417,-4.8458,-4.7796,-4.6239,-4.6034,-4.5898,-4.5717,-4.6538,-4.7467,-4.8529,-4.9048,-4.9832,-5.079,-5.079,-5.0675]}]]